Date StartTime U_cm/s V_cm/s W_cm/s Ustd_cm/s Vstd_cm/s Wstd_cm/s Uvar_(cm/s)^2 Vvar_(cm/s)^2 Wvar_(cm/s)^2 KE_(m/s)^2 TurbulentKE_(m/s)^2 HorizWindSpeed_cm/s FrictionSpeec_cm/s DragCoef SpeedOfSound_m/s SonicTemperature_C Pressure_mb 
01/10/2015  00:00:00     -119.541        9.973      -19.384       24.445       21.142       13.428      597.540      446.964      180.317        0.799        0.061      119.957       10.524        0.008      335.281        5.810      860.901
01/10/2015  00:01:00     -105.242       -5.459      -10.976       26.588       24.896       15.292      706.914      619.815      233.833        0.639        0.078      105.383       10.690        0.010      335.259        5.773      860.892
01/10/2015  00:02:00      -84.989      -26.765       -4.330       45.908       32.249       20.976     2107.513     1039.994      439.985        0.577        0.179       89.104       17.462        0.038      335.169        5.624      860.887
01/10/2015  00:03:00      -98.142       -7.969       -9.570       35.322       28.763       21.018     1247.671      827.317      441.737        0.615        0.126       98.465       22.433        0.052      335.160        5.609      860.875
01/10/2015  00:04:00     -109.261       -1.690      -10.582       24.643       29.005       17.525      607.291      841.270      307.110        0.690        0.088      109.274       13.458        0.015      335.110        5.527      860.875
01/10/2015  00:05:00     -106.158        6.453      -13.758       24.271       27.191       19.061      589.069      739.338      363.303        0.660        0.085      106.354       12.767        0.014      335.120        5.544      860.869
01/10/2015  00:06:00      -70.878       20.252       -5.647       25.342       26.930       14.116      642.227      725.218      199.248        0.352        0.078       73.714       11.093        0.023      335.170        5.626      860.863
01/10/2015  00:07:00      -72.498        8.822      -12.641       23.464       19.349       15.597      550.544      374.400      243.272        0.333        0.058       73.032       10.738        0.022      335.214        5.697      860.855
01/10/2015  00:08:00      -59.568      -26.117       -8.548       16.638       28.963       10.307      276.810      838.869      106.227        0.276        0.061       65.042        9.641        0.022      335.194        5.663      860.857
01/10/2015  00:09:00      -99.951      -47.424       -5.342       26.193       17.271       16.149      686.096      298.278      260.803        0.676        0.062      110.631       10.063        0.008      335.146        5.585      860.872
01/10/2015  00:10:00     -105.420      -42.005       -2.671       21.368       16.448       14.157      456.591      270.530      200.408        0.691        0.046      113.480       11.632        0.011      335.212        5.695      860.890
01/10/2015  00:11:00      -86.659      -44.451        0.376       26.299       13.497       13.234      691.618      182.173      175.131        0.527        0.052       97.394       10.395        0.011      335.300        5.841      860.898
01/10/2015  00:12:00      -60.598      -13.223       -5.525        7.435       10.125        6.680       55.283      102.518       44.625        0.204        0.010       62.024        3.972        0.004      335.241        5.744      860.886
01/10/2015  00:13:00      -54.893      -13.433       -6.680       10.301       11.091        7.083      106.107      123.016       50.176        0.176        0.014       56.513        6.812        0.015      335.255        5.767      860.873
01/10/2015  00:14:00      -52.961      -20.056       -1.021       14.004       13.211       10.062      196.107      174.534      101.248        0.184        0.024       56.631        8.763        0.024      335.291        5.824      860.861
01/10/2015  00:15:00      -78.014      -35.996       -5.435       18.600       11.319        8.267      345.967      128.120       68.342        0.398        0.027       85.919        9.254        0.012      335.278        5.804      860.869
01/10/2015  00:16:00      -81.717      -40.954       -3.950       10.179       11.068        8.697      103.612      122.491       75.642        0.434        0.015       91.405        5.390        0.003      335.267        5.785      860.876
01/10/2015  00:17:00      -76.952      -36.544       -5.627       14.481       14.216       12.093      209.706      202.087      146.237        0.392        0.028       85.189        7.223        0.007      335.313        5.862      860.897
01/10/2015  00:18:00      -34.512      -35.520       11.646       37.190       26.378       16.161     1383.076      695.797      261.191        0.246        0.117       49.525       15.264        0.095      335.281        5.809      860.905
01/10/2015  00:19:00     -114.256      -72.742       -2.947       64.330       41.052       29.672     4138.389     1685.238      880.429        1.253        0.335      135.447       29.856        0.049      335.268        5.787      860.912
01/10/2015  00:20:00      -95.036      -77.955        3.581       54.110       49.026       31.191     2927.857     2403.598      972.848        1.071        0.315      122.919       34.094        0.077      335.311        5.859      860.918
01/10/2015  00:21:00     -127.004      -92.062       -1.623       36.435       48.254       22.547     1327.487     2328.487      508.346        1.439        0.208      156.862       23.898        0.023      335.280        5.807      860.921
01/10/2015  00:22:00     -116.086      -89.383       -2.195       44.483       44.646       21.236     1978.709     1993.272      450.971        1.295        0.221      146.511       17.036        0.014      335.268        5.788      860.931
01/10/2015  00:23:00      -89.900      -83.921       -5.021       46.773       44.909       27.248     2187.678     2016.824      742.458        1.005        0.247      122.983       28.257        0.053      335.280        5.807      860.942
01/10/2015  00:24:00      -95.175      -77.399        1.495       59.715       44.812       36.966     3565.875     2008.108     1366.453        1.099        0.347      122.674       31.313        0.065      335.266        5.783      860.949
01/10/2015  00:25:00      -90.516      -87.359       -2.743       60.152       55.102       36.228     3618.318     3036.224     1312.466        1.190        0.398      125.797       35.457        0.079      335.302        5.844      860.960
01/10/2015  00:26:00     -106.048     -117.223        0.911       53.321       56.742       33.507     2843.153     3219.691     1122.724        1.609        0.359      158.075       28.072        0.032      335.319        5.872      860.970
01/10/2015  00:27:00     -139.343     -111.666      -11.941       42.741       38.762       24.955     1826.803     1502.484      622.733        1.799        0.198      178.566       17.457        0.010      335.236        5.734      860.979
01/10/2015  00:28:00     -129.821      -81.436       -5.210       46.227       27.654       20.368     2136.974      764.739      414.858        1.341        0.166      153.249       21.036        0.019      335.193        5.663      860.985
01/10/2015  00:29:00     -122.597      -80.591       -2.848       26.323       29.996       21.691      692.916      899.732      470.514        1.180        0.103      146.713       13.144        0.008      335.133        5.567      860.988
01/10/2015  00:30:00     -112.685      -89.935        1.763       40.247       26.695       25.076     1619.786      712.622      628.781        1.187        0.148      144.174       25.234        0.031      335.142        5.580      860.987
01/10/2015  00:31:00     -126.539      -65.066       -4.757       31.123       26.739       21.816      968.610      714.980      475.924        1.121        0.108      142.287       15.204        0.011      335.133        5.565      860.975
01/10/2015  00:32:00     -119.358      -67.340       -0.240       29.536       34.197       23.849      872.399     1169.407      568.785        1.070        0.131      137.043       15.103        0.012      335.156        5.603      860.967
01/10/2015  00:33:00     -105.328      -65.984        1.318       32.307       25.592       21.361     1043.713      654.927      456.310        0.880        0.108      124.290        6.344        0.003      335.166        5.618      860.960
01/10/2015  00:34:00      -70.716      -48.694        6.441       48.686       26.830       20.043     2370.373      719.873      401.720        0.545        0.175       85.859       13.278        0.024      335.204        5.681      860.954
01/10/2015  00:35:00      -75.012      -39.543        3.992       42.279       23.684       23.758     1787.505      560.911      564.430        0.506        0.146       84.796       18.578        0.048      335.206        5.684      860.943
01/10/2015  00:36:00      -79.441      -85.885       -2.015       45.237       40.116       21.839     2046.346     1609.291      476.931        0.891        0.207      116.992       21.088        0.032      335.180        5.642      860.943
01/10/2015  00:37:00     -104.813      -84.844      -12.288       31.281       40.320       22.230      978.507     1625.687      494.160        1.072        0.155      134.849        5.176        0.001      335.157        5.605      860.941
01/10/2015  00:38:00     -100.867      -56.194       -0.504       45.142       44.469       27.459     2037.825     1977.497      753.997        0.905        0.238      115.464       29.749        0.066      335.145        5.585      860.939
01/10/2015  00:39:00     -108.963      -60.565       -4.520       44.899       40.004       22.738     2015.936     1600.301      517.001        0.985        0.207      124.663       22.232        0.032      335.135        5.571      860.929
01/10/2015  00:40:00     -114.148      -98.217      -10.315       41.403       39.186       26.208     1714.168     1535.521      686.874        1.336        0.197      150.587       21.016        0.019      335.147        5.588      860.913
01/10/2015  00:41:00     -100.669      -89.791        3.079       32.459       34.569       25.327     1053.601     1195.024      641.439        1.055        0.145      134.895       22.439        0.028      335.147        5.588      860.906
01/10/2015  00:42:00      -98.082      -90.572       -0.103       47.304       29.160       25.576     2237.704      850.322      654.118        1.078        0.187      133.505       24.981        0.035      335.163        5.614      860.905
01/10/2015  00:43:00     -105.681      -93.112       -7.925       42.200       51.432       23.045     1780.811     2645.222      531.057        1.243        0.248      140.848       28.625        0.041      335.171        5.627      860.904
01/10/2015  00:44:00      -96.481      -93.239       -6.736       52.927       42.035       31.338     2801.215     1766.963      982.040        1.180        0.278      134.172       31.350        0.055      335.176        5.635      860.907
01/10/2015  00:45:00      -72.671      -70.436        0.815       62.389       42.335       29.405     3892.395     1792.230      864.675        0.839        0.327      101.204       33.380        0.109      335.178        5.639      860.905
01/10/2015  00:46:00      -79.180      -89.263       -9.412       31.252       43.186       17.813      976.676     1865.023      317.291        0.874        0.158      119.320       12.246        0.011      335.230        5.725      860.892
01/10/2015  00:47:00      -72.240      -57.794        3.029       52.210       45.367       28.927     2725.843     2058.183      836.746        0.709        0.281       92.513       33.412        0.130      335.233        5.731      860.884
01/10/2015  00:48:00      -31.539      -43.320        3.568       41.103       37.671       19.945     1689.457     1419.112      397.788        0.319        0.175       53.585       18.848        0.124      335.258        5.771      860.879
01/10/2015  00:49:00      -75.373      -45.580        9.470       51.205       32.996       25.315     2621.923     1088.760      640.869        0.610        0.218       88.083       28.578        0.105      335.251        5.758      860.869
01/10/2015  00:50:00      -93.622      -57.851       -1.841       51.275       32.159       22.407     2629.086     1034.207      502.060        0.814        0.208      110.054       20.419        0.034      335.243        5.746      860.861
01/10/2015  00:51:00      -76.182      -51.041        1.039       48.574       30.585       25.132     2359.429      935.473      631.606        0.617        0.196       91.700       25.608        0.078      335.210        5.693      860.857
01/10/2015  00:52:00      -55.428      -68.561        5.186       41.264       36.573       23.002     1702.754     1337.611      529.090        0.568        0.178       88.164       18.304        0.043      335.218        5.704      860.860
01/10/2015  00:53:00      -43.895      -48.286       -0.336       47.300       39.722       25.445     2237.261     1577.837      647.446        0.436        0.223       65.255       23.271        0.127      335.248        5.753      860.851
01/10/2015  00:54:00      -19.436      -16.648       -4.759       38.735       25.650       16.520     1500.401      657.935      272.908        0.155        0.122       25.591       15.195        0.353      335.261        5.775      860.848
01/10/2015  00:55:00      -81.282      -73.124       -4.337       27.193       43.424       20.147      739.476     1885.675      405.890        0.750        0.152      109.334       16.286        0.022      335.302        5.844      860.835
01/10/2015  00:56:00      -64.881      -26.785        2.622       48.328       20.242       17.442     2335.597      409.741      304.213        0.399        0.152       70.192       18.254        0.068      335.247        5.753      860.828
01/10/2015  00:57:00      -76.050      -34.645        3.471       34.203       21.345       15.478     1169.820      455.617      239.560        0.443        0.093       83.569       15.074        0.033      335.227        5.719      860.839
01/10/2015  00:58:00      -67.848      -18.956        3.427       37.657       27.558       14.601     1418.041      759.458      213.197        0.368        0.120       70.446       15.615        0.049      335.139        5.575      860.839
01/10/2015  00:59:00      -82.041        3.898       -2.658       28.920       27.880       16.970      836.392      777.317      287.988        0.433        0.095       82.133       12.868        0.025      335.048        5.425      860.841
01/10/2015  01:00:00      -52.134      -10.296        0.615       24.289       26.028       16.512      589.936      677.438      272.653        0.218        0.077       53.141       15.440        0.084      335.003        5.349      860.850
01/10/2015  01:01:00      -66.568        7.200       -5.042       28.312       27.536       10.817      801.569      758.223      117.018        0.309        0.084       66.956        5.869        0.008      334.918        5.208      860.851
01/10/2015  01:02:00      -71.485       45.304      -14.209       24.142       27.246       13.836      582.840      742.335      191.439        0.444        0.076       84.632       11.362        0.018      334.903        5.182      860.844
01/10/2015  01:03:00      -59.295       46.570      -15.916       19.739       21.459       11.002      389.612      460.500      121.052        0.345        0.049       75.397       10.013        0.018      334.903        5.183      860.854
01/10/2015  01:04:00      -73.750       48.466      -16.486       12.358       20.218        8.969      152.727      408.758       80.451        0.435        0.032       88.250        6.594        0.006      334.890        5.162      860.858
01/10/2015  01:05:00      -80.848       63.744      -19.151       15.582       17.490       10.929      242.791      305.896      119.452        0.582        0.033      102.955        3.093        0.001      334.953        5.266      860.862
01/10/2015  01:06:00      -75.074       31.881      -12.081       15.443       13.516        9.427      238.476      182.683       88.860        0.365        0.026       81.562        7.536        0.009      334.993        5.332      860.863
01/10/2015  01:07:00      -51.760       45.837       -6.920       19.508       18.961       10.523      380.556      359.504      110.729        0.284        0.043       69.139        6.848        0.010      335.039        5.409      860.865
01/10/2015  01:08:00       -5.186       49.684       -1.539       16.954       19.152       11.380      287.421      366.788      129.511        0.164        0.039       49.953        9.742        0.038      335.111        5.527      860.868
01/10/2015  01:09:00       -2.339       45.173       -6.845        6.850        9.985        5.035       46.918       99.703       25.353        0.113        0.009       45.234        5.041        0.012      335.110        5.526      860.871
01/10/2015  01:10:00      -29.697       31.805       -4.544       16.393       17.720        9.413      268.732      313.983       88.598        0.129        0.034       43.514        7.153        0.027      335.137        5.570      860.872
01/10/2015  01:11:00      -25.811       10.171        1.916       12.641       10.493       11.076      159.795      110.111      122.685        0.058        0.020       27.742        5.624        0.041      335.134        5.566      860.865
01/10/2015  01:12:00      -18.592        8.548        1.794       12.305        6.741        9.567      151.423       45.438       91.537        0.036        0.014       20.463        7.557        0.136      335.133        5.565      860.864
01/10/2015  01:13:00      -28.597       -3.240       -2.924        7.605        6.240        5.697       57.840       38.935       32.450        0.048        0.006       28.780        1.599        0.003      335.002        5.347      860.864
01/10/2015  01:14:00      -15.269        1.642       -0.899       11.279        7.821        6.888      127.215       61.165       47.438        0.024        0.012       15.357        5.396        0.123      335.099        5.510      860.869
01/10/2015  01:15:00       -0.031       16.134       -1.276       10.082       14.891        5.608      101.639      221.750       31.455        0.031        0.018       16.134        6.641        0.169      335.221        5.710      860.869
01/10/2015  01:16:00        5.776       39.233       -4.611       17.512       24.724        9.783      306.669      611.300       95.711        0.130        0.051       39.655       11.739        0.088      335.256        5.767      860.867
01/10/2015  01:17:00       15.330       54.484      -10.708       14.784       12.455        9.072      218.560      155.136       82.306        0.189        0.023       56.599        6.850        0.015      335.167        5.621      860.861
01/10/2015  01:18:00       21.220       60.846      -11.196       12.564       14.425       10.255      157.853      208.087      105.166        0.237        0.024       64.440        6.559        0.010      335.140        5.577      860.852
01/10/2015  01:19:00       22.471       65.987      -14.480        8.586       13.720        8.291       73.724      188.240       68.743        0.270        0.017       69.708        8.438        0.015      335.119        5.543      860.849
01/10/2015  01:20:00       18.621       47.165       -9.345       15.702       28.980       11.317      246.552      839.838      128.085        0.194        0.061       50.707       13.609        0.072      335.135        5.570      860.847
01/10/2015  01:21:00        8.977       22.200       -1.821       11.251       14.407        8.790      126.577      207.562       77.262        0.049        0.021       23.947        5.474        0.052      335.140        5.578      860.844
01/10/2015  01:22:00       13.198       18.114        4.948       13.441       10.356        9.489      180.659      107.239       90.036        0.045        0.019       22.413        5.735        0.065      335.132        5.562      860.839
01/10/2015  01:23:00       18.196       34.927       -6.598       13.208       24.789        9.605      174.451      614.518       92.259        0.124        0.044       39.383       11.247        0.082      335.109        5.524      860.844
01/10/2015  01:24:00       18.295       44.639       -2.893       17.253       19.754       11.886      297.671      390.214      141.288        0.158        0.041       48.242       12.450        0.067      335.110        5.526      860.852
01/10/2015  01:25:00       20.482       39.672       -3.787       13.902       18.480       10.489      193.259      341.515      110.025        0.133        0.032       44.647        8.639        0.037      335.109        5.525      860.856
01/10/2015  01:26:00       40.401       35.078       -0.460       14.976       17.315       14.270      224.279      299.811      203.619        0.180        0.036       53.504       11.385        0.045      335.137        5.574      860.855
01/10/2015  01:27:00       42.104       34.881        3.019       21.848       12.923       12.637      477.334      167.007      159.683        0.190        0.040       54.676        8.170        0.022      335.121        5.547      860.853
01/10/2015  01:28:00       17.726       31.478       -5.539       17.108       23.431       15.231      292.683      549.023      231.992        0.120        0.054       36.126       14.952        0.171      335.111        5.527      860.850
01/10/2015  01:29:00       14.584       39.154        2.843       17.802       26.096       17.844      316.896      681.022      318.411        0.153        0.066       41.782       15.207        0.132      335.116        5.535      860.854
01/10/2015  01:30:00       26.452       35.451       -0.973       21.221       19.531       18.920      450.320      381.455      357.959        0.157        0.059       44.233       15.698        0.126      335.106        5.520      860.851
01/10/2015  01:31:00       16.610       41.182       -5.097       16.398       15.589       13.331      268.896      243.026      177.726        0.134        0.034       44.406       10.016        0.051      335.091        5.493      860.853
01/10/2015  01:32:00       15.907       62.395       -5.499       13.050       14.787       10.721      170.312      218.665      114.936        0.234        0.025       64.390        7.050        0.012      335.083        5.483      860.864
01/10/2015  01:33:00       19.346       59.582       -8.619       10.011       10.602        9.326      100.222      112.411       86.965        0.215        0.015       62.644        5.168        0.007      335.150        5.592      860.878
01/10/2015  01:34:00        6.866       61.225       -7.394       12.236       12.986       11.102      149.720      168.648      123.249        0.215        0.022       61.609        8.596        0.019      335.135        5.567      860.893
01/10/2015  01:35:00       13.677       68.869       -9.572       14.388       13.041       10.862      207.013      170.059      117.993        0.276        0.025       70.214        9.321        0.018      335.193        5.662      860.902
01/10/2015  01:36:00        1.807       84.044      -12.422        8.801       12.984        6.902       77.463      168.574       47.642        0.376        0.015       84.063        6.349        0.006      335.182        5.644      860.911
01/10/2015  01:37:00       -1.630       90.293      -15.245        8.802       11.806        5.600       77.475      139.375       31.364        0.432        0.012       90.307        4.771        0.003      335.204        5.682      860.907
01/10/2015  01:38:00        2.169       98.032      -16.341        9.002       11.951        7.087       81.031      142.836       50.228        0.508        0.014       98.056        6.420        0.004      335.218        5.706      860.905
01/10/2015  01:39:00       -3.479       87.797      -12.572        8.142       12.838        5.290       66.292      164.804       27.979        0.407        0.013       87.866        3.664        0.002      335.236        5.736      860.904
01/10/2015  01:40:00       -7.785       67.148      -11.630       11.436       10.599        6.934      130.772      112.336       48.080        0.250        0.015       67.597        4.767        0.005      335.237        5.737      860.907
01/10/2015  01:41:00       -3.876       55.572       -9.005        4.492        8.123        4.534       20.177       65.979       20.553        0.165        0.005       55.707        4.270        0.006      335.313        5.858      860.903
01/10/2015  01:42:00       -2.739       54.022       -6.508        4.555        6.748        4.690       20.752       45.532       21.999        0.153        0.004       54.091        3.468        0.004      335.360        5.940      860.889
01/10/2015  01:43:00       -2.057       75.334       -8.309        6.540       14.161        4.302       42.777      200.546       18.504        0.301        0.013       75.362        5.227        0.005      335.397        6.002      860.881
01/10/2015  01:44:00      -10.088       79.371       -5.655        8.627        9.712        8.692       74.420       94.331       75.545        0.334        0.012       80.009        5.873        0.005      335.453        6.097      860.879
01/10/2015  01:45:00      -30.317       41.642       -1.728       17.891       21.751       13.073      320.075      473.086      170.900        0.181        0.048       51.509        7.938        0.024      335.451        6.092      860.876
01/10/2015  01:46:00      -58.329       11.695       -5.314       12.985       13.872        8.108      168.612      192.441       65.745        0.200        0.021       59.490        5.717        0.009      335.373        5.962      860.886
01/10/2015  01:47:00      -52.998      -20.528       -4.330       12.160       13.383        8.851      147.875      179.108       78.332        0.183        0.020       56.835        7.876        0.019      335.021        5.379      860.906
01/10/2015  01:48:00      -48.536      -11.953       -6.339       10.511        8.331        7.123      110.487       69.401       50.741        0.138        0.012       49.986        6.512        0.017      334.982        5.314      860.918
01/10/2015  01:49:00       -2.864       17.332       -1.654       25.877       28.143       11.216      669.643      792.015      125.809        0.095        0.079       17.567       12.671        0.520      335.337        5.902      860.919
01/10/2015  01:50:00       28.644       33.780       -1.337       13.939       14.872       10.312      194.286      221.178      106.331        0.124        0.026       44.290        9.274        0.044      335.506        6.186      860.922
01/10/2015  01:51:00        5.918       16.076       -1.904       13.277        8.723        8.245      176.275       76.089       67.983        0.031        0.016       17.130        5.301        0.096      335.480        6.142      860.923
01/10/2015  01:52:00      -11.705       14.752        0.213       10.936        9.734        6.281      119.596       94.754       39.450        0.030        0.013       18.831        3.732        0.039      335.370        5.959      860.932
01/10/2015  01:53:00      -26.125       -1.740       -3.798        6.606        6.154        5.182       43.634       37.870       26.850        0.040        0.005       26.183        3.692        0.020      335.193        5.665      860.940
01/10/2015  01:54:00      -13.979       -5.944       -8.203        8.215       14.313        3.820       67.481      204.874       14.596        0.029        0.014       15.191        4.961        0.107      335.171        5.625      860.946
01/10/2015  01:55:00       13.498       38.599       -7.093       15.738       10.798        5.778      247.690      116.587       33.385        0.106        0.020       40.891        6.248        0.023      335.489        6.155      860.943
01/10/2015  01:56:00       21.014       11.383        3.132        9.860       17.189        9.537       97.215      295.450       90.953        0.053        0.024       23.899       10.627        0.198      335.424        6.047      860.934
01/10/2015  01:57:00       12.535        3.835        0.865        6.847        7.133        6.938       46.876       50.884       48.129        0.016        0.007       13.108        1.355        0.011      335.422        6.044      860.925
01/10/2015  01:58:00       -7.640        9.770       -0.411        9.711        8.591        5.533       94.296       73.809       30.618        0.018        0.010       12.402        3.512        0.080      335.404        6.014      860.931
01/10/2015  01:59:00      -24.007       -7.521       -3.001       13.448        5.680        6.031      180.841       32.267       36.376        0.045        0.012       25.158        6.638        0.070      335.163        5.614      860.943
01/10/2015  02:00:00      -38.742      -10.001       -2.558        5.140        6.598        4.812       26.423       43.533       23.153        0.085        0.005       40.012        2.478        0.004      335.100        5.510      860.951
01/10/2015  02:01:00       -4.677       35.043       -4.971       14.774       28.103        8.724      218.285      789.802       76.106        0.118        0.054       35.354       13.975        0.156      335.342        5.913      860.963
01/10/2015  02:02:00       -9.043       48.932       -7.640        9.722       10.806        6.434       94.511      116.765       41.398        0.139        0.013       49.760        4.614        0.009      335.484        6.148      860.968
01/10/2015  02:03:00      -46.050      -17.015       -6.752       11.132       29.985        9.442      123.926      899.128       89.160        0.178        0.056       49.093        9.089        0.034      335.282        5.813      860.977
01/10/2015  02:04:00      -53.314      -19.468       -7.590       13.898       11.290        9.101      193.144      127.454       82.831        0.184        0.020       56.757        4.381        0.006      334.970        5.296      860.985
01/10/2015  02:05:00      -25.296       -7.237       -3.661       18.509        5.934        5.117      342.585       35.208       26.186        0.055        0.020       26.310        4.782        0.033      335.102        5.512      860.972
01/10/2015  02:06:00       58.904       28.893        9.601       23.348       15.314        6.373      545.142      234.506       40.609        0.261        0.041       65.608        7.295        0.012      335.347        5.920      860.937
01/10/2015  02:07:00       45.851       26.667        5.076       18.737       13.160        9.295      351.065      173.191       86.400        0.172        0.031       53.042        5.764        0.012      335.238        5.739      860.921
01/10/2015  02:08:00       -3.120      -14.098        0.873        8.086        8.137        7.691       65.376       66.208       59.155        0.020        0.010       14.439        3.735        0.067      335.292        5.828      860.926
01/10/2015  02:09:00      -31.735      -18.599       -6.713       14.456       11.510        7.444      208.976      132.470       55.413        0.090        0.020       36.783        8.579        0.054      335.261        5.777      860.926
01/10/2015  02:10:00      -26.906      -14.905        0.253       14.018       10.803        6.491      196.507      116.702       42.138        0.065        0.018       30.759        5.385        0.031      335.040        5.411      860.942
01/10/2015  02:11:00        2.756        9.420        5.260       12.765        7.050        7.069      162.943       49.704       49.970        0.019        0.013        9.815        4.487        0.209      335.303        5.846      860.951
01/10/2015  02:12:00       17.584       12.982        0.794       19.246        9.011        8.887      370.418       81.198       78.985        0.050        0.027       21.857        3.476        0.025      335.213        5.697      860.975
01/10/2015  02:13:00      -23.694      -19.203       -5.110       15.421        8.695        5.361      237.822       75.595       28.735        0.065        0.017       30.499        3.309        0.012      335.268        5.788      860.984
01/10/2015  02:14:00      -53.817      -37.286       -7.676       11.061       17.071       12.088      122.336      291.408      146.112        0.245        0.028       65.472        8.364        0.016      335.023        5.382      860.985
01/10/2015  02:15:00      -18.956        4.232        1.386       11.503       12.914        7.427      132.326      166.767       55.162        0.037        0.018       19.423        6.884        0.126      334.990        5.327      860.964
01/10/2015  02:16:00       23.385       27.935       12.938       20.734       11.877        9.629      429.881      141.053       92.717        0.108        0.033       36.431        7.339        0.041      335.074        5.468      860.927
01/10/2015  02:17:00       51.280       24.086        7.684       23.334       11.120       14.468      544.498      123.648      209.335        0.207        0.044       56.655       13.477        0.057      335.153        5.598      860.915
01/10/2015  02:18:00        0.022      -17.933        5.330       15.638       20.421       13.791      244.538      417.028      190.184        0.060        0.043       17.933       10.888        0.369      335.221        5.708      860.926
01/10/2015  02:19:00        6.881      -33.767       -6.842       13.466       25.461       14.378      181.323      648.259      206.720        0.114        0.052       34.461       14.999        0.189      335.209        5.692      860.947
01/10/2015  02:20:00       -5.197       -4.860        5.944       22.696       13.448       11.717      515.096      180.839      137.279        0.046        0.042        7.116        9.504        1.784      335.196        5.669      860.953
01/10/2015  02:21:00      -36.113       -7.130        0.411       21.154       32.931       14.570      447.492     1084.431      212.293        0.155        0.087       36.810       13.268        0.130      335.157        5.605      860.963
01/10/2015  02:22:00      -72.977      -41.700        4.513       49.937       32.065       23.762     2493.744     1028.162      564.613        0.558        0.204       84.051       22.431        0.071      335.154        5.599      860.976
01/10/2015  02:23:00      -99.088      -77.653        2.746       49.841       36.564       21.638     2484.139     1336.901      468.185        1.007        0.214      125.891       24.482        0.038      335.146        5.586      860.969
01/10/2015  02:24:00      -43.142       -5.185       15.405       47.267       48.009       20.271     2234.191     2304.874      410.895        0.354        0.247       43.452       19.082        0.193      335.147        5.588      860.940
01/10/2015  02:25:00       -7.283       50.776       81.530       17.441       34.586       21.181      304.175     1196.215      448.628        0.561        0.097       51.295       19.168        0.140      335.185        5.650      860.897
01/10/2015  02:26:00        8.752      -26.892       29.983       28.262       55.028       36.434      798.762     3028.073     1327.459        0.343        0.258       28.281       36.989        1.711      335.191        5.660      860.905
01/10/2015  02:27:00       -2.287      -39.100       -4.610       27.586       27.281       20.306      760.977      744.235      412.315        0.174        0.096       39.167       16.225        0.172      335.205        5.681      860.944
01/10/2015  02:28:00      -29.917      -33.809        7.555       47.102       21.724       18.359     2218.630      471.925      337.043        0.256        0.151       45.145       23.178        0.264      335.176        5.636      860.965
01/10/2015  02:29:00       11.438        2.106        2.627       12.787       12.553       11.178      163.513      157.569      124.952        0.029        0.022       11.631        2.650        0.052      335.176        5.635      860.971
01/10/2015  02:30:00       39.547       21.404        6.959       17.358        7.994        9.918      301.301       63.901       98.358        0.127        0.023       44.968        5.282        0.014      335.175        5.635      860.963
01/10/2015  02:31:00        6.185        4.222        6.275        9.313       11.840        8.553       86.734      140.191       73.158        0.020        0.015        7.489        5.388        0.518      335.180        5.643      860.965
01/10/2015  02:32:00      -14.672       10.622       22.648        9.249       12.937       11.952       85.536      167.363      142.843        0.062        0.020       18.113       10.031        0.307      335.180        5.642      860.965
01/10/2015  02:33:00      -10.120       19.708       21.612       11.749       12.121       14.564      138.046      146.922      212.113        0.073        0.025       22.154        8.737        0.156      335.161        5.610      860.965
01/10/2015  02:34:00       41.313       39.228       27.491       21.472        9.455       12.488      461.068       89.400      155.940        0.235        0.035       56.970       11.053        0.038      335.129        5.559      860.960
01/10/2015  02:35:00       72.276       45.908       -2.886       36.120       26.036       17.303     1304.657      677.853      299.389        0.481        0.114       85.623       12.075        0.020      335.099        5.507      860.955
01/10/2015  02:36:00       71.380       62.882       36.412       34.170       21.468       29.097     1167.613      460.865      846.621        0.642        0.124       95.128       23.132        0.059      335.093        5.499      860.957
01/10/2015  02:37:00       21.828       45.151       50.995       21.611       24.278       18.208      467.022      589.425      331.549        0.325        0.069       50.151       13.727        0.075      335.101        5.512      860.971
01/10/2015  02:38:00       29.913       25.070       41.125       25.883       19.789       18.810      669.920      391.592      353.814        0.231        0.071       39.029       13.080        0.112      335.104        5.518      860.985
01/10/2015  02:39:00       55.204       25.494       30.140       19.377       17.966       21.909      375.468      322.760      480.009        0.289        0.059       60.807       11.234        0.034      335.002        5.349      860.979
01/10/2015  02:40:00       31.320       -1.644       16.983       32.445       32.041       20.293     1052.704     1026.638      411.805        0.188        0.125       31.363       18.636        0.353      335.045        5.418      860.971
01/10/2015  02:41:00       87.348      -72.831      -14.214       29.227       37.695       24.155      854.202     1420.876      583.474        0.800        0.143      113.728       23.043        0.041      335.054        5.435      860.963
01/10/2015  02:42:00       23.424        6.883       35.203       28.937       34.881       29.513      837.357     1216.651      870.997        0.238        0.146       24.414       20.754        0.723      335.079        5.476      860.948
01/10/2015  02:43:00       30.819      -24.059       14.265       35.558       39.361       29.039     1264.385     1549.272      843.286        0.269        0.183       39.098       28.733        0.540      335.105        5.518      860.945
01/10/2015  02:44:00       72.232      -75.361      -22.363       30.313       37.577       20.112      918.874     1412.027      404.488        0.707        0.137      104.387       20.324        0.038      335.123        5.550      860.941
01/10/2015  02:45:00       68.876      -63.533      -23.851       23.547       22.322       13.570      554.441      498.285      184.143        0.529        0.062       93.704       10.648        0.013      335.133        5.566      860.953
01/10/2015  02:46:00       12.553      -57.913      -19.984       22.604       22.167       16.378      510.961      491.359      268.235        0.259        0.064       59.258        9.868        0.028      335.156        5.603      860.957
01/10/2015  02:47:00      -18.164      -17.588       -0.713       14.421       17.931       19.632      207.977      321.532      385.397        0.078        0.046       25.284       17.408        0.474      335.147        5.589      860.959
01/10/2015  02:48:00       -8.233        2.683       22.292       17.658       13.395       14.323      311.800      179.433      205.149        0.063        0.035        8.659        9.486        1.200      335.208        5.690      860.960
01/10/2015  02:49:00      -16.607      -12.376       15.120       19.477       27.114       23.057      379.359      735.161      531.640        0.115        0.082       20.711       19.904        0.924      335.153        5.599      860.969
01/10/2015  02:50:00      -11.737      -30.536        0.923       21.597       26.239       18.150      466.442      688.483      329.430        0.128        0.074       32.714       14.523        0.197      335.173        5.630      860.992
01/10/2015  02:51:00       -8.626      -18.687        7.879       16.368       33.784       20.379      267.911     1141.365      415.306        0.115        0.091       20.582       19.629        0.910      335.141        5.579      860.996
01/10/2015  02:52:00      -12.444       22.316       38.388       18.140       23.800       27.791      329.058      566.450      772.340        0.190        0.083       25.551       21.609        0.715      335.152        5.597      860.981
01/10/2015  02:53:00      -12.290       -9.675       40.591       13.971       24.011       17.966      195.196      576.533      322.767        0.149        0.055       15.641       15.715        1.009      335.172        5.628      860.970
01/10/2015  02:54:00      -37.495      -21.752        9.829       26.182       15.520       11.600      685.489      240.864      134.562        0.152        0.053       43.347       12.330        0.081      335.089        5.491      860.974
01/10/2015  02:55:00      -35.080      -27.556        6.858       29.634       22.710       13.170      878.168      515.762      173.444        0.180        0.078       44.609       16.769        0.141      335.097        5.506      860.977
01/10/2015  02:56:00      -20.323      -12.818        7.634       34.577       18.756       17.653     1195.542      351.803      311.639        0.125        0.093       24.028       16.584        0.476      335.084        5.484      860.984
01/10/2015  02:57:00       -7.148       -3.055       15.214       26.118       24.788       21.458      682.127      614.456      460.459        0.102        0.088        7.773       20.949        7.264      335.104        5.518      860.983
01/10/2015  02:58:00       13.583        5.607       11.070        8.938       11.124       13.826       79.889      123.741      191.149        0.037        0.020       14.694        7.903        0.289      335.086        5.487      860.984
01/10/2015  02:59:00        4.189       15.048        2.819       18.260        9.149       12.874      333.444       83.710      165.731        0.042        0.029       15.621       11.493        0.541      335.072        5.466      860.978
01/10/2015  03:00:00       -4.421        4.479       17.658        4.735        7.900        4.377       22.423       62.410       19.154        0.023        0.005        6.293        3.908        0.386      335.176        5.635      860.967
01/10/2015  03:01:00       -6.253        4.836       16.388        4.511       16.969       11.884       20.348      287.951      141.234        0.039        0.022        7.904       13.026        2.716      335.120        5.543      860.959
01/10/2015  03:02:00      -26.760      -13.897       -0.165       12.731       10.214        6.258      162.083      104.336       39.157        0.061        0.015       30.153        6.069        0.041      335.067        5.456      860.965
01/10/2015  03:03:00      -29.427       -9.417       -0.211       15.821        8.960        5.759      250.302       80.278       33.161        0.066        0.018       30.897        6.727        0.047      334.977        5.307      860.959
01/10/2015  03:04:00      -50.723      -11.243       -2.264       21.736       12.543       10.377      472.448      157.318      107.676        0.172        0.037       51.954        7.242        0.019      334.920        5.210      860.948
01/10/2015  03:05:00      -49.897      -14.827       -1.235       13.306       17.237        7.461      177.052      297.121       55.665        0.162        0.026       52.054        4.311        0.007      334.915        5.203      860.940
01/10/2015  03:06:00      -17.489        5.027        5.829       15.570       10.713       10.263      242.434      114.772      105.326        0.041        0.023       18.197       11.448        0.396      334.982        5.316      860.926
01/10/2015  03:07:00       -0.346        7.480        7.680       15.502        5.785       10.223      240.311       33.462      104.502        0.025        0.019        7.488       10.888        2.115      334.945        5.252      860.913
01/10/2015  03:08:00      -19.629       11.197        1.995       13.681        8.044        5.644      187.178       64.701       31.855        0.040        0.014       22.598        6.554        0.084      334.949        5.258      860.896
01/10/2015  03:09:00      -39.768       -4.236       -6.215       14.056        9.723        5.005      197.569       94.539       25.050        0.098        0.016       39.993        4.844        0.015      334.952        5.265      860.899
01/10/2015  03:10:00      -57.896      -14.107       -8.177       10.886       12.619        6.740      118.503      159.243       45.434        0.197        0.016       59.590        2.537        0.002      334.920        5.213      860.903
01/10/2015  03:11:00      -52.511      -15.777       -3.655       21.198       12.272        9.111      449.354      150.604       83.019        0.185        0.034       54.830       10.182        0.034      334.888        5.158      860.906
01/10/2015  03:12:00      -41.501       -5.357       -2.272       26.147       14.049       14.077      683.682      197.372      198.169        0.142        0.054       41.846       14.774        0.125      334.843        5.082      860.898
01/10/2015  03:13:00      -51.835       13.245       -8.084       18.744       27.885       12.420      351.332      777.575      154.265        0.211        0.064       53.500       10.546        0.039      334.837        5.072      860.891
01/10/2015  03:14:00      -46.333       43.405       -7.702       16.754       22.253       15.614      280.702      495.198      243.798        0.255        0.051       63.488       10.629        0.028      334.826        5.056      860.892
01/10/2015  03:15:00      -79.505       43.547      -10.421       20.961       24.150       17.292      439.367      583.222      299.009        0.482        0.066       90.650       14.898        0.027      334.782        4.983      860.881
01/10/2015  03:16:00      -74.802       13.400       -5.564       34.111       22.105       15.087     1163.559      488.642      227.630        0.384        0.094       75.993       15.096        0.039      334.792        5.000      860.885
01/10/2015  03:17:00     -146.096       -2.919      -17.189       36.439       27.138       18.880     1327.789      736.494      356.457        1.203        0.121      146.125       19.717        0.018      334.753        4.934      860.905
01/10/2015  03:18:00     -140.023       -6.934      -20.493       35.465       30.631       20.012     1257.772      938.234      400.498        1.133        0.130      140.194       17.177        0.015      334.679        4.810      860.917
01/10/2015  03:19:00      -92.590      -22.991       -5.720       30.215       26.383       16.905      912.967      696.079      285.767        0.551        0.095       95.402       16.147        0.029      334.651        4.765      860.912
01/10/2015  03:20:00      -65.232       -0.342      -10.401       25.807       23.242       13.200      666.022      540.189      174.234        0.287        0.069       65.232       11.156        0.029      334.618        4.708      860.883
01/10/2015  03:21:00      -82.962       28.820      -11.283       30.049       21.450       15.683      902.949      460.118      245.955        0.472        0.080       87.825       15.251        0.030      334.592        4.667      860.851
01/10/2015  03:22:00      -76.002       21.787       -7.978       29.192       21.707       16.974      852.184      471.211      288.128        0.396        0.081       79.063       15.268        0.037      334.737        4.908      860.824
01/10/2015  03:23:00      -54.847        6.411       -7.716       37.075       23.527       14.524     1374.537      553.526      210.940        0.262        0.107       55.220       14.911        0.073      334.763        4.951      860.806
01/10/2015  03:24:00      -74.157      -11.041       -1.295       25.130       23.574       14.407      631.540      555.742      207.569        0.351        0.070       74.975       15.585        0.043      334.755        4.937      860.787
01/10/2015  03:25:00      -65.596        4.660       -1.884       29.230       20.806       15.594      854.409      432.878      243.161        0.293        0.077       65.761       18.064        0.075      334.777        4.972      860.765
01/10/2015  03:26:00      -68.208       16.311       -7.469       26.641       22.394       14.463      709.745      501.499      209.183        0.320        0.071       70.131       12.184        0.030      334.811        5.030      860.754
01/10/2015  03:27:00      -87.847        6.734       -5.456       26.805       19.763       11.047      718.513      390.570      122.042        0.451        0.062       88.105        9.062        0.011      334.753        4.932      860.742
01/10/2015  03:28:00      -54.900      -18.712       -5.189       27.906       24.035       14.404      778.765      577.660      207.466        0.248        0.078       58.001       13.972        0.058      334.724        4.886      860.739
01/10/2015  03:29:00     -116.121       -4.243      -15.291       27.449       25.290       15.849      753.442      639.563      251.181        0.769        0.082      116.198       13.039        0.013      334.747        4.923      860.742
01/10/2015  03:30:00     -138.410       19.276      -14.932       29.161       18.258       16.057      850.357      333.351      257.826        1.060        0.072      139.746       15.357        0.012      334.661        4.780      860.746
01/10/2015  03:31:00     -121.691       25.922      -13.778       38.844       24.146       13.902     1508.865      583.043      193.267        0.898        0.114      124.421       14.953        0.014      334.567        4.624      860.747
01/10/2015  03:32:00     -117.138       37.731      -10.993       29.187       17.746       16.247      851.866      314.934      263.969        0.835        0.072      123.065       14.507        0.014      334.598        4.675      860.741
01/10/2015  03:33:00     -106.083       29.292       -9.125       35.907       25.216       18.511     1289.335      635.825      342.640        0.723        0.113      110.053       14.348        0.017      334.637        4.742      860.730
01/10/2015  03:34:00      -89.795       15.655       -6.267       29.678       26.640       17.628      880.774      709.684      310.734        0.512        0.095       91.149       14.527        0.025      334.659        4.778      860.720
01/10/2015  03:35:00      -66.700       14.033       -0.835       33.061       36.686       26.446     1092.998     1345.866      699.408        0.389        0.157       68.160       22.549        0.109      334.681        4.816      860.720
01/10/2015  03:36:00      -95.643      -13.438      -12.330       30.958       21.089       18.759      958.400      444.749      351.917        0.562        0.088       96.582       19.601        0.041      334.681        4.816      860.724
01/10/2015  03:37:00      -97.552      -26.665      -11.382       27.710       36.804       19.556      767.846     1354.565      382.442        0.643        0.125      101.131       13.466        0.018      334.671        4.798      860.735
01/10/2015  03:38:00      -89.106      -13.842      -10.128       21.817       24.005       19.175      475.972      576.225      367.684        0.483        0.071       90.174       14.224        0.025      334.661        4.780      860.743
01/10/2015  03:39:00      -92.340       -1.658      -11.501       33.772       28.599       18.839     1140.544      817.916      354.921        0.549        0.116       92.355       17.110        0.034      334.638        4.741      860.736
01/10/2015  03:40:00      -77.575        2.140      -21.001       29.032       24.612       18.574      842.844      605.754      344.988        0.413        0.090       77.605       19.654        0.064      334.674        4.804      860.709
01/10/2015  03:41:00      -66.778      -26.149       -2.137       41.929       21.682       21.889     1758.007      470.130      479.122        0.393        0.135       71.715       26.289        0.134      334.686        4.824      860.682
01/10/2015  03:42:00      -49.776      -27.546       -1.458       34.418       24.520       12.152     1184.588      601.209      147.663        0.259        0.097       56.889       14.972        0.069      334.709        4.859      860.652
01/10/2015  03:43:00      -36.001      -22.529       -3.357       14.583       15.554       11.079      212.664      241.920      122.748        0.120        0.029       42.469        5.796        0.019      334.733        4.902      860.634
01/10/2015  03:44:00      -15.697      -18.906       -4.135       11.940        9.912        7.380      142.563       98.239       54.463        0.046        0.015       24.573        3.732        0.023      334.770        4.961      860.619
01/10/2015  03:45:00      -49.108      -24.005        3.006       29.763       17.331       12.972      885.850      300.380      168.280        0.218        0.068       54.661        7.663        0.020      334.744        4.920      860.622
01/10/2015  03:46:00      -88.426      -36.401       -8.663       27.692       11.017        8.598      766.847      121.364       73.918        0.509        0.048       95.625        9.042        0.009      334.698        4.842      860.640
01/10/2015  03:47:00      -90.800      -29.032      -11.679       23.312       17.096       11.775      543.463      292.277      138.641        0.510        0.049       95.328        7.621        0.006      334.740        4.912      860.660
01/10/2015  03:48:00      -98.936      -22.917       -4.158       14.169       16.640       10.095      200.759      276.888      101.900        0.546        0.029      101.555        5.752        0.003      334.716        4.871      860.670
01/10/2015  03:49:00      -98.675      -48.021       -4.112       18.060       15.089       12.067      326.149      227.672      145.610        0.638        0.035      109.739        9.524        0.008      334.710        4.860      860.668
01/10/2015  03:50:00      -71.551      -55.412        0.473       26.267       21.058       16.083      689.935      443.454      258.673        0.479        0.070       90.498       14.534        0.026      334.771        4.963      860.651
01/10/2015  03:51:00      -34.955      -33.719        4.543       18.690       12.474       12.733      349.323      155.595      162.129        0.152        0.033       48.568       10.200        0.044      334.824        5.052      860.624
01/10/2015  03:52:00       12.200      -36.061        0.058       13.955       13.630       13.134      194.729      185.782      172.512        0.100        0.028       38.069        7.173        0.036      334.856        5.105      860.589
01/10/2015  03:53:00        4.341      -15.950      -13.966       11.223       14.355        6.319      125.962      206.056       39.927        0.042        0.019       16.530        5.515        0.111      334.933        5.231      860.569
01/10/2015  03:54:00      -32.639      -14.022       -6.166       22.330       10.104        5.051      498.625      102.097       25.516        0.096        0.031       35.523        3.682        0.011      334.981        5.311      860.590
01/10/2015  03:55:00      -79.501      -27.878      -12.818        7.881       11.768        7.347       62.113      138.492       53.980        0.376        0.013       84.247        5.037        0.004      334.868        5.125      860.634
01/10/2015  03:56:00      -73.833      -35.930       -7.175       11.852       15.193       11.267      140.462      230.812      126.941        0.365        0.025       82.112        3.206        0.002      334.864        5.119      860.663
01/10/2015  03:57:00      -69.383      -42.295       -3.782        9.261       11.899        8.773       85.768      141.581       76.965        0.346        0.015       81.258        2.939        0.001      334.844        5.086      860.667
01/10/2015  03:58:00      -19.448      -11.962        4.864       16.015       15.229        7.797      256.480      231.916       60.791        0.055        0.027       22.832        5.876        0.066      334.863        5.115      860.657
01/10/2015  03:59:00       -0.356       -2.795        5.484        3.824        7.008        4.793       14.620       49.115       22.972        0.006        0.004        2.818        3.293        1.366      334.979        5.310      860.640
01/10/2015  04:00:00      -17.491       -7.555       -2.360       13.001        6.609        4.863      169.020       43.685       23.652        0.030        0.012       19.053        3.978        0.044      334.948        5.258      860.628
01/10/2015  04:01:00      -49.973      -29.450       -2.051       10.617       10.265        6.417      112.716      105.362       41.180        0.181        0.013       58.005        5.413        0.009      334.928        5.224      860.627
01/10/2015  04:02:00      -55.088      -34.288       -4.396        8.561        7.758        7.061       73.292       60.182       49.854        0.221        0.009       64.887        5.622        0.008      334.908        5.190      860.637
01/10/2015  04:03:00      -56.725      -26.377       -3.008       13.509       11.915        8.678      182.489      141.964       75.313        0.216        0.020       62.558        4.886        0.006      334.914        5.201      860.636
01/10/2015  04:04:00      -68.479      -23.567       -7.374        8.330        7.367        4.343       69.384       54.273       18.863        0.272        0.007       72.421        1.945        0.001      334.951        5.262      860.634
01/10/2015  04:05:00      -27.825      -33.570       -2.263       19.639       15.337       10.450      385.709      235.215      109.196        0.132        0.037       43.602        8.887        0.042      334.963        5.282      860.619
01/10/2015  04:06:00      -23.406      -47.980       -4.675        9.964        9.386        7.920       99.291       88.095       62.720        0.156        0.013       53.385        6.351        0.014      335.020        5.376      860.600
01/10/2015  04:07:00      -35.430      -33.177       -6.977        7.190       13.558        7.819       51.699      183.810       61.143        0.135        0.015       48.539        2.954        0.004      335.096        5.503      860.580
01/10/2015  04:08:00      -47.157      -10.573       -4.955       11.519        9.077        8.483      132.682       82.396       71.956        0.132        0.014       48.328        5.415        0.013      334.990        5.328      860.578
01/10/2015  04:09:00      -61.341      -10.165       -8.063       12.723       10.350       10.209      161.878      107.124      104.220        0.215        0.019       62.178        6.227        0.010      334.946        5.253      860.578
01/10/2015  04:10:00      -46.791      -13.605       -0.121       21.661       13.271       10.827      469.185      176.115      117.228        0.157        0.038       48.729       12.673        0.068      334.940        5.245      860.583
01/10/2015  04:11:00      -51.976       -8.212       -5.854       21.959       14.933       15.763      482.184      222.994      248.480        0.188        0.048       52.620       14.940        0.081      334.940        5.244      860.573
01/10/2015  04:12:00      -62.449      -18.094      -10.133        7.820       11.421        6.765       61.145      130.436       45.770        0.228        0.012       65.017        2.929        0.002      334.973        5.300      860.570
01/10/2015  04:13:00      -78.555      -25.225       -5.104       20.591       18.569       15.388      423.991      344.791      236.783        0.392        0.050       82.506       16.048        0.038      334.983        5.315      860.573
01/10/2015  04:14:00     -114.875      -26.034      -10.688       29.050       21.875       13.877      843.899      478.529      192.571        0.775        0.076      117.788       10.548        0.008      334.902        5.180      860.573
01/10/2015  04:15:00     -174.892      -47.383       -2.480       44.831       27.270       19.260     2009.789      743.662      370.942        1.798        0.156      181.197       16.611        0.008      334.829        5.060      860.572
01/10/2015  04:16:00     -187.621      -61.805       -4.520       42.802       26.396       21.718     1832.034      696.759      471.654        2.102        0.150      197.539        6.160        0.001      334.828        5.056      860.574
01/10/2015  04:17:00     -125.772      -28.790       -4.195       37.779       23.803       17.404     1427.272      566.581      302.902        0.948        0.115      129.025       13.331        0.011      334.794        5.004      860.583
01/10/2015  04:18:00     -123.269      -28.149       -9.114       33.659       25.646       17.249     1132.951      657.694      297.511        0.908        0.104      126.442        9.916        0.006      334.878        5.140      860.585
01/10/2015  04:19:00     -162.012      -26.427      -12.559       47.655       41.939       22.035     2271.027     1758.856      485.530        1.581        0.226      164.153       21.759        0.018      334.895        5.170      860.590
01/10/2015  04:20:00     -113.510      -43.996       -6.014       31.513       38.602       23.639      993.088     1490.125      558.784        0.895        0.152      121.738       18.857        0.024      334.871        5.129      860.589
01/10/2015  04:21:00      -92.705        2.241        3.926       43.052       32.779       20.211     1853.449     1074.438      408.471        0.597        0.167       92.732       20.177        0.047      334.791        4.998      860.595
01/10/2015  04:22:00     -140.587       28.940      -12.633       30.156       30.593       22.575      909.357      935.950      509.647        1.156        0.118      143.535       19.047        0.018      334.757        4.940      860.599
01/10/2015  04:23:00      -90.494       -5.677       -8.551       29.489       20.985       13.949      869.606      440.373      194.563        0.490        0.075       90.672       14.588        0.026      334.739        4.910      860.597
01/10/2015  04:24:00     -114.675      -14.610      -10.036       36.153       26.408       19.949     1307.038      697.384      397.970        0.793        0.120      115.602       16.742        0.021      334.764        4.951      860.600
01/10/2015  04:25:00      -77.289      -11.205       -3.021       28.675       21.786       18.611      822.263      474.609      346.376        0.388        0.082       78.097       15.010        0.037      334.777        4.974      860.609
01/10/2015  04:26:00     -108.943      -33.266      -11.414       23.681       17.412       14.737      560.773      303.188      217.169        0.709        0.054      113.909       13.895        0.015      334.736        4.905      860.613
01/10/2015  04:27:00      -82.334      -17.324       -0.620       18.807       20.588       10.412      353.697      423.849      108.419        0.398        0.044       84.137        8.526        0.010      334.861        5.112      860.609
01/10/2015  04:28:00      -94.677      -26.677       -6.657       27.414       22.642       15.750      751.536      512.668      248.059        0.562        0.076       98.364       13.044        0.018      334.919        5.208      860.612
01/10/2015  04:29:00     -113.290       -6.930      -14.951       21.545       16.936       15.955      464.205      286.822      254.577        0.706        0.050      113.502       12.857        0.013      334.885        5.151      860.621
01/10/2015  04:30:00     -104.660       -3.695       -7.175       34.317       21.160       17.378     1177.671      447.748      301.982        0.647        0.096      104.725       16.950        0.026      334.856        5.105      860.626
01/10/2015  04:31:00     -117.942      -10.846       -5.406       22.264       18.409       16.052      495.707      338.890      257.680        0.757        0.055      118.440       11.507        0.009      334.773        4.967      860.632
01/10/2015  04:32:00     -104.200      -34.368       -2.459       21.156       20.255       15.296      447.571      410.252      233.979        0.657        0.055      109.722       15.278        0.019      334.815        5.036      860.617
01/10/2015  04:33:00     -103.240       -1.620       -9.129       15.860       16.119       10.044      251.524      259.810      100.884        0.568        0.031      103.253        8.773        0.007      334.793        5.000      860.590
01/10/2015  04:34:00     -109.236      -38.891       -1.053       27.665       25.036       14.665      765.345      626.821      215.049        0.753        0.080      115.953       13.047        0.013      334.860        5.111      860.580
01/10/2015  04:35:00     -124.776      -37.362        0.263       32.606       29.114       18.646     1063.173      847.630      347.690        0.961        0.113      130.250       17.562        0.018      334.970        5.296      860.573
01/10/2015  04:36:00     -108.575      -46.331       -4.338       34.776       34.809       20.281     1209.376     1211.636      411.327        0.839        0.142      118.047       16.902        0.021      334.942        5.248      860.575
01/10/2015  04:37:00      -75.942      -19.866        2.974       35.103       31.731       21.046     1232.214     1006.833      442.915        0.443        0.134       78.498       19.040        0.059      334.855        5.104      860.575
01/10/2015  04:38:00     -110.391      -34.079       -4.063       27.649       29.930       17.102      764.466      895.808      292.479        0.766        0.098      115.532       14.670        0.016      334.836        5.071      860.571
01/10/2015  04:39:00     -103.367      -30.171       -4.573       22.448       20.413       12.986      503.914      416.688      168.648        0.635        0.054      107.681        8.462        0.006      334.849        5.093      860.559
01/10/2015  04:40:00     -101.929      -10.269       -9.820       27.946       18.446       11.477      780.986      340.253      131.713        0.592        0.063      102.445        9.366        0.008      334.866        5.123      860.544
01/10/2015  04:41:00     -104.720       -5.390       -3.968       26.552       21.639       18.419      704.994      468.230      339.245        0.626        0.076      104.859       17.524        0.028      334.926        5.222      860.531
01/10/2015  04:42:00      -66.697        5.084       -2.756       38.004       31.106       23.614     1444.284      967.605      557.604        0.373        0.148       66.891       24.007        0.129      334.925        5.219      860.521
01/10/2015  04:43:00      -63.301       -2.632       -8.912       43.078       23.255       15.741     1855.704      540.811      247.764        0.337        0.132       63.355       17.151        0.073      334.908        5.191      860.510
01/10/2015  04:44:00      -95.120       31.093      -15.677       22.002       22.294       10.966      484.105      497.031      120.256        0.568        0.055      100.073        8.381        0.007      335.053        5.433      860.506
01/10/2015  04:45:00      -89.996       34.051      -15.172       18.446       20.774       16.095      340.261      431.569      259.047        0.526        0.052       96.222       11.425        0.014      335.174        5.634      860.486
01/10/2015  04:46:00      -61.806       36.512      -11.879       19.438       16.515       14.377      377.817      272.747      206.686        0.308        0.043       71.785        6.650        0.009      335.232        5.729      860.477
01/10/2015  04:47:00      -63.325        9.892      -10.604       31.639       21.287       14.460     1000.999      453.149      209.087        0.294        0.083       64.093       18.596        0.084      335.143        5.582      860.474
01/10/2015  04:48:00      -66.377        3.826      -13.853       19.177       15.095       13.963      367.768      227.867      194.961        0.270        0.040       66.487       11.975        0.032      335.020        5.378      860.472
01/10/2015  04:49:00      -50.761      -15.485       -4.551       30.598       32.383       16.114      936.242     1048.675      259.662        0.254        0.112       53.070       12.758        0.058      335.027        5.388      860.469
01/10/2015  04:50:00      -29.096       11.484        2.057       14.805       14.724       16.004      219.186      216.810      256.115        0.084        0.035       31.280        2.159        0.005      335.053        5.433      860.452
01/10/2015  04:51:00       -8.714        0.618       -1.320       14.460       17.572        5.432      209.103      308.766       29.508        0.031        0.027        8.736        3.176        0.132      335.142        5.582      860.432
01/10/2015  04:52:00        0.252       23.958        2.404        9.042       23.151        6.699       81.755      535.971       44.874        0.062        0.033       23.960        9.827        0.168      335.201        5.676      860.410
01/10/2015  04:53:00        5.321       11.393       -0.133        9.556       11.769        7.612       91.318      138.506       57.950        0.022        0.014       12.574        5.175        0.169      335.090        5.494      860.397
01/10/2015  04:54:00       -1.709        3.147        0.564       11.217        9.786        7.940      125.832       95.766       63.036        0.015        0.014        3.581        5.012        1.959      335.050        5.426      860.385
01/10/2015  04:55:00       -2.509        2.214        3.265        7.900        4.208        8.292       62.403       17.709       68.755        0.009        0.007        3.346        6.789        4.116      335.151        5.598      860.380
01/10/2015  04:56:00        0.260       -6.541        9.455        8.166       10.267        6.260       66.683      105.406       39.194        0.017        0.011        6.546        6.305        0.928      335.111        5.529      860.367
01/10/2015  04:57:00       23.095       30.166       29.362       12.209        7.198        8.612      149.053       51.812       74.170        0.129        0.014       37.991        4.157        0.012      335.028        5.391      860.350
01/10/2015  04:58:00       27.514       24.673       25.395       15.236        9.903       10.875      232.140       98.074      118.255        0.123        0.022       36.956        6.972        0.036      335.037        5.406      860.341
01/10/2015  04:59:00       14.059        1.263       10.876       12.900       12.369       13.342      166.418      152.985      178.010        0.041        0.025       14.115       10.722        0.577      335.040        5.409      860.335
01/10/2015  05:00:00        5.263        6.158        2.431        3.767        4.751        6.773       14.188       22.574       45.868        0.008        0.004        8.101        1.744        0.046      335.066        5.454      860.334
01/10/2015  05:01:00       -3.816        5.191       -0.533        7.841        5.909        7.172       61.482       34.921       51.433        0.009        0.007        6.443        6.676        1.074      335.040        5.411      860.342
01/10/2015  05:02:00       -7.280        0.512        2.669        5.419        4.435        4.787       29.370       19.668       22.914        0.007        0.004        7.298        4.370        0.359      335.051        5.428      860.354
01/10/2015  05:03:00        0.374       -0.998        5.416        4.263        7.013        4.582       18.175       49.187       20.992        0.006        0.004        1.066        2.894        7.373      335.156        5.604      860.355
01/10/2015  05:04:00        4.347        0.804        7.636        7.601        7.997        3.915       57.779       63.954       15.328        0.011        0.007        4.421        4.084        0.853      335.131        5.561      860.351
01/10/2015  05:05:00      -11.864      -16.576        0.046        8.422       10.944        5.565       70.934      119.774       30.967        0.032        0.011       20.384        3.998        0.038      335.102        5.513      860.347
01/10/2015  05:06:00      -21.320      -15.207        0.023        8.831        9.061        9.513       77.983       82.108       90.496        0.047        0.013       26.188        5.064        0.037      335.064        5.451      860.341
01/10/2015  05:07:00       11.937       -7.678       12.769        9.717        6.253       11.182       94.426       39.101      125.038        0.031        0.013       14.193        4.132        0.085      335.055        5.436      860.337
01/10/2015  05:08:00       -4.478       -5.181        2.169        8.351        8.091        7.931       69.745       65.457       62.906        0.012        0.010        6.848        6.131        0.802      335.102        5.515      860.334
01/10/2015  05:09:00      -16.034      -16.687       15.514       10.430       16.550        7.312      108.790      273.895       53.463        0.061        0.022       23.142        4.859        0.044      335.178        5.640      860.339
01/10/2015  05:10:00      -23.603      -18.787        3.694       21.772       12.272       11.473      474.018      150.594      131.621        0.084        0.038       30.167       10.474        0.121      335.142        5.578      860.354
01/10/2015  05:11:00      -14.185      -11.567        0.618       21.049       26.949       15.848      443.079      726.232      251.158        0.088        0.071       18.304        8.031        0.193      335.188        5.654      860.359
01/10/2015  05:12:00       -8.319      -14.116        1.829       18.411       28.453       19.579      338.981      809.601      383.335        0.090        0.077       16.385       14.639        0.798      335.163        5.613      860.364
01/10/2015  05:13:00      -14.364      -18.714       10.001       21.205       19.441       14.073      449.650      377.950      198.046        0.084        0.051       23.591       11.820        0.251      335.130        5.560      860.355
01/10/2015  05:14:00      -16.154      -20.862        0.064       25.487       19.867       20.227      649.575      394.713      409.146        0.107        0.073       26.385       13.901        0.278      335.156        5.603      860.345
01/10/2015  05:15:00      -12.747      -37.536        7.573       38.910       39.995       26.739     1513.985     1599.631      714.950        0.273        0.191       39.641       18.913        0.228      335.134        5.569      860.345
01/10/2015  05:16:00      -61.169      -60.768        8.024       49.724       33.085       28.233     2472.499     1094.602      797.130        0.593        0.218       86.223       20.397        0.056      335.077        5.473      860.359
01/10/2015  05:17:00      -78.938      -80.078       -4.617       38.458       29.135       18.159     1479.039      848.826      329.739        0.766        0.133      112.444        6.359        0.003      335.000        5.344      860.368
01/10/2015  05:18:00      -53.547      -36.172      -16.442       34.827       19.821       11.435     1212.887      392.855      130.759        0.309        0.087       64.620        5.573        0.007      334.937        5.238      860.363
01/10/2015  05:19:00       -2.306        0.315       12.364       29.394       16.607       17.021      863.998      275.791      289.729        0.079        0.071        2.328       19.868       72.853      335.021        5.378      860.360
01/10/2015  05:20:00      -21.672       -4.008        8.475       25.127       17.050       14.437      631.367      290.704      208.428        0.084        0.057       22.040       12.137        0.303      335.020        5.378      860.362
01/10/2015  05:21:00      -70.926      -33.040        0.809       24.160       23.653       16.068      583.699      559.457      258.188        0.376        0.070       78.244       11.488        0.022      334.995        5.337      860.366
01/10/2015  05:22:00      -26.770      -16.535        7.835       39.196       19.515       11.910     1536.332      380.852      141.850        0.155        0.103       31.464       10.572        0.113      335.006        5.354      860.364
01/10/2015  05:23:00        8.296       -5.115       10.347       12.437       15.195       11.333      154.673      230.885      128.440        0.036        0.026        9.746        9.938        1.040      335.035        5.404      860.364
01/10/2015  05:24:00      -32.002       31.508       29.361       14.702       17.433       15.722      216.159      303.927      247.195        0.182        0.038       44.910        8.465        0.036      335.001        5.347      860.355
01/10/2015  05:25:00      -45.399       -9.338        3.884       19.151       18.398       15.177      366.771      338.491      230.326        0.155        0.047       46.349       11.192        0.058      335.011        5.362      860.359
01/10/2015  05:26:00      -21.539      -19.577        3.594       26.344       20.133       16.360      694.027      405.338      267.638        0.111        0.068       29.107       13.141        0.204      335.086        5.485      860.373
01/10/2015  05:27:00      -44.109      -49.549        8.231       37.831       24.454       21.084     1431.197      597.989      444.522        0.347        0.124       66.338       18.369        0.077      335.067        5.456      860.389
01/10/2015  05:28:00      -85.394      -52.592        5.134       28.798       30.531       21.822      829.333      932.123      476.186        0.616        0.112      100.289       17.413        0.030      334.975        5.304      860.395
01/10/2015  05:29:00      -75.125      -37.103        1.023       25.510       23.842       17.227      650.746      568.439      296.764        0.427        0.076       83.788       11.998        0.021      334.939        5.243      860.404
01/10/2015  05:30:00      -40.913      -66.588       -0.235       33.046       25.871       18.890     1092.022      669.300      356.817        0.411        0.106       78.153       17.584        0.051      334.954        5.268      860.413
01/10/2015  05:31:00      -64.440      -37.200       -1.081       30.595       33.515       18.530      936.057     1123.267      343.349        0.397        0.120       74.406       11.498        0.024      334.957        5.273      860.419
01/10/2015  05:32:00      -90.634      -42.799       -3.082       24.629       28.112       15.075      606.586      790.263      227.248        0.584        0.081      100.231       13.838        0.019      334.896        5.170      860.425
01/10/2015  05:33:00      -63.900      -33.375        1.054       34.973       27.750       19.033     1223.112      770.071      362.250        0.378        0.118       72.091       19.804        0.075      334.910        5.194      860.442
01/10/2015  05:34:00      -56.570      -13.891        4.738       42.010       22.240       20.804     1764.841      494.606      432.825        0.305        0.135       58.251       22.892        0.154      334.905        5.184      860.433
01/10/2015  05:35:00       -5.292      -31.911        2.439       26.844       22.766       18.823      720.614      518.296      354.318        0.132        0.080       32.346       15.807        0.239      334.998        5.341      860.430
01/10/2015  05:36:00      -39.227      -21.216       -2.002       35.612       19.391       12.943     1268.196      376.001      167.527        0.190        0.091       44.597       10.645        0.057      334.959        5.275      860.435
01/10/2015  05:37:00      -71.138      -32.893       -0.541       26.831       16.732       15.655      719.909      279.968      245.095        0.369        0.062       78.374       15.609        0.040      334.917        5.205      860.455
01/10/2015  05:38:00      -64.383      -23.180       -0.365       25.412       28.302       14.820      645.746      801.007      219.630        0.317        0.083       68.429       12.630        0.034      334.940        5.244      860.471
01/10/2015  05:39:00      -64.460       16.588       -9.433       20.132       15.687        9.432      405.307      246.067       88.955        0.263        0.037       66.560        4.269        0.004      334.856        5.106      860.482
01/10/2015  05:40:00      -57.175       60.919      -10.081       16.504       17.686       15.253      272.369      312.796      232.648        0.395        0.041       83.547       10.181        0.015      334.822        5.050      860.486
01/10/2015  05:41:00      -64.571       23.040       -8.243       12.605       17.149        8.101      158.882      294.071       65.620        0.264        0.026       68.559        4.901        0.005      334.846        5.087      860.490
01/10/2015  05:42:00      -51.053       21.281       -8.463       11.177       12.926        9.848      124.915      167.092       96.984        0.176        0.019       55.310        6.646        0.014      334.855        5.104      860.488
01/10/2015  05:43:00      -23.118        0.493       -4.114       15.920       13.630        7.470      253.457      185.774       55.794        0.052        0.025       23.123        8.075        0.122      334.871        5.132      860.488
01/10/2015  05:44:00      -15.609        0.956        3.750        8.006        6.078        7.180       64.096       36.939       51.552        0.021        0.008       15.639        1.271        0.007      334.912        5.196      860.480
01/10/2015  05:45:00        9.839       31.867        6.107       12.354       16.728       11.689      152.623      279.831      136.628        0.086        0.028       33.352       11.632        0.122      334.893        5.164      860.480
01/10/2015  05:46:00       27.646       54.666      -11.228       17.456       27.028       10.592      304.722      730.498      112.184        0.251        0.057       61.259       12.238        0.040      334.859        5.112      860.483
01/10/2015  05:47:00       17.725       58.389       -4.986       14.677       17.918       16.230      215.405      321.056      263.416        0.227        0.040       61.020       12.781        0.044      334.857        5.109      860.497
01/10/2015  05:48:00       15.921       48.668       -8.152       10.542       17.532       10.715      111.139      307.356      114.818        0.161        0.027       51.207        9.254        0.033      334.841        5.081      860.495
01/10/2015  05:49:00       36.792       40.641       -4.418       21.402       18.752        7.132      458.032      351.639       50.865        0.194        0.043       54.821        4.049        0.005      334.810        5.029      860.487
01/10/2015  05:50:00       30.092       49.914       22.543       24.616       18.551       23.186      605.952      344.123      537.571        0.270        0.074       58.283       20.685        0.126      334.811        5.030      860.475
01/10/2015  05:51:00       36.806       43.682       29.567       23.730       17.367       18.640      563.115      301.598      347.442        0.267        0.061       57.121        8.521        0.022      334.765        4.952      860.461
01/10/2015  05:52:00       63.959       38.247        6.541       15.402       13.402       11.568      237.225      179.620      133.821        0.307        0.028       74.523        9.674        0.017      334.723        4.883      860.447
01/10/2015  05:53:00       30.557       31.782        0.288       19.614       15.006       14.410      384.690      225.191      207.651        0.138        0.041       44.089        6.426        0.021      334.733        4.900      860.440
01/10/2015  05:54:00       22.754       73.408      -14.256       15.903       16.132       12.240      252.895      260.244      149.828        0.339        0.033       76.854        9.951        0.017      334.736        4.906      860.443
01/10/2015  05:55:00       -5.749       80.200      -13.017       15.327       10.231        8.434      234.905      104.666       71.135        0.352        0.021       80.406        5.820        0.005      334.766        4.955      860.449
01/10/2015  05:56:00      -18.839       72.194       -4.061       13.946       17.560       10.265      194.495      308.349      105.367        0.310        0.030       74.611        6.712        0.008      334.815        5.036      860.455
01/10/2015  05:57:00       -2.207       63.086       -5.446        8.771       10.606        6.179       76.934      112.482       38.182        0.212        0.011       63.124        3.679        0.003      334.779        4.977      860.452
01/10/2015  05:58:00       14.007       33.973        2.490       13.600       22.204       14.601      184.972      493.022      213.187        0.112        0.045       36.748       11.564        0.099      334.796        5.006      860.449
01/10/2015  05:59:00       31.681       29.504       -6.442       14.353       17.987       10.479      206.001      323.517      109.806        0.128        0.032       43.292        9.413        0.047      334.781        4.981      860.444
01/10/2015  06:00:00       26.891       20.511        0.266       10.277       15.457        8.480      105.626      238.907       71.912        0.078        0.021       33.820        7.233        0.046      334.775        4.968      860.448
01/10/2015  06:01:00       33.349       21.489       -2.121        7.298        6.245        6.073       53.261       39.001       36.886        0.085        0.006       39.673        2.923        0.005      334.758        4.942      860.451
01/10/2015  06:02:00       21.450       27.164        0.970        9.527        6.113        5.304       90.759       37.373       28.130        0.068        0.008       34.612        1.044        0.001      334.754        4.937      860.450
01/10/2015  06:03:00       17.161       34.493       -3.648        7.351        8.836        6.159       54.034       78.073       37.936        0.083        0.009       38.526        4.476        0.013      334.775        4.968      860.455
01/10/2015  06:04:00        7.736       41.129       -2.942        6.525       10.945        6.048       42.571      119.786       36.584        0.098        0.010       41.850        6.461        0.024      334.786        4.989      860.472
01/10/2015  06:05:00      -11.826       52.629       -5.947        9.027        5.244        5.158       81.493       27.494       26.608        0.154        0.007       53.941        4.159        0.006      334.877        5.139      860.494
01/10/2015  06:06:00      -32.567       44.429       -9.198       13.395       16.231        8.728      179.424      263.453       76.186        0.182        0.026       55.086        4.792        0.008      334.874        5.134      860.504
01/10/2015  06:07:00      -34.707       25.411       -2.108       22.791       19.902       12.558      519.450      396.093      157.698        0.146        0.054       43.015        8.628        0.040      334.897        5.172      860.515
01/10/2015  06:08:00      -41.471       -0.624       -7.743       11.908       16.626        9.765      141.795      276.413       95.357        0.115        0.026       41.476        7.108        0.029      334.865        5.121      860.521
01/10/2015  06:09:00      -38.252      -13.329       -3.532       19.659       13.776        9.106      386.475      189.778       82.911        0.116        0.033       40.508        9.636        0.057      334.783        4.982      860.517
01/10/2015  06:10:00      -48.459      -24.830       -0.639       12.644       12.277       10.035      159.876      150.722      100.710        0.169        0.021       54.450        2.861        0.003      334.839        5.077      860.508
01/10/2015  06:11:00      -27.567      -22.640        4.121       13.532        8.365        6.674      183.114       69.978       44.544        0.079        0.015       35.672        7.572        0.045      334.904        5.183      860.505
01/10/2015  06:12:00      -37.426       -3.412       -0.344        6.295        5.461        4.915       39.621       29.822       24.154        0.075        0.005       37.581        3.712        0.010      334.896        5.173      860.501
01/10/2015  06:13:00      -34.308       -3.386       -2.546        8.026       11.133        7.312       64.414      123.933       53.459        0.072        0.012       34.475        4.045        0.014      334.897        5.173      860.506
01/10/2015  06:14:00      -54.385        7.162       -4.795        9.231       10.178        7.432       85.217      103.597       55.240        0.164        0.012       54.854        4.918        0.008      334.813        5.034      860.523
01/10/2015  06:15:00      -57.108       -0.347       -4.164       18.248       15.023       10.804      333.001      225.681      116.726        0.198        0.034       57.109        9.466        0.027      334.785        4.987      860.534
01/10/2015  06:16:00      -52.375       -0.537       -5.758       14.183       12.686        8.847      201.148      160.926       78.263        0.161        0.022       52.378        6.759        0.017      334.785        4.988      860.539
01/10/2015  06:17:00      -55.163        0.625       -4.810       18.124       15.501        9.887      328.475      240.286       97.749        0.187        0.033       55.166        9.469        0.029      334.797        5.007      860.539
01/10/2015  06:18:00      -48.992       27.338      -10.549       10.479       14.705        7.501      109.807      216.226       56.270        0.182        0.019       56.103        4.909        0.008      334.825        5.054      860.535
01/10/2015  06:19:00      -44.297       48.842      -13.815       13.639       16.889       10.263      186.035      285.231      105.324        0.256        0.029       65.938        7.466        0.013      334.849        5.094      860.530
01/10/2015  06:20:00      -63.271       55.526      -12.441       14.888       18.901       12.715      221.651      357.241      161.680        0.399        0.037       84.180       10.549        0.016      334.820        5.045      860.527
01/10/2015  06:21:00      -68.041       16.983       -9.091       22.888       23.754       15.126      523.844      564.247      228.801        0.316        0.066       70.128       14.466        0.043      334.795        5.004      860.525
01/10/2015  06:22:00      -56.181      -10.528       -6.328       26.190       18.088       10.223      685.933      327.178      104.517        0.221        0.056       57.159       11.252        0.039      334.769        4.959      860.521
01/10/2015  06:23:00      -80.781        0.952       -7.219       35.876       23.207       20.913     1287.106      538.587      437.371        0.442        0.113       80.786       20.791        0.066      334.713        4.867      860.519
01/10/2015  06:24:00      -73.875        1.905       -2.829       38.822       21.713       18.006     1507.141      471.436      324.217        0.389        0.115       73.899       18.356        0.062      334.672        4.800      860.523
01/10/2015  06:25:00      -63.871       13.124       -5.540       34.157       26.375       21.148     1166.700      695.634      447.231        0.330        0.115       65.206       22.231        0.116      334.643        4.751      860.526
01/10/2015  06:26:00      -63.778       -0.297       -2.743       29.323       22.227       18.840      859.853      494.039      354.939        0.289        0.085       63.779       17.917        0.079      334.636        4.741      860.527
01/10/2015  06:27:00      -46.978        1.865       -4.032       25.092       15.479       15.986      629.623      239.584      255.538        0.168        0.056       47.015       17.027        0.131      334.659        4.778      860.525
01/10/2015  06:28:00      -59.513       -5.862       -5.587       11.103       11.021        7.721      123.287      121.452       59.609        0.196        0.015       59.801        4.047        0.005      334.690        4.830      860.531
01/10/2015  06:29:00      -63.133       -3.651       -6.554       16.238       15.764       11.773      263.660      248.495      138.607        0.235        0.033       63.238       10.993        0.030      334.643        4.752      860.536
01/10/2015  06:30:00      -44.246      -19.286       -5.451        5.770        7.101        5.009       33.295       50.429       25.091        0.123        0.005       48.267        3.554        0.005      334.687        4.823      860.556
01/10/2015  06:31:00      -19.730      -24.437       -2.810       12.881        8.314        7.010      165.922       69.123       49.143        0.064        0.014       31.408        2.605        0.007      334.735        4.902      860.564
01/10/2015  06:32:00      -35.765       -9.060       -3.760       14.451        9.616        8.115      208.836       92.459       65.851        0.087        0.018       36.894        6.215        0.028      334.727        4.891      860.571
01/10/2015  06:33:00      -52.351       -7.110       -7.457        9.897       10.150        7.081       97.957      103.029       50.134        0.155        0.013       52.831        5.114        0.009      334.686        4.824      860.569
01/10/2015  06:34:00      -70.696      -27.183       -7.458       11.459       19.037        9.993      131.298      362.397       99.862        0.319        0.030       75.741        6.556        0.007      334.607        4.690      860.566
01/10/2015  06:35:00      -87.629      -51.397       -4.922       23.844       24.730       15.238      568.531      611.561      232.193        0.588        0.071      101.590       11.180        0.012      334.562        4.616      860.565
01/10/2015  06:36:00      -84.981      -58.746       -3.646       24.594       23.712       16.789      604.884      562.277      281.872        0.607        0.072      103.309       14.800        0.021      334.503        4.520      860.572
01/10/2015  06:37:00     -103.565      -19.346       -3.622       21.686       18.269       11.769      470.292      333.745      138.515        0.603        0.047      105.357        9.674        0.008      334.513        4.534      860.577
01/10/2015  06:38:00      -98.873      -11.378       -7.904       16.614       13.280        8.509      276.021      176.366       72.400        0.525        0.026       99.526        5.870        0.003      334.512        4.532      860.573
01/10/2015  06:39:00      -86.607      -23.944       -2.811       19.288       16.734       14.287      372.028      280.011      204.117        0.447        0.043       89.856       10.187        0.013      334.516        4.540      860.579
01/10/2015  06:40:00      -76.767      -26.621       -6.929       26.198       15.133       12.173      686.356      229.007      148.191        0.386        0.053       81.252        7.486        0.008      334.506        4.523      860.582
01/10/2015  06:41:00      -49.830      -20.659        7.378       26.807       28.521       15.130      718.626      813.445      228.912        0.236        0.088       53.943       14.555        0.073      334.521        4.548      860.596
01/10/2015  06:42:00      -49.095      -14.667       -0.556       27.388       18.231       14.145      750.095      332.353      200.070        0.195        0.064       51.239       11.473        0.050      334.566        4.621      860.598
01/10/2015  06:43:00      -76.639      -25.261      -10.722       20.037       12.731       14.183      401.478      162.086      201.145        0.370        0.038       80.695       12.016        0.022      334.555        4.602      860.600
01/10/2015  06:44:00      -70.797      -13.719      -11.377       14.293       11.047        8.972      204.298      122.042       80.501        0.287        0.020       72.114        7.553        0.011      334.561        4.614      860.599
01/10/2015  06:45:00      -47.238       -6.482       -8.989       10.622        8.101        9.236      112.830       65.631       85.312        0.131        0.013       47.681        8.758        0.034      334.573        4.635      860.594
01/10/2015  06:46:00      -60.935        3.233      -14.010       10.739        9.105        8.187      115.319       82.907       67.022        0.209        0.013       61.021        7.044        0.013      334.689        4.828      860.594
01/10/2015  06:47:00      -33.224       -5.145        2.233       13.920       15.638        9.529      193.761      244.539       90.807        0.083        0.026       33.620        5.148        0.023      334.624        4.719      860.602
01/10/2015  06:48:00      -42.187      -15.008       -2.417        8.624       12.920        6.575       74.378      166.922       43.234        0.115        0.014       44.777        4.143        0.009      334.574        4.635      860.618
01/10/2015  06:49:00      -33.480      -29.186       -1.331       14.222       18.173        9.448      202.252      330.269       89.258        0.130        0.031       44.416        8.326        0.035      334.549        4.595      860.630
01/10/2015  06:50:00       -6.305      -17.874        1.179       20.587        9.593       11.841      423.832       92.019      140.200        0.051        0.033       18.954       13.177        0.483      334.515        4.538      860.635
01/10/2015  06:51:00        6.124      -18.152        9.413        8.795        9.897        8.042       77.355       97.952       64.679        0.035        0.012       19.157        6.061        0.100      334.487        4.492      860.636
01/10/2015  06:52:00      -12.399      -27.263        1.754       17.730        9.277       10.214      314.356       86.063      104.335        0.070        0.025       29.950       10.871        0.132      334.479        4.479      860.637
01/10/2015  06:53:00      -11.173      -14.958        6.643       19.681       13.684       11.729      387.351      187.244      137.570        0.055        0.036       18.670        9.316        0.249      334.447        4.426      860.653
01/10/2015  06:54:00      -42.901      -27.172       -1.706       34.266       26.088       13.244     1174.127      680.566      175.416        0.231        0.102       50.782       15.325        0.091      334.363        4.287      860.663
01/10/2015  06:55:00      -56.148      -19.648      -11.538       11.830       15.573        9.711      139.945      242.508       94.298        0.207        0.024       59.486        5.249        0.008      334.356        4.276      860.684
01/10/2015  06:56:00      -41.441      -20.759       -5.203       18.673        9.840        8.326      348.691       96.834       69.324        0.135        0.026       46.350        5.344        0.013      334.321        4.218      860.682
01/10/2015  06:57:00      -32.628      -18.724       -5.711       10.373       10.284        7.935      107.606      105.766       62.959        0.086        0.014       37.619        6.018        0.026      334.359        4.281      860.679
01/10/2015  06:58:00      -21.288       -3.485       -3.093        4.516        4.153        5.918       20.393       17.247       35.026        0.027        0.004       21.571        2.900        0.018      334.347        4.260      860.683
01/10/2015  06:59:00      -29.127        0.376       -2.148       10.203        5.712        4.883      104.108       32.624       23.842        0.051        0.008       29.129        1.116        0.001      334.419        4.378      860.681
01/10/2015  07:00:00      -48.028      -14.196       -2.607        7.376       11.903        4.465       54.402      141.670       19.934        0.137        0.011       50.082        3.127        0.004      334.492        4.500      860.694
01/10/2015  07:01:00       -8.637      -19.138        7.086       17.655       15.272       11.392      311.691      233.247      129.782        0.058        0.034       20.996        9.954        0.225      334.495        4.505      860.702
01/10/2015  07:02:00       -1.354       -9.683       10.336       11.189        9.731        8.209      125.188       94.688       67.386        0.024        0.014        9.777        6.149        0.396      334.495        4.506      860.711
01/10/2015  07:03:00       -5.723       -4.314        5.711        5.929        9.465        7.986       35.157       89.584       63.769        0.014        0.009        7.167        7.920        1.221      334.473        4.469      860.710
01/10/2015  07:04:00       -5.891       16.992       20.664        9.234       11.394       17.004       85.268      129.818      289.126        0.063        0.025       17.985       10.295        0.328      334.471        4.466      860.711
01/10/2015  07:05:00       -9.361       18.877       42.981       10.613       16.148       13.478      112.646      260.764      181.649        0.142        0.028       21.071       12.018        0.325      334.541        4.581      860.714
01/10/2015  07:06:00       -3.731       25.800       42.571       14.067       13.340       11.907      197.877      177.954      141.771        0.150        0.026       26.068       11.003        0.178      334.513        4.536      860.727
01/10/2015  07:07:00       14.811       30.452       35.549       21.556       14.935       14.941      464.672      223.052      223.229        0.166        0.046       33.862       12.948        0.146      334.490        4.498      860.728
01/10/2015  07:08:00       64.302       49.982       32.668       21.017        9.973       15.544      441.698       99.471      241.605        0.424        0.039       81.443        7.914        0.009      334.474        4.470      860.724
01/10/2015  07:09:00       52.157       47.640       30.162       29.073       20.781       27.992      845.239      431.865      783.526        0.398        0.103       70.640       17.131        0.059      334.472        4.468      860.716
01/10/2015  07:10:00        9.920       41.949       49.296       18.765       20.385       12.743      352.124      415.530      162.379        0.261        0.047       43.106       10.928        0.064      334.450        4.432      860.720
01/10/2015  07:11:00       -6.298       14.690       35.869        6.952       13.780        9.381       48.328      189.902       88.011        0.093        0.016       15.984        9.932        0.386      334.479        4.480      860.739
01/10/2015  07:12:00       10.157       22.187       39.841       14.671       17.037       13.366      215.251      290.243      178.658        0.143        0.034       24.401       11.175        0.210      334.465        4.457      860.756
01/10/2015  07:13:00       21.196       30.414       42.431       23.691       19.153       15.188      561.262      366.837      230.663        0.217        0.058       37.071       12.191        0.108      334.469        4.463      860.772
01/10/2015  07:14:00       32.275       37.598       48.224       45.523       33.079       29.949     2072.326     1094.224      896.932        0.442        0.203       49.550       25.689        0.269      334.452        4.434      860.775
01/10/2015  07:15:00       58.388       74.874       56.426       25.395       28.278       19.054      644.896      799.650      363.039        0.700        0.090       94.949       13.874        0.021      334.396        4.343      860.776
01/10/2015  07:16:00       19.661       41.759       54.066       20.590       24.752       13.191      423.954      612.639      173.994        0.313        0.061       46.156       12.180        0.070      334.401        4.352      860.787
01/10/2015  07:17:00       10.565       50.382       66.554       23.824       26.641       16.022      567.560      709.728      256.707        0.431        0.077       51.478       15.322        0.089      334.392        4.335      860.800
01/10/2015  07:18:00       27.113       42.228       57.286       25.044       17.462       11.269      627.199      304.921      126.994        0.343        0.053       50.183        7.517        0.022      334.385        4.326      860.811
01/10/2015  07:19:00       44.483       58.752       67.498       26.965       19.443       13.198      727.119      378.021      174.189        0.563        0.064       73.692        8.845        0.014      334.417        4.377      860.809
01/10/2015  07:20:00       37.229       74.985       63.568       31.658       28.283       28.647     1002.222      799.910      820.666        0.684        0.131       83.718       22.733        0.074      334.402        4.350      860.805
01/10/2015  07:21:00       20.305       53.508       55.822       20.058       24.303       17.029      402.322      590.622      290.002        0.384        0.064       57.231       14.863        0.067      334.413        4.369      860.821
01/10/2015  07:22:00       35.157       15.988       28.408       28.027       18.457       16.260      785.517      340.666      264.374        0.184        0.070       38.621       18.618        0.232      334.442        4.418      860.842
01/10/2015  07:23:00        0.952       18.872       26.178       11.814       10.802        9.316      139.578      116.690       86.790        0.069        0.017       18.896        5.844        0.096      334.498        4.512      860.860
01/10/2015  07:24:00       -2.556       16.106       36.112       10.010       13.403       11.369      100.204      179.637      129.245        0.099        0.020       16.308       10.718        0.432      334.550        4.595      860.872
01/10/2015  07:25:00       29.182       20.920       22.894       24.241       10.057       17.939      587.613      101.148      321.819        0.141        0.051       35.906       18.189        0.257      334.486        4.491      860.879
01/10/2015  07:26:00       48.467       21.250        2.982       12.427       10.861       11.826      154.421      117.962      139.860        0.161        0.021       52.920        7.490        0.020      334.467        4.459      860.892
01/10/2015  07:27:00       36.634       31.532       15.161       21.252        8.604       14.310      451.635       74.029      204.774        0.165        0.037       48.336       11.728        0.059      334.444        4.421      860.890
01/10/2015  07:28:00       19.621       35.210       29.793       13.052       12.712       12.357      170.353      161.590      152.691        0.150        0.024       40.308       11.216        0.077      334.442        4.417      860.886
01/10/2015  07:29:00       49.875       25.845       14.537       13.418        9.667       11.196      180.039       93.456      125.352        0.188        0.020       56.173        6.398        0.013      334.473        4.469      860.876
01/10/2015  07:30:00       34.534       16.405        6.886       18.083       13.215       11.208      326.986      174.635      125.616        0.107        0.031       38.232        7.348        0.037      334.515        4.537      860.865
01/10/2015  07:31:00        6.969       -4.561        0.400        9.025       13.549        8.429       81.456      183.562       71.052        0.020        0.017        8.329        9.024        1.174      334.572        4.631      860.866
01/10/2015  07:32:00       -0.848      -13.869        6.776       10.527       10.749        8.646      110.826      115.549       74.756        0.027        0.015       13.895        6.657        0.229      334.542        4.584      860.875
01/10/2015  07:33:00      -23.378       -5.376       -7.288        9.379        5.600        5.372       87.967       31.361       28.854        0.039        0.007       23.988        2.267        0.009      334.350        4.268      860.879
01/10/2015  07:34:00      -59.666      -23.260       -2.240       13.176       19.369        9.121      173.613      375.170       83.196        0.237        0.032       64.039        7.590        0.014      334.311        4.201      860.888
01/10/2015  07:35:00      -75.572        0.111       -3.400       26.217       15.398       15.940      687.350      237.105      254.069        0.345        0.059       75.572       14.709        0.038      334.241        4.084      860.892
01/10/2015  07:36:00      -91.262       -1.037       -3.062       25.246       13.617       14.370      637.349      185.431      206.490        0.468        0.051       91.268       14.569        0.025      334.230        4.066      860.902
01/10/2015  07:37:00      -78.734        1.032       -2.381       23.055       17.050       14.338      531.511      290.690      205.568        0.362        0.051       78.741       12.207        0.024      334.243        4.087      860.906
01/10/2015  07:38:00      -79.438       -0.650        0.111       32.751       15.567       17.146     1072.604      242.333      293.993        0.396        0.080       79.441       17.915        0.051      334.280        4.150      860.917
01/10/2015  07:39:00     -130.129       16.508       -9.718       23.720       14.100       14.784      562.627      198.807      218.570        0.914        0.049      131.172       15.170        0.013      334.295        4.174      860.922
01/10/2015  07:40:00     -100.623        1.081      -10.048       28.979       17.904       14.046      839.798      320.550      197.293        0.579        0.068      100.629       15.633        0.024      334.322        4.219      860.922
01/10/2015  07:41:00      -74.644       -3.431       -2.344       27.252       16.200       15.795      742.698      262.436      249.472        0.342        0.063       74.723       16.995        0.052      334.365        4.288      860.921
01/10/2015  07:42:00      -79.410       -2.703       -7.163       19.371       13.801        9.243      375.220      190.457       85.429        0.351        0.033       79.456        8.026        0.010      334.363        4.286      860.915
01/10/2015  07:43:00      -93.484       -5.332       -6.587       15.050       14.398        8.948      226.502      207.307       80.069        0.466        0.026       93.636        5.305        0.003      334.326        4.226      860.907
01/10/2015  07:44:00      -50.645       -3.911       -6.252       19.013       15.914       13.000      361.510      253.268      169.003        0.170        0.039       50.796       11.851        0.054      334.281        4.150      860.900
01/10/2015  07:45:00      -13.707        2.330        0.880       13.468       14.441       12.085      181.378      208.551      146.055        0.036        0.027       13.904        7.651        0.303      334.308        4.195      860.893
01/10/2015  07:46:00      -14.665       11.367        0.655       16.311       15.182       10.299      266.047      230.505      106.072        0.047        0.030       18.555       10.929        0.347      334.370        4.300      860.882
01/10/2015  07:47:00      -43.847       21.398       -4.542        9.617       13.359        6.749       92.485      178.457       45.542        0.136        0.016       48.790        4.465        0.008      334.356        4.275      860.882
01/10/2015  07:48:00      -51.425       14.364       -6.594       25.749       27.003       12.180      663.018      729.173      148.355        0.222        0.077       53.393        9.275        0.030      334.286        4.159      860.895
01/10/2015  07:49:00      -71.996        6.970       -2.358       35.044       27.578       20.768     1228.110      760.522      431.316        0.383        0.121       72.333       13.964        0.037      334.238        4.079      860.914
01/10/2015  07:50:00      -74.190      -16.609       -7.591       28.167       28.685       18.959      793.381      822.817      359.449        0.391        0.099       76.026       13.986        0.034      334.204        4.022      860.932
01/10/2015  07:51:00      -25.713        0.181       -1.881       23.599       17.056       13.091      556.906      290.911      171.376        0.084        0.051       25.714       12.490        0.236      334.240        4.082      860.938
01/10/2015  07:52:00      -66.466       20.431      -11.313       23.285       27.802       17.528      542.194      772.925      307.238        0.329        0.081       69.535       16.467        0.056      334.255        4.107      860.935
01/10/2015  07:53:00      -77.723       60.342      -19.686       12.825       14.117       12.698      164.476      199.280      161.246        0.530        0.026       98.397        7.938        0.007      334.343        4.254      860.924
01/10/2015  07:54:00      -83.109       43.834      -19.457       14.292       18.030       11.404      204.269      325.066      130.047        0.493        0.033       93.961        8.451        0.008      334.295        4.175      860.921
01/10/2015  07:55:00      -70.182       -5.269      -12.651       18.200       15.166       12.993      331.249      230.003      168.810        0.292        0.037       70.379       11.702        0.028      334.232        4.068      860.928
01/10/2015  07:56:00      -90.014      -17.130       -1.240       30.148       36.034       21.754      908.923     1298.419      473.230        0.554        0.134       91.630       15.631        0.029      334.198        4.013      860.932
01/10/2015  07:57:00      -69.859      -21.502       -8.923       32.339       27.161       16.820     1045.836      737.741      282.906        0.374        0.103       73.093        8.770        0.014      334.166        3.959      860.938
01/10/2015  07:58:00      -35.131      -13.419       -1.817       28.186       23.420       14.095      794.446      548.499      198.672        0.148        0.077       37.607       15.507        0.170      334.202        4.021      860.947
01/10/2015  07:59:00      -69.038        2.420       -0.504       43.886       20.667       18.915     1926.015      427.139      357.771        0.374        0.136       69.080       20.844        0.091      334.228        4.061      860.950
01/10/2015  08:00:00     -124.608        6.489      -13.672       31.400       20.685       19.261      985.952      427.863      370.977        0.877        0.089      124.776       19.766        0.025      334.178        3.978      860.949
01/10/2015  08:01:00     -104.631        4.300      -10.182       41.239       26.149       23.894     1700.668      683.765      570.921        0.701        0.148      104.720       25.891        0.061      334.239        4.079      860.948
01/10/2015  08:02:00      -81.177       13.265       -0.720       32.690       23.016       20.699     1068.650      529.748      428.430        0.440        0.101       82.253       15.870        0.037      334.311        4.201      860.949
01/10/2015  08:03:00      -74.366        5.343       -5.427       32.180       22.011       16.919     1035.547      484.500      286.251        0.370        0.090       74.557       14.905        0.040      334.389        4.331      860.961
01/10/2015  08:04:00     -113.576        4.036       -9.565       25.451       14.053       13.345      647.766      197.476      178.080        0.702        0.051      113.648        6.942        0.004      334.419        4.380      860.962
01/10/2015  08:05:00      -88.395        3.158       -7.892       20.844       18.213       11.977      434.493      331.716      143.441        0.440        0.045       88.452        9.995        0.013      334.394        4.338      860.964
01/10/2015  08:06:00      -86.407       -3.681       -8.907       21.058       15.098       14.965      443.437      227.942      223.958        0.423        0.045       86.486       13.380        0.024      334.436        4.409      860.957
01/10/2015  08:07:00      -64.016       -5.828       -1.310       29.358       17.204       16.836      861.865      295.981      283.460        0.279        0.072       64.280       18.937        0.087      334.494        4.503      860.952
01/10/2015  08:08:00      -89.628        8.025       -6.073       22.587       18.225       13.650      510.168      332.146      186.322        0.458        0.051       89.987       12.436        0.019      334.470        4.464      860.957
01/10/2015  08:09:00      -60.199        5.701       -8.412       33.597       18.907       15.943     1128.787      357.460      254.184        0.273        0.087       60.468       17.932        0.088      334.484        4.488      860.969
01/10/2015  08:10:00      -41.163        0.373       -0.407       25.900       21.277       15.290      670.805      452.714      233.799        0.153        0.068       41.165       15.453        0.141      334.515        4.538      860.992
01/10/2015  08:11:00      -77.124       -1.589       -4.707       28.851       21.689       13.047      832.403      470.401      170.229        0.372        0.074       77.140        7.465        0.009      334.418        4.377      861.016
01/10/2015  08:12:00     -120.325        9.242      -13.575       26.797       26.132       17.081      718.074      682.891      291.748        0.822        0.085      120.679        9.237        0.006      334.392        4.335      861.035
01/10/2015  08:13:00     -121.326        6.320      -11.800       29.341       27.602       18.217      860.881      761.853      331.843        0.843        0.098      121.490       16.234        0.018      334.376        4.308      861.047
01/10/2015  08:14:00     -116.294       16.163       -9.712       31.732       20.972       14.245     1006.908      439.816      202.915        0.776        0.082      117.412       15.043        0.016      334.354        4.272      861.042
01/10/2015  08:15:00      -60.877        3.941       -8.427       32.898       21.611       15.361     1082.282      467.040      235.973        0.279        0.089       61.004       14.467        0.056      334.404        4.354      861.047
01/10/2015  08:16:00      -49.556       15.791       -8.599       19.868       16.338       15.309      394.752      266.925      234.361        0.184        0.045       52.011       11.637        0.050      334.465        4.456      861.057
01/10/2015  08:17:00      -36.971      -16.582       -3.605       15.942       21.982       10.796      254.150      483.227      116.546        0.125        0.043       40.520        9.640        0.057      334.488        4.494      861.072
01/10/2015  08:18:00      -62.352       -4.133       -5.436       37.490       15.675       14.423     1405.536      245.716      208.028        0.290        0.093       62.489       17.280        0.076      334.491        4.499      861.088
01/10/2015  08:19:00      -68.810        2.356       -5.845       19.671       20.110       13.607      386.936      404.417      185.145        0.288        0.049       68.851        8.941        0.017      334.463        4.451      861.104
01/10/2015  08:20:00      -45.379       -5.621       -1.166       43.498       13.633       12.055     1892.044      185.851      145.325        0.216        0.111       45.725       16.940        0.137      334.484        4.487      861.104
01/10/2015  08:21:00      -59.026        0.427       -5.230       25.695       18.465       15.435      660.243      340.947      238.225        0.238        0.062       59.028       15.461        0.069      334.553        4.602      861.098
01/10/2015  08:22:00      -48.140       10.524       -6.038       21.486       16.869       11.545      461.637      284.565      133.281        0.167        0.044       49.277       10.576        0.046      334.530        4.562      861.103
01/10/2015  08:23:00      -25.081       16.853       -3.593       16.980       17.465       11.663      288.305      305.023      136.022        0.083        0.036       30.217        8.635        0.082      334.551        4.598      861.118
01/10/2015  08:24:00      -30.738        5.795       -9.037       16.871       22.353       13.055      284.620      499.642      170.446        0.101        0.048       31.280        7.748        0.061      334.580        4.644      861.134
01/10/2015  08:25:00      -53.865        4.429      -10.253       22.843       16.440       12.661      521.781      270.281      160.301        0.199        0.048       54.047       11.087        0.042      334.568        4.626      861.144
01/10/2015  08:26:00      -53.070        0.683       -4.675       19.754       20.201       13.383      390.234      408.091      179.101        0.191        0.049       53.074        9.901        0.035      334.574        4.636      861.161
01/10/2015  08:27:00      -75.149        3.509       -7.092       21.870       23.676       13.659      478.302      560.535      186.568        0.347        0.061       75.231       12.066        0.026      334.608        4.694      861.171
01/10/2015  08:28:00      -61.759       10.996       -6.899       29.322       21.251       13.742      859.771      451.612      188.846        0.274        0.075       62.731       11.478        0.033      334.614        4.703      861.184
01/10/2015  08:29:00      -62.090        8.143      -12.652       21.781       19.708       11.001      474.401      388.415      121.030        0.253        0.049       62.621       10.396        0.028      334.626        4.724      861.182
01/10/2015  08:30:00      -40.056       30.061       -4.465       16.290       22.956       11.993      265.363      526.993      143.829        0.173        0.047       50.081       10.437        0.043      334.684        4.818      861.180
01/10/2015  08:31:00      -35.977       14.039       -6.604       14.968       15.980        7.457      224.030      255.355       55.612        0.103        0.027       38.620        4.323        0.013      334.739        4.910      861.189
01/10/2015  08:32:00      -33.143        3.425       -5.413       21.471        9.105        6.878      460.984       82.907       47.307        0.087        0.030       33.320        5.388        0.026      334.805        5.022      861.194
01/10/2015  08:33:00      -47.229       19.395       -5.196       14.140       15.477       11.124      199.945      239.544      123.740        0.160        0.028       51.057        9.109        0.032      334.790        4.995      861.204
01/10/2015  08:34:00      -58.506       32.292      -10.683       14.128       19.549       13.529      199.588      382.163      183.041        0.267        0.038       66.827       12.559        0.035      334.756        4.938      861.221
01/10/2015  08:35:00      -90.777        4.211       -4.053       40.572       25.037       17.489     1646.057      626.848      305.859        0.543        0.129       90.875       18.092        0.040      334.756        4.939      861.231
01/10/2015  08:36:00      -69.375       -6.102       -1.432       25.356       19.687       16.535      642.916      387.586      273.396        0.308        0.065       69.643       14.721        0.045      334.776        4.971      861.254
01/10/2015  08:37:00      -54.825        6.975       -1.769       35.539       18.132       18.344     1263.014      328.773      336.518        0.249        0.096       55.267       19.224        0.121      334.851        5.096      861.267
01/10/2015  08:38:00      -71.922        0.049       -8.344       19.670       14.280       12.982      386.906      203.926      168.533        0.300        0.038       71.922        9.721        0.018      334.797        5.005      861.276
01/10/2015  08:39:00      -34.225      -11.645       -2.707       19.835       13.944       11.141      393.430      194.443      124.128        0.101        0.036       36.152       10.276        0.081      334.891        5.162      861.291
01/10/2015  08:40:00      -42.907      -29.450       -7.765        9.156       11.238        6.724       83.832      126.288       45.207        0.151        0.013       52.041        3.946        0.006      334.866        5.121      861.283
01/10/2015  08:41:00      -33.101      -21.633       -5.923        8.238        5.039        5.153       67.861       25.387       26.548        0.086        0.006       39.543        5.003        0.016      334.876        5.140      861.289
01/10/2015  08:42:00      -29.154      -10.217        0.097       11.523        7.510        7.866      132.784       56.393       61.878        0.060        0.013       30.892        6.978        0.051      334.959        5.276      861.280
01/10/2015  08:43:00       -3.385       -3.006       -0.296       14.736        5.431        8.262      217.154       29.498       68.255        0.017        0.016        4.528        6.595        2.122      334.998        5.338      861.288
01/10/2015  08:44:00       -1.499       -4.264        9.674        8.921        6.212        8.554       79.579       38.584       73.171        0.015        0.010        4.520        7.040        2.426      335.276        5.802      861.304
01/10/2015  08:45:00      -25.421       13.788       -3.524       10.945        8.014        7.992      119.802       64.222       63.874        0.055        0.012       28.920        7.773        0.072      335.028        5.391      861.310
01/10/2015  08:46:00      -30.780       25.576       -6.119       10.948       11.242        7.351      119.853      126.380       54.039        0.097        0.015       40.019        5.494        0.019      335.008        5.356      861.325
01/10/2015  08:47:00      -23.515        9.435        2.031       11.736       10.265       10.665      137.723      105.372      113.736        0.050        0.018       25.337        9.807        0.150      335.099        5.509      861.326
01/10/2015  08:48:00      -11.323       17.900        2.539       20.189       14.274       12.601      407.602      203.744      158.776        0.061        0.039       21.180       15.769        0.554      335.129        5.559      861.334
01/10/2015  08:49:00        4.406       17.229        6.673       10.654       15.003       13.025      113.513      225.078      169.643        0.043        0.025       17.784       13.782        0.601      335.306        5.852      861.329
01/10/2015  08:50:00       26.625       27.760       -6.369       10.325       15.945       10.777      106.612      254.248      116.134        0.100        0.024       38.464       10.367        0.073      335.111        5.528      861.338
01/10/2015  08:51:00        6.514       15.897       -4.844       13.009        8.613        9.228      169.225       74.175       85.153        0.032        0.016       17.180        6.717        0.153      335.175        5.635      861.334
01/10/2015  08:52:00       -7.103        4.447        7.918        8.765        7.646        7.834       76.821       58.467       61.368        0.016        0.010        8.380        3.857        0.212      335.361        5.942      861.343
01/10/2015  08:53:00       -0.576       -3.105       11.760       10.864        6.885        6.446      118.019       47.398       41.550        0.018        0.010        3.158        5.442        2.969      335.436        6.068      861.350
01/10/2015  08:54:00       -2.237       26.824       -3.469        6.655       12.871        7.885       44.296      165.659       62.177        0.050        0.014       26.918        8.022        0.089      335.237        5.735      861.362
01/10/2015  08:55:00       -2.650        8.203        8.669        6.904       16.301       10.992       47.671      265.716      120.827        0.029        0.022        8.621        9.470        1.207      335.516        6.201      861.364
01/10/2015  08:56:00       -6.747       26.681        0.048       14.598       16.399       11.233      213.091      268.917      126.171        0.068        0.030       27.521        7.303        0.070      335.270        5.791      861.373
01/10/2015  08:57:00       -1.791       10.246        4.746       13.096       12.040       10.957      171.503      144.954      120.052        0.028        0.022       10.401        8.890        0.731      335.496        6.168      861.374
01/10/2015  08:58:00        5.602       22.535       14.035       18.253       17.624       17.004      333.176      310.591      289.134        0.083        0.047       23.221       13.588        0.342      335.472        6.127      861.392
01/10/2015  08:59:00       43.500       33.482       19.176       38.842       15.911       23.553     1508.711      253.163      554.732        0.285        0.116       54.894       26.120        0.226      335.328        5.889      861.412
01/10/2015  09:00:00       38.114       15.856       -1.368       19.655       11.623       13.654      386.314      135.102      186.431        0.121        0.035       41.280        8.419        0.042      335.212        5.696      861.432
01/10/2015  09:01:00       36.652       23.964        6.799       14.694       13.073       13.869      215.919      170.892      192.338        0.127        0.029       43.791        8.895        0.041      335.310        5.858      861.446
01/10/2015  09:02:00       60.795       18.006       -1.279       18.502       12.182       12.022      342.307      148.412      144.539        0.233        0.032       63.405        1.594        0.001      335.215        5.700      861.448
01/10/2015  09:03:00       13.260       56.751       -8.308       26.289       20.462       12.688      691.135      418.689      160.986        0.237        0.064       58.279        6.949        0.014      335.277        5.802      861.446
01/10/2015  09:04:00        2.832       83.560      -13.750       20.700       12.770       11.271      428.492      163.063      127.037        0.395        0.036       83.608        5.315        0.004      335.311        5.858      861.443
01/10/2015  09:05:00       23.845       48.609       -5.655       12.630       24.067       16.043      159.527      579.220      257.375        0.198        0.050       54.142       15.850        0.086      335.343        5.913      861.449
01/10/2015  09:06:00       40.140       40.717        3.851       23.768       15.957       17.928      564.932      254.639      321.402        0.221        0.057       57.176       11.632        0.041      335.371        5.959      861.444
01/10/2015  09:07:00       53.744       44.406      -14.659       20.844       19.571       14.960      434.465      383.019      223.801        0.306        0.052       69.715       10.768        0.024      335.369        5.956      861.460
01/10/2015  09:08:00       78.264       36.290        3.524       36.748       19.364       12.546     1350.435      374.968      157.395        0.467        0.094       86.268       13.088        0.023      335.343        5.913      861.472
01/10/2015  09:09:00       49.253       27.497       11.235       35.597       28.881       24.770     1267.165      834.102      613.543        0.301        0.136       56.409       13.353        0.056      335.418        6.037      861.487
01/10/2015  09:10:00       29.608       41.986        4.592       22.287       30.760       21.756      496.724      946.154      473.310        0.229        0.096       51.376       23.315        0.206      335.403        6.012      861.489
01/10/2015  09:11:00       43.423       48.297       -3.870       23.497       23.326       16.054      552.120      544.097      257.738        0.279        0.068       64.947       15.260        0.055      335.315        5.866      861.492
01/10/2015  09:12:00       34.785       41.774        4.697       27.737       17.644       18.870      769.322      311.301      356.059        0.221        0.072       54.361       13.980        0.066      335.353        5.930      861.480
01/10/2015  09:13:00       35.166       28.319       -5.786       22.088       17.928       13.932      487.872      321.413      194.108        0.154        0.050       45.151        9.395        0.043      335.325        5.881      861.482
01/10/2015  09:14:00       43.369       32.292       -9.735       18.490       19.161       11.012      341.867      367.143      121.268        0.192        0.042       54.071        9.346        0.030      335.309        5.854      861.500
01/10/2015  09:15:00        8.744       55.520       -6.748       21.353       18.622       14.140      455.944      346.794      199.936        0.210        0.050       56.204       13.959        0.062      335.345        5.917      861.509
01/10/2015  09:16:00       27.493       54.240      -10.959       16.345       20.393       17.687      267.159      415.872      312.834        0.241        0.050       60.810       14.167        0.054      335.354        5.931      861.521
01/10/2015  09:17:00       30.189       47.618       -6.321       19.106       26.613       19.738      365.040      708.261      389.573        0.234        0.073       56.382       18.483        0.107      335.389        5.988      861.510
01/10/2015  09:18:00       26.800       31.035       -5.145       11.486       20.006       10.239      131.924      400.235      104.842        0.117        0.032       41.005        8.157        0.040      335.445        6.083      861.497
01/10/2015  09:19:00       14.592        1.721        6.465       12.188       11.436       11.666      148.542      130.772      136.089        0.034        0.021       14.693       10.480        0.509      335.555        6.265      861.492
01/10/2015  09:20:00       28.901       22.246        2.325       18.388       12.858       12.852      338.130      165.335      165.186        0.100        0.033       36.471        7.745        0.045      335.484        6.150      861.480
01/10/2015  09:21:00       34.961       22.346       -7.690       19.975       15.415       22.625      398.982      237.621      511.885        0.146        0.057       41.492       17.890        0.186      335.448        6.088      861.487
01/10/2015  09:22:00        8.356        9.844      -12.221       15.229       18.550       19.991      231.917      344.106      399.621        0.065        0.049       12.913       13.728        1.130      335.584        6.314      861.482
01/10/2015  09:23:00       -2.284        6.930       21.446        8.498       24.018       12.752       72.218      576.864      162.608        0.066        0.041        7.297       14.661        4.037      335.804        6.682      861.490
01/10/2015  09:24:00       30.440       27.684       20.261       28.356       21.527       23.477      804.049      463.417      551.164        0.196        0.091       41.146       20.632        0.251      335.517        6.202      861.488
01/10/2015  09:25:00       23.565       43.651       28.312       34.798       20.198       21.313     1210.888      407.953      454.240        0.267        0.104       49.605       14.699        0.088      335.568        6.288      861.488
01/10/2015  09:26:00       47.729       69.562       12.296       28.690       16.718       20.254      823.109      279.506      410.230        0.439        0.076       84.362       11.591        0.019      335.477        6.137      861.504
01/10/2015  09:27:00       30.038       36.582       23.434       22.752       22.280       22.124      517.637      496.378      489.469        0.215        0.075       47.334        5.507        0.014      335.577        6.302      861.528
01/10/2015  09:28:00       51.750       45.431        7.663       12.786        9.159       11.909      163.471       83.885      141.820        0.259        0.019       68.863        4.432        0.004      335.451        6.092      861.549
01/10/2015  09:29:00       49.473       40.110        2.207       12.257        9.376       11.444      150.244       87.908      130.955        0.222        0.018       63.690        4.011        0.004      335.479        6.139      861.548
01/10/2015  09:30:00       40.269       29.208        7.683       15.827       18.723       16.987      250.498      350.568      288.554        0.171        0.044       49.746       10.910        0.048      335.515        6.198      861.560
01/10/2015  09:31:00        7.814       -6.200        8.219       18.406       21.389       17.723      338.794      457.479      314.100        0.064        0.056        9.975       12.040        1.457      335.747        6.587      861.558
01/10/2015  09:32:00       -2.075       46.299       55.620       13.956       27.641       15.230      194.757      764.033      231.944        0.322        0.060       46.345       13.605        0.086      335.774        6.633      861.551
01/10/2015  09:33:00       73.196       68.397       17.554       37.164       22.451       32.170     1381.138      504.054     1034.915        0.663        0.146      100.178       20.988        0.044      335.583        6.313      861.555
01/10/2015  09:34:00       42.471       54.806        1.237       21.640       22.243       20.527      468.274      494.765      421.347        0.310        0.069       69.336        8.398        0.015      335.640        6.407      861.553
01/10/2015  09:35:00       75.921       55.254       -2.177       16.083       13.718       16.676      258.671      188.179      278.103        0.477        0.036       93.899        7.118        0.006      335.528        6.222      861.561
01/10/2015  09:36:00       77.690       35.148       -1.567       23.844       18.574       16.551      568.536      345.000      273.931        0.423        0.059       85.271        9.373        0.012      335.572        6.294      861.560
01/10/2015  09:37:00       97.773       52.133       -3.396       29.602       24.040       17.856      876.280      577.910      318.848        0.703        0.089      110.804        6.239        0.003      335.549        6.257      861.563
01/10/2015  09:38:00       14.313       20.947       22.521       17.252       20.552       10.820      297.634      422.387      117.066        0.099        0.042       25.370        7.400        0.085      335.884        6.816      861.578
01/10/2015  09:39:00       14.909       -1.122       27.852       13.800       16.477       13.078      190.439      271.494      171.040        0.082        0.032       14.952       10.927        0.534      335.995        7.000      861.585
01/10/2015  09:40:00       66.005       44.084       19.544       15.905       14.510       15.639      252.964      210.530      244.582        0.369        0.035       79.373        8.577        0.012      335.604        6.350      861.600
01/10/2015  09:41:00       42.512       27.858       17.833       23.406       19.892       24.077      547.843      395.708      579.721        0.221        0.076       50.826       18.080        0.127      335.732        6.562      861.591
01/10/2015  09:42:00       43.093       40.677       18.959       29.547       29.965       23.377      873.020      897.909      546.495        0.309        0.116       59.259       19.623        0.110      335.796        6.669      861.586
01/10/2015  09:43:00       42.387       43.212       -2.997       17.027       12.740       12.502      289.925      162.316      156.307        0.214        0.030       60.530       11.337        0.035      335.633        6.398      861.586
01/10/2015  09:44:00       29.494       30.088        8.888       20.860       15.010       13.633      435.156      225.312      185.855        0.135        0.042       42.133        8.382        0.040      335.787        6.655      861.576
01/10/2015  09:45:00        8.551       37.021        3.846       15.156       16.242       13.877      229.713      263.796      192.577        0.107        0.034       37.995        9.846        0.067      335.861        6.777      861.576
01/10/2015  09:46:00       25.617       26.728       10.659       19.555       18.257       21.098      382.394      333.302      445.125        0.132        0.058       37.022       14.685        0.157      335.905        6.851      861.559
01/10/2015  09:47:00       41.034       43.566       21.002       20.289       16.664       15.955      411.637      277.695      254.552        0.248        0.047       59.848        9.029        0.023      335.851        6.760      861.559
01/10/2015  09:48:00       51.950       59.130       15.542       18.749       18.711       19.460      351.514      350.094      378.704        0.376        0.054       78.709        2.483        0.001      335.806        6.685      861.562
01/10/2015  09:49:00       17.613       31.588       14.814       20.067       23.780       24.135      402.688      565.466      582.496        0.154        0.078       36.166       21.497        0.353      335.996        7.002      861.565
01/10/2015  09:50:00       15.075       17.351       34.205       20.553       20.573       12.671      422.431      423.254      160.548        0.135        0.050       22.985       14.373        0.391      336.221        7.377      861.563
01/10/2015  09:51:00       55.153       54.367       34.573       12.868       11.609       19.520      165.574      134.777      381.026        0.394        0.034       77.445        7.345        0.009      335.780        6.641      861.550
01/10/2015  09:52:00       72.659       60.150       40.835       25.239       18.876       22.826      637.002      356.297      521.018        0.604        0.076       94.326       12.164        0.017      335.777        6.637      861.541
01/10/2015  09:53:00       51.995       55.602       18.669       15.278       15.497       21.280      233.424      240.169      452.848        0.353        0.046       76.125       14.237        0.035      335.857        6.769      861.526
01/10/2015  09:54:00       35.901       48.018       40.570       32.527       22.009       13.977     1058.021      484.381      195.359        0.349        0.087       59.955       13.580        0.051      336.102        7.178      861.520
01/10/2015  09:55:00       65.491       54.888       45.733       39.051       26.198       20.185     1525.000      686.344      407.443        0.601        0.131       85.450       10.385        0.015      336.046        7.083      861.508
01/10/2015  09:56:00       21.345       55.589       30.305       33.454       30.393       34.363     1119.155      923.755     1180.848        0.384        0.161       59.546       27.910        0.220      336.175        7.299      861.512
01/10/2015  09:57:00       48.326       53.535        5.563       30.949       22.859       24.841      957.864      522.529      617.067        0.366        0.105       72.121       14.434        0.040      335.935        6.900      861.504
01/10/2015  09:58:00       40.252       32.256      -11.388       27.396       34.809       21.219      750.538     1211.657      450.240        0.260        0.121       51.581       12.983        0.063      336.048        7.087      861.510
01/10/2015  09:59:00        3.761       45.138       24.402       26.319       33.492       18.718      692.664     1121.733      350.372        0.241        0.108       45.295       14.780        0.106      336.220        7.375      861.510
01/10/2015  10:00:00        9.184       19.598       18.127       22.077       24.875       17.175      487.399      618.790      294.982        0.110        0.070       21.643       12.321        0.324      336.289        7.492      861.517
01/10/2015  10:01:00       27.310       13.919       31.406       31.682       28.532       27.434     1003.742      814.070      752.636        0.225        0.129       30.653       13.562        0.196      336.336        7.569      861.521
01/10/2015  10:02:00       20.435       36.619       52.978       27.576       38.897       25.689      760.434     1512.942      659.909        0.375        0.147       41.935       24.165        0.332      336.146        7.251      861.528
01/10/2015  10:03:00       36.960       32.665       39.858       40.356       38.164       22.701     1628.573     1456.527      515.341        0.381        0.180       49.326        9.098        0.034      336.158        7.271      861.535
01/10/2015  10:04:00       49.890       38.550       -8.806        9.090       17.527       12.749       82.629      307.195      162.526        0.230        0.028       63.048        8.588        0.019      335.879        6.805      861.532
01/10/2015  10:05:00       13.592       17.209      -14.257       11.902       16.814       12.360      141.647      282.722      152.780        0.063        0.029       21.929        7.133        0.106      336.084        7.148      861.516
01/10/2015  10:06:00       67.298       47.042       18.441       32.592       15.969       30.329     1062.255      255.024      919.832        0.466        0.112       82.109       18.260        0.049      336.072        7.127      861.506
01/10/2015  10:07:00       12.775       40.538       32.996       19.996       28.632       28.714      399.829      819.816      824.522        0.247        0.102       42.503       16.709        0.155      336.169        7.289      861.496
01/10/2015  10:08:00       27.937       57.019       42.516       27.358       21.412       23.881      748.453      458.486      570.310        0.381        0.089       63.495       15.935        0.063      336.121        7.209      861.496
01/10/2015  10:09:00       29.984       17.490       25.571       25.646       19.296       14.530      657.722      372.317      211.126        0.155        0.062       34.713       11.816        0.116      336.237        7.403      861.498
01/10/2015  10:10:00       31.704       22.045       31.326       32.459       25.441       24.189     1053.559      647.221      585.121        0.238        0.114       38.615       23.502        0.370      336.208        7.354      861.512
01/10/2015  10:11:00       38.484       23.757        3.336       19.584       11.602       16.478      383.522      134.603      271.529        0.142        0.039       45.226       11.444        0.064      336.083        7.146      861.507
01/10/2015  10:12:00       64.953       41.006       25.740       29.232       23.259       23.514      854.524      540.960      552.906        0.426        0.097       76.814       11.926        0.024      336.163        7.282      861.494
01/10/2015  10:13:00       62.242       45.378       28.923       46.145       40.392       36.150     2129.391     1631.520     1306.818        0.592        0.253       77.027       27.496        0.127      336.235        7.401      861.489
01/10/2015  10:14:00      109.296       70.931       22.731       22.771       29.511       25.507      518.525      870.923      650.608        0.977        0.102      130.295       11.460        0.008      336.097        7.170      861.471
01/10/2015  10:15:00       60.933       46.016        9.305       16.659       19.810       16.486      277.508      392.440      271.776        0.343        0.047       76.357        7.694        0.010      336.059        7.106      861.474
01/10/2015  10:16:00       19.430       18.877       -0.476       25.342       13.885       13.447      642.202      192.800      180.808        0.087        0.051       27.090       13.861        0.262      336.100        7.173      861.460
01/10/2015  10:17:00       23.066       20.892       -4.028       27.346       17.884       11.432      747.795      319.835      130.697        0.109        0.060       31.121       11.671        0.141      336.100        7.176      861.460
01/10/2015  10:18:00      -19.032       13.335       -1.141       16.873       11.133        8.225      284.693      123.949       67.653        0.051        0.024       23.239        4.886        0.044      336.157        7.271      861.445
01/10/2015  10:19:00       10.981        8.810        3.657       20.470       21.057       16.313      419.019      443.414      266.108        0.067        0.056       14.078        9.610        0.466      336.353        7.597      861.441
01/10/2015  10:20:00        0.641       69.608      -11.296       13.019       20.817       18.328      169.489      433.336      335.930        0.296        0.047       69.611       12.189        0.031      336.189        7.323      861.430
01/10/2015  10:21:00       -9.397       80.825      -13.590       16.869       14.976       10.784      284.562      224.274      116.288        0.372        0.031       81.370        8.673        0.011      336.104        7.181      861.437
01/10/2015  10:22:00       -9.693       23.720        7.403       17.931       31.599       17.353      321.511      998.512      301.110        0.117        0.081       25.624       19.493        0.579      336.457        7.772      861.437
01/10/2015  10:23:00        1.245       63.990       -8.260       28.327       32.381       17.767      802.429     1048.531      315.661        0.317        0.108       64.002       21.184        0.110      336.301        7.512      861.437
01/10/2015  10:24:00       30.789       45.936       -2.304       13.477       26.229       16.526      181.638      687.975      273.095        0.210        0.057       55.300       11.786        0.045      336.346        7.585      861.439
01/10/2015  10:25:00       20.833       23.637       -9.832       10.876       15.441       11.374      118.278      238.438      129.357        0.079        0.024       31.507        9.120        0.084      336.283        7.481      861.424
01/10/2015  10:26:00        8.136        2.226       -9.413       14.138       10.698        9.249      199.888      114.450       85.548        0.028        0.020        8.435        4.349        0.266      336.374        7.634      861.424
01/10/2015  10:27:00        3.607        8.363      -10.174       16.564       11.383        7.499      274.379      129.574       56.238        0.032        0.023        9.107        5.117        0.316      336.431        7.728      861.414
01/10/2015  10:28:00       19.311       19.014        3.167       18.314       15.650       19.683      335.415      244.915      387.409        0.086        0.048       27.101        5.580        0.042      336.408        7.688      861.405
01/10/2015  10:29:00       16.514       28.134       12.531       17.965       17.771       18.877      322.746      315.797      356.342        0.111        0.050       32.622       12.964        0.158      336.467        7.789      861.385
01/10/2015  10:30:00        9.182       10.508       42.863       14.698       17.250       10.181      216.037      297.577      103.660        0.132        0.031       13.954        9.604        0.474      336.779        8.309      861.359
01/10/2015  10:31:00       15.867       20.655       28.418       16.572       18.406       13.734      274.634      338.790      188.625        0.114        0.040       26.046       13.314        0.261      336.536        7.904      861.354
01/10/2015  10:32:00        3.518       10.619       17.253       10.674       14.944        9.103      113.928      223.331       82.867        0.042        0.021       11.187        2.014        0.032      336.712        8.198      861.336
01/10/2015  10:33:00       14.000        4.154       14.054       16.072        8.545       14.887      258.308       73.020      221.630        0.048        0.028       14.603       10.387        0.506      336.823        8.383      861.332
01/10/2015  10:34:00       20.120       33.436       29.483       20.713       21.665       15.711      429.043      469.385      246.845        0.177        0.057       39.022       12.334        0.100      336.808        8.359      861.311
01/10/2015  10:35:00        6.084       28.150       37.382       24.891       19.479       19.157      619.577      379.426      366.976        0.180        0.068       28.800       16.887        0.344      336.849        8.427      861.286
01/10/2015  10:36:00       31.135       39.892       48.499       38.609       31.981       17.002     1490.691     1022.803      289.065        0.386        0.140       50.603       15.750        0.097      336.809        8.360      861.275
01/10/2015  10:37:00       51.455       40.328       15.126       30.948       22.793       31.787      957.801      519.527     1010.429        0.349        0.124       65.376       22.829        0.122      336.582        7.980      861.255
01/10/2015  10:38:00       69.733       66.804        5.233       30.784       22.612       23.049      947.676      511.317      531.254        0.567        0.100       96.568       17.189        0.032      336.477        7.804      861.239
01/10/2015  10:39:00       69.677       80.153       17.321       32.294       29.448       27.491     1042.880      867.212      755.747        0.712        0.133      106.204       17.935        0.029      336.528        7.891      861.234
01/10/2015  10:40:00       37.759       31.123       14.710       24.429       30.977       19.323      596.775      959.604      373.393        0.227        0.096       48.932       11.988        0.060      336.724        8.219      861.223
01/10/2015  10:41:00       25.083       28.909       30.965       30.142       23.156       31.801      908.511      536.202     1011.303        0.244        0.123       38.274       12.032        0.099      336.788        8.326      861.227
01/10/2015  10:42:00       21.208       45.469       17.468       24.744       30.833       23.813      612.288      950.686      567.060        0.248        0.107       50.171       13.446        0.072      336.626        8.054      861.209
01/10/2015  10:43:00       14.503      -34.740       11.158       39.802       51.709       31.598     1584.195     2673.839      998.456        0.340        0.263       37.646       19.255        0.262      336.914        8.535      861.202
01/10/2015  10:44:00       48.813      -26.843       -0.709       38.776       77.384       29.078     1503.550     5988.278      845.527        0.572        0.417       55.707       25.473        0.209      336.662        8.115      861.187
01/10/2015  10:45:00       50.896       52.860       15.738       29.461       28.066       29.808      867.939      787.682      888.500        0.409        0.127       73.380       20.604        0.079      336.665        8.119      861.181
01/10/2015  10:46:00       18.362       23.334       10.519       18.730       20.190       16.759      350.816      407.634      280.850        0.102        0.052       29.693       10.943        0.136      336.698        8.175      861.190
01/10/2015  10:47:00       -0.261       34.726       -8.126       15.474       18.198       13.648      239.449      331.153      186.256        0.101        0.038       34.727       10.271        0.087      336.653        8.100      861.182
01/10/2015  10:48:00      -10.571       12.756        2.783        7.112       13.456       11.150       50.578      181.060      124.333        0.032        0.018       16.567        5.043        0.093      336.896        8.505      861.182
01/10/2015  10:49:00       38.544       46.161       20.788       27.848       26.971       24.426      775.520      727.443      596.654        0.307        0.105       60.138       19.484        0.105      336.966        8.623      861.162
01/10/2015  10:50:00       23.717       58.062       45.601       35.209       40.659       51.118     1239.649     1653.154     2613.012        0.576        0.275       62.719       29.212        0.217      337.063        8.785      861.130
01/10/2015  10:51:00       20.733      114.458      102.011       29.499       32.632       21.828      870.163     1064.873      476.472        1.317        0.121      116.321       18.994        0.027      336.770        8.295      861.107
01/10/2015  10:52:00       61.868       44.372       34.353       42.968       53.437       34.708     1846.275     2855.463     1204.633        0.644        0.295       76.135       32.478        0.182      336.712        8.199      861.106
01/10/2015  10:53:00       -2.065       11.678       44.846       15.573       40.822       20.834      242.506     1666.426      434.060        0.225        0.117       11.859       24.057        4.115      336.966        8.623      861.113
01/10/2015  10:54:00       26.319      -26.205       13.793       16.745       18.235       15.100      280.390      332.528      228.008        0.121        0.042       37.140       12.495        0.113      336.793        8.333      861.114
01/10/2015  10:55:00        4.909      -26.264       -4.893        7.181       12.126        8.063       51.561      147.034       65.013        0.050        0.013       26.718        7.002        0.069      336.668        8.124      861.103
01/10/2015  10:56:00       16.406       10.491       11.331       20.052       26.353       18.468      402.085      694.479      341.051        0.097        0.072       19.474       20.778        1.138      336.818        8.376      861.095
01/10/2015  10:57:00       20.601      -13.448       10.807       21.574       28.193       16.536      465.447      794.829      273.433        0.113        0.077       24.602       18.307        0.554      336.999        8.677      861.073
01/10/2015  10:58:00        4.630       10.520       23.686       17.930       23.100       14.202      321.470      533.593      201.686        0.087        0.053       11.494       12.761        1.233      337.239        9.080      861.065
01/10/2015  10:59:00       34.769       65.883       -0.916       23.632       28.624       25.763      558.452      819.347      663.709        0.380        0.102       74.494       22.959        0.095      336.823        8.384      861.064
01/10/2015  11:00:00       70.944       54.616        4.456       28.196       22.363       18.422      795.030      500.109      339.373        0.483        0.082       89.532       14.586        0.027      336.793        8.334      861.056
01/10/2015  11:01:00       63.469       60.545       10.593       19.574       14.429       21.807      383.145      208.188      475.556        0.444        0.053       87.716        6.565        0.006      336.756        8.274      861.051
01/10/2015  11:02:00       34.061       32.450        7.192       16.772       12.313       21.715      281.308      151.606      471.548        0.158        0.045       47.045       10.838        0.053      336.822        8.382      861.046
01/10/2015  11:03:00       54.702       40.388       16.127       22.614       29.968       27.136      511.401      898.100      736.386        0.351        0.107       67.996       17.248        0.064      336.933        8.567      861.027
01/10/2015  11:04:00       60.379       48.583        6.734       64.720       41.830       35.073     4188.633     1749.781     1230.105        0.661        0.358       77.498       33.184        0.183      337.027        8.723      861.008
01/10/2015  11:05:00       44.935       69.083       61.845       44.756       44.631       45.771     2003.101     1991.891     2095.008        0.835        0.305       82.411       40.948        0.247      336.885        8.487      861.001
01/10/2015  11:06:00        5.354       37.983       54.057       18.003       19.426       14.155      324.100      377.357      200.364        0.265        0.045       38.358       11.957        0.097      336.924        8.552      860.979
01/10/2015  11:07:00        3.335       12.482       27.345       19.098       18.049       11.525      364.723      325.768      132.817        0.087        0.041       12.920       12.102        0.877      337.290        9.165      860.989
01/10/2015  11:08:00       -4.235       -9.842        1.840        7.289        9.914        8.059       53.127       98.297       64.947        0.017        0.011       10.714        5.687        0.282      337.130        8.898      860.996
01/10/2015  11:09:00       -7.065       -9.535       11.348       14.434       22.029       14.933      208.332      485.265      222.999        0.059        0.046       11.867       14.381        1.468      337.199        9.011      860.980
01/10/2015  11:10:00       -7.496      -27.026       34.046       16.440       36.080       20.064      270.260     1301.781      402.551        0.196        0.099       28.046       16.738        0.356      337.244        9.087      860.958
01/10/2015  11:11:00        1.769       17.547       41.043       12.985       23.095       16.039      168.615      533.384      257.254        0.148        0.048       17.636       16.824        0.910      337.261        9.117      860.945
01/10/2015  11:12:00        8.653       40.685       56.994       26.956       29.115       21.075      726.619      847.654      444.161        0.350        0.101       41.595       18.725        0.203      337.194        9.004      860.926
01/10/2015  11:13:00       15.293       84.691       84.461       37.388       40.740       33.030     1397.852     1659.775     1090.969        0.934        0.207       86.061       23.086        0.072      337.071        8.798      860.898
01/10/2015  11:14:00       80.805       34.395       56.562       63.168       51.298       41.005     3990.248     2631.518     1681.369        0.961        0.415       87.821       45.103        0.264      336.994        8.668      860.868
01/10/2015  11:15:00       18.885       59.661       69.403       44.399       47.577       37.955     1971.238     2263.548     1440.565        0.720        0.284       62.578       35.425        0.320      337.048        8.758      860.859
01/10/2015  11:16:00       45.508       42.823       32.194       46.627       29.097       35.394     2174.079      846.620     1252.713        0.461        0.214       62.488       31.119        0.248      337.024        8.717      860.858
01/10/2015  11:17:00       31.523       93.038       92.638       47.529       41.264       36.132     2259.026     1702.725     1305.514        1.175        0.263       98.233       31.265        0.101      337.061        8.780      860.841
01/10/2015  11:18:00       56.587       87.976       70.225       37.088       27.654       24.063     1375.486      764.753      579.030        0.930        0.136      104.604       16.219        0.024      336.936        8.570      860.830
01/10/2015  11:19:00       15.124       54.247       71.140       36.307       32.482       24.094     1318.218     1055.086      580.504        0.559        0.148       56.316       20.769        0.136      337.029        8.727      860.827
01/10/2015  11:20:00       36.152       16.555       38.150       43.933       38.135       32.641     1930.083     1454.300     1065.458        0.374        0.222       39.762       24.789        0.389      337.171        8.965      860.814
01/10/2015  11:21:00       63.266       28.518       23.060       35.533       29.638       31.826     1262.618      878.397     1012.914        0.425        0.158       69.397       21.578        0.097      337.038        8.742      860.786
01/10/2015  11:22:00       86.488       75.283       71.780       50.384       41.116       43.631     2538.573     1690.512     1903.647        1.222        0.307      114.663       36.836        0.103      337.025        8.721      860.755
01/10/2015  11:23:00       80.456       30.646       35.853       38.926       41.082       36.360     1515.215     1687.718     1322.026        0.661        0.226       86.095       23.455        0.074      337.024        8.718      860.735
01/10/2015  11:24:00       67.299       57.197       26.593       44.611       26.520       39.732     1990.138      703.292     1578.643        0.639        0.214       88.321       34.480        0.152      337.057        8.774      860.720
01/10/2015  11:25:00       55.305       61.618       43.758       32.143       27.625       19.988     1033.147      763.159      399.531        0.548        0.110       82.798        7.854        0.009      337.130        8.896      860.711
01/10/2015  11:26:00        6.129       15.977       44.667       20.801       30.663       16.928      432.696      940.233      286.542        0.197        0.083       17.112       17.287        1.020      337.397        9.342      860.696
01/10/2015  11:27:00      107.556       84.849       40.665       55.663       29.901       21.328     3098.392      894.057      454.885        1.243        0.222      136.995       24.660        0.032      337.073        8.801      860.674
01/10/2015  11:28:00       84.357       85.957        9.848       28.655       40.053       35.405      821.137     1604.205     1253.542        0.914        0.184      120.436       29.922        0.062      337.099        8.844      860.657
01/10/2015  11:29:00       75.527       64.711       23.304       21.814       26.569       23.876      475.832      705.938      570.066        0.609        0.088       99.457        8.313        0.007      337.199        9.013      860.651
01/10/2015  11:30:00      101.195       55.746       26.690       41.208       27.487       33.270     1698.119      755.528     1106.911        0.881        0.178      115.534       19.811        0.029      337.332        9.235      860.644
01/10/2015  11:31:00       78.757       52.828       20.611       54.653       41.981       37.316     2986.938     1762.446     1392.516        0.778        0.307       94.834       37.116        0.153      337.246        9.091      860.637
01/10/2015  11:32:00       70.070       64.526       59.602       59.036       39.714       41.818     3485.207     1577.201     1748.753        0.972        0.341       95.254       41.179        0.187      337.371        9.300      860.620
01/10/2015  11:33:00       54.453       54.105       16.425       39.171       31.432       22.782     1534.383      987.960      519.041        0.460        0.152       76.763       15.855        0.043      337.263        9.118      860.607
01/10/2015  11:34:00      118.121       83.844       59.534       72.940       49.761       44.319     5320.249     2476.164     1964.155        1.714        0.488      144.853       35.486        0.060      337.372        9.301      860.589
01/10/2015  11:35:00       36.162       27.181       58.601       44.687       53.986       26.671     1996.888     2914.489      711.324        0.555        0.281       45.238       31.702        0.491      337.564        9.623      860.581
01/10/2015  11:36:00       42.821       86.722       72.716       41.720       35.327       35.574     1740.561     1248.000     1265.526        0.945        0.213       96.718       29.583        0.094      337.399        9.346      860.560
01/10/2015  11:37:00       30.171       58.974       58.509       41.589       31.637       45.416     1729.657     1000.921     2062.577        0.630        0.240       66.244       30.638        0.214      337.412        9.368      860.528
01/10/2015  11:38:00       61.861       79.075       54.461       60.889       50.880       57.218     3707.526     2588.758     3273.902        1.131        0.479      100.398       48.953        0.238      337.459        9.447      860.509
01/10/2015  11:39:00       59.600       62.271       69.815       68.469       51.596       39.026     4688.019     2662.194     1523.045        1.059        0.444       86.196       33.437        0.150      337.547        9.595      860.495
01/10/2015  11:40:00       56.459       38.887       34.813       43.846       37.102       34.889     1922.467     1376.575     1217.222        0.521        0.226       68.555       20.558        0.090      337.318        9.212      860.489
01/10/2015  11:41:00       48.562      -82.960        5.644       47.667       55.768       31.579     2272.163     3110.015      997.260        0.782        0.319       96.128       16.746        0.030      337.563        9.622      860.478
01/10/2015  11:42:00       20.668      -21.887       11.252       31.679       53.376       32.476     1003.567     2849.026     1054.720        0.297        0.245       30.103       16.691        0.307      337.669        9.800      860.464
01/10/2015  11:43:00       17.936       -7.581       24.033       36.023       47.992       36.295     1297.632     2303.218     1317.361        0.294        0.246       19.473       21.184        1.183      337.834       10.076      860.467
01/10/2015  11:44:00       86.329       57.795       29.845       61.905       42.903       50.413     3832.288     1840.628     2541.440        0.995        0.411      103.890       39.477        0.144      337.496        9.510      860.470
01/10/2015  11:45:00       61.261       33.450       38.150       46.850       36.619       43.155     2194.941     1340.934     1862.356        0.586        0.270       69.798       37.480        0.288      337.490        9.499      860.471
01/10/2015  11:46:00       96.571       87.861       55.352       60.589       34.873       41.755     3670.999     1216.116     1743.478        1.337        0.332      130.559       31.218        0.057      337.483        9.487      860.456
01/10/2015  11:47:00       50.981       52.014       66.366       39.345       51.020       36.994     1548.040     2603.074     1368.570        0.761        0.276       72.832       30.673        0.177      337.492        9.501      860.458
01/10/2015  11:48:00      123.626       55.176       53.724       69.606       56.535       60.180     4845.044     3196.222     3621.590        1.644        0.583      135.380       43.491        0.103      337.468        9.462      860.429
01/10/2015  11:49:00       89.385       55.385       52.795       70.026       63.306       35.847     4903.633     4007.655     1285.028        1.202        0.510      105.153       25.649        0.059      337.581        9.650      860.412
01/10/2015  11:50:00       18.469       20.442       27.696       26.487       45.508       34.268      701.552     2070.970     1174.322        0.274        0.197       27.549       27.421        0.991      337.550        9.601      860.408
01/10/2015  11:51:00       25.449      -19.564       22.854       57.822       60.602       32.627     3343.428     3672.635     1064.491        0.481        0.404       32.099       33.583        1.095      337.737        9.913      860.402
01/10/2015  11:52:00       93.816       89.075       62.916       72.108       59.939       42.766     5199.566     3592.689     1828.955        1.566        0.531      129.367       32.139        0.062      337.683        9.824      860.396
01/10/2015  11:53:00       80.031       99.039       78.791       41.360       29.185       36.355     1710.621      851.754     1321.719        1.315        0.194      127.332       26.360        0.043      337.432        9.402      860.402
01/10/2015  11:54:00       53.064       61.785       60.088       44.151       37.282       47.559     1949.300     1389.969     2261.847        0.792        0.280       81.444       35.578        0.191      337.507        9.530      860.405
01/10/2015  11:55:00      103.389       97.631       63.329       47.863       41.368       44.040     2290.900     1711.327     1939.536        1.509        0.297      142.201       33.712        0.056      337.606        9.695      860.398
01/10/2015  11:56:00        0.297       -3.803       22.643       54.809       39.317       25.638     3003.991     1545.810      657.319        0.287        0.260        3.814       25.915       46.158      337.941       10.255      860.397
01/10/2015  11:57:00       78.214      -91.245       -3.018       60.448       51.337       27.411     3653.966     2635.500      751.342        1.075        0.352      120.179       28.482        0.056      337.652        9.772      860.403
01/10/2015  11:58:00       45.381       -1.868       40.577       57.504       41.959       29.148     3306.687     1760.550      849.587        0.481        0.296       45.419       30.383        0.447      337.854       10.109      860.408
01/10/2015  11:59:00       80.982       61.571       60.594       63.481       41.122       30.956     4029.835     1691.020      958.268        1.035        0.334      101.730       24.398        0.058      337.668        9.798      860.391
01/10/2015  12:00:00      113.576       66.832       12.167       37.407       37.027       36.003     1399.269     1370.999     1296.231        1.079        0.203      131.780       19.968        0.023      337.453        9.436      860.371
01/10/2015  12:01:00       87.519       75.471       15.680       44.431       29.324       39.879     1974.082      859.887     1590.348        0.901        0.221      115.566       22.260        0.037      337.476        9.475      860.367
01/10/2015  12:02:00        7.724       29.593       -6.760       19.421       54.564       18.657      377.187     2977.234      348.090        0.234        0.185       30.585       21.659        0.501      337.641        9.753      860.363
01/10/2015  12:03:00       29.566      -38.710        6.550       25.052       16.737       21.950      627.609      280.121      481.787        0.190        0.069       48.709        9.387        0.037      337.629        9.732      860.350
01/10/2015  12:04:00        2.319       -8.260       19.144       10.697       22.446        9.976      114.421      503.838       99.525        0.058        0.036        8.579       11.787        1.888      338.008       10.368      860.344
01/10/2015  12:05:00       44.876       41.346       42.817       43.817       30.094       23.210     1919.887      905.662      538.697        0.446        0.168       61.019       15.250        0.062      337.972       10.308      860.330
01/10/2015  12:06:00       60.093       74.445       55.071       49.503       25.914       35.371     2450.585      671.539     1251.082        0.828        0.219       95.672       29.155        0.093      337.801       10.021      860.326
01/10/2015  12:07:00      118.351      117.288       86.338       51.960       44.357       44.181     2699.808     1967.569     1951.942        2.092        0.331      166.623       29.421        0.031      337.758        9.948      860.304
01/10/2015  12:08:00       93.096       90.669       68.640       54.432       32.933       36.059     2962.820     1084.568     1300.236        1.347        0.267      129.952       27.914        0.046      337.715        9.876      860.295
01/10/2015  12:09:00        5.538       -3.674       36.844       23.511       32.361       29.204      552.785     1047.257      852.885        0.193        0.123        6.646       18.158        7.464      338.100       10.521      860.303
01/10/2015  12:10:00       25.830      -29.446       29.238       47.280       96.470       49.424     2235.355     9306.510     2442.756        0.818        0.699       39.170       66.447        2.878      338.023       10.391      860.300
01/10/2015  12:11:00       66.583      -69.030        7.190       54.137       80.753       44.397     2930.823     6520.970     1971.097        1.033        0.571       95.909       44.590        0.216      337.913       10.208      860.299
01/10/2015  12:12:00       89.363     -122.276       -5.160       58.006       35.762       34.008     3364.725     1278.893     1156.572        1.438        0.290      151.450       37.571        0.062      337.785        9.992      860.305
01/10/2015  12:13:00        6.403       27.033       49.694       41.159       67.430       54.079     1694.086     4546.860     2924.496        0.620        0.458       27.781       48.498        3.047      338.030       10.405      860.304
01/10/2015  12:14:00       10.062       -0.427       60.836       27.319       47.540       26.517      746.304     2260.039      703.132        0.376        0.185       10.071       26.857        7.112      338.105       10.531      860.294
01/10/2015  12:15:00       45.398       29.994       62.163       49.767       63.124       34.371     2476.724     3984.628     1181.331        0.723        0.382       54.412       27.701        0.259      338.015       10.379      860.281
01/10/2015  12:16:00       21.539       -9.523       27.162       35.854       68.959       38.388     1285.476     4755.288     1473.666        0.440        0.376       23.550       34.697        2.171      338.004       10.361      860.267
01/10/2015  12:17:00       73.516      -87.463        3.892       46.637       60.112       50.062     2174.978     3613.484     2506.191        1.068        0.415      114.256       42.532        0.139      337.910       10.204      860.260
01/10/2015  12:18:00       58.269       36.787       60.397       68.859       93.298       49.904     4741.532     8704.535     2490.450        1.216        0.797       68.910       58.299        0.716      337.968       10.299      860.249
01/10/2015  12:19:00      130.106       87.238       26.727       45.985       29.666       37.465     2114.638      880.067     1403.656        1.482        0.220      156.646       17.299        0.012      337.766        9.962      860.237
01/10/2015  12:20:00       68.018       38.413       18.792       45.568       53.418       44.481     2076.465     2853.485     1978.527        0.668        0.345       78.116       30.701        0.154      337.917       10.215      860.220
01/10/2015  12:21:00       21.015       35.794       54.611       40.397       41.410       29.276     1631.954     1714.778      857.113        0.445        0.210       41.507       23.226        0.313      338.074       10.478      860.210
01/10/2015  12:22:00       13.885       17.309       40.460       37.510       46.684       33.634     1407.013     2179.391     1131.279        0.342        0.236       22.190       29.830        1.807      338.165       10.632      860.202
01/10/2015  12:23:00       73.023       32.348       48.661       35.080       49.731       44.178     1230.612     2473.214     1951.717        0.720        0.283       79.867       31.900        0.160      337.921       10.221      860.184
01/10/2015  12:24:00       16.131       39.042       53.446       28.686       29.595       18.005      822.899      875.890      324.186        0.333        0.101       42.243       14.974        0.126      338.053       10.444      860.174
01/10/2015  12:25:00       47.530       60.064       49.057       50.709       28.997       38.042     2571.408      840.814     1447.182        0.657        0.243       76.595       34.642        0.205      337.983       10.327      860.165
01/10/2015  12:26:00       16.122      -23.163       19.963       37.141       50.842       29.478     1379.468     2584.900      868.978        0.301        0.242       28.221       33.329        1.395      338.189       10.671      860.165
01/10/2015  12:27:00       24.245       -6.682       36.663       31.340       45.892       26.929      982.225     2106.061      725.182        0.289        0.191       25.149       29.815        1.405      338.266       10.801      860.164
01/10/2015  12:28:00       85.226       61.400       20.012       34.918       29.922       26.865     1219.265      895.336      721.708        0.713        0.142      105.040       16.347        0.024      337.931       10.239      860.151
01/10/2015  12:29:00       86.089       59.017       18.885       38.414       25.716       25.326     1475.658      661.329      641.403        0.701        0.139      104.376       18.463        0.031      337.906       10.197      860.131
01/10/2015  12:30:00      117.791       66.368       31.415       49.806       33.222       39.587     2480.630     1103.679     1567.149        1.221        0.258      135.201       27.243        0.041      337.897       10.183      860.113
01/10/2015  12:31:00       -0.455       58.220       87.724       32.607       40.368       25.565     1063.238     1629.550      653.591        0.722        0.167       58.222       27.450        0.222      338.140       10.590      860.092
01/10/2015  12:32:00      -10.350       31.295       64.897       14.507       27.693       20.989      210.466      766.919      440.543        0.336        0.071       32.962       17.960        0.297      338.216       10.718      860.076
01/10/2015  12:33:00       43.063       34.366        8.033       30.097       30.493       28.124      905.835      929.830      790.947        0.286        0.131       55.095       15.728        0.081      338.062       10.459      860.075
01/10/2015  12:34:00       47.197       45.785        0.197       47.732       22.874       20.241     2278.334      523.204      409.681        0.377        0.161       65.756       11.251        0.029      337.972       10.308      860.070
01/10/2015  12:35:00       59.592       54.597        1.600       27.767       33.625       24.443      770.985     1130.668      597.455        0.452        0.125       80.821       18.094        0.050      338.016       10.382      860.067
01/10/2015  12:36:00       52.241       46.213       37.156       32.141       25.876       33.842     1033.017      669.565     1145.307        0.455        0.142       69.748       19.992        0.082      338.150       10.606      860.058
01/10/2015  12:37:00       74.505       35.051       23.078       26.268       28.335       28.062      690.001      802.853      787.489        0.480        0.114       82.338       20.206        0.060      338.064       10.461      860.049
01/10/2015  12:38:00       20.054       18.411       12.653       21.774       31.789       13.008      474.097     1010.559      169.195        0.128        0.083       27.224        9.938        0.133      338.188       10.670      860.041
01/10/2015  12:39:00       13.668       44.588       44.013       24.959       32.720       34.035      622.968     1070.580     1158.397        0.348        0.143       46.636       25.339        0.295      338.241       10.759      860.025
01/10/2015  12:40:00       12.813       24.293       29.978       26.316       24.207       29.442      692.547      585.980      866.847        0.190        0.107       27.465       22.529        0.673      338.350       10.941      860.008
01/10/2015  12:41:00        7.040       32.617       62.104       26.338       36.250       24.288      693.678     1314.037      589.885        0.378        0.130       33.368       22.031        0.436      338.356       10.952      859.995
01/10/2015  12:42:00       30.058      -24.480       20.076       37.862       41.866       40.153     1433.495     1752.797     1612.299        0.335        0.240       38.765       26.124        0.454      338.329       10.906      859.980
01/10/2015  12:43:00       97.859     -133.943      -14.191       31.911       36.607       23.346     1018.281     1340.077      545.054        1.531        0.145      165.883       19.020        0.013      338.138       10.586      859.967
01/10/2015  12:44:00       74.305      -55.879       18.392       40.227       65.683       34.285     1618.237     4314.209     1175.475        0.804        0.355       92.972       46.766        0.253      338.174       10.646      859.965
01/10/2015  12:45:00       62.813       68.928       62.181       40.457       33.083       27.524     1636.736     1094.503      757.583        0.803        0.174       93.255       21.654        0.054      338.205       10.698      859.964
01/10/2015  12:46:00       17.466       15.778       45.650       35.960       33.750       25.713     1293.133     1139.050      661.133        0.287        0.155       23.538       26.862        1.302      338.361       10.960      859.954
01/10/2015  12:47:00       45.803      -20.519       31.139       46.005       51.258       41.541     2116.479     2627.419     1725.662        0.498        0.323       50.189       41.250        0.676      338.358       10.955      859.954
01/10/2015  12:48:00       43.267      -51.806       12.937       41.699       73.926       35.665     1738.795     5465.089     1272.008        0.660        0.424       67.497       45.454        0.453      338.296       10.850      859.932
01/10/2015  12:49:00       41.658      -38.925       14.046       51.953       56.183       37.920     2699.080     3156.550     1437.893        0.537        0.365       57.014       33.027        0.336      338.374       10.979      859.902
01/10/2015  12:50:00       45.128      -34.381       24.255       43.826       59.630       50.282     1920.732     3555.734     2528.308        0.590        0.400       56.733       37.348        0.433      338.342       10.929      859.884
01/10/2015  12:51:00       37.447      -33.687       30.827       49.814       58.698       38.578     2481.436     3445.430     1488.273        0.545        0.371       50.370       35.464        0.496      338.393       11.014      859.876
01/10/2015  12:52:00       -4.731       13.984       66.671       23.615       65.186       47.397      557.669     4249.269     2246.458        0.586        0.353       14.763       50.823       11.852      338.325       10.901      859.857
01/10/2015  12:53:00       50.265      -57.413        0.329       38.937       58.959       39.499     1516.126     3476.204     1560.161        0.619        0.328       76.308       36.789        0.232      338.359       10.957      859.839
01/10/2015  12:54:00       12.070      -29.496       22.592       25.595       38.880       24.426      655.124     1511.641      596.643        0.214        0.138       31.870       21.526        0.456      338.478       11.157      859.825
01/10/2015  12:55:00       50.247      -64.186        4.475       45.652       55.145       37.700     2084.094     3040.952     1421.254        0.660        0.327       81.515       39.644        0.237      338.295       10.850      859.820
01/10/2015  12:56:00       68.151      -79.845       -8.819       53.208       57.108       33.082     2831.106     3261.318     1094.433        0.914        0.359      104.975       35.309        0.113      338.209       10.705      859.808
01/10/2015  12:57:00       90.615     -102.183      -29.403       22.876       30.398       15.416      523.320      924.011      237.651        1.060        0.084      136.574        4.343        0.001      338.160       10.623      859.797
01/10/2015  12:58:00       89.036      -80.915      -14.020       24.206       32.937       15.800      585.948     1084.848      249.624        0.830        0.096      120.311       10.069        0.007      338.148       10.601      859.789
01/10/2015  12:59:00       78.982      -74.966      -17.665       26.414       27.153       18.939      697.718      737.292      358.679        0.698        0.090      108.895       18.059        0.028      338.195       10.682      859.777
01/10/2015  13:00:00       78.046      -98.209      -19.246       27.915       26.265       15.713      779.256      689.872      246.892        0.891        0.086      125.444        9.407        0.006      338.233       10.746      859.768
01/10/2015  13:01:00       25.836      -24.283        2.737       38.823       31.555       33.121     1507.220      995.707     1096.988        0.243        0.180       35.457       31.078        0.768      338.399       11.023      859.752
01/10/2015  13:02:00       59.387      -51.783       -2.360       29.423       33.389       26.621      865.726     1114.797      708.690        0.445        0.134       78.793       27.809        0.125      338.287       10.837      859.739
01/10/2015  13:03:00       23.834        4.032       26.792       37.676       31.566       27.219     1419.509      996.420      740.886        0.223        0.158       24.172       21.233        0.772      338.430       11.076      859.739
01/10/2015  13:04:00       43.604      -51.711       -4.534       50.011       40.003       28.534     2501.139     1600.235      814.192        0.475        0.246       67.641       25.517        0.142      338.418       11.057      859.734
01/10/2015  13:05:00       -5.134      -28.830       -1.313       21.687       28.615       20.614      470.322      818.815      424.923        0.129        0.086       29.284       20.799        0.504      338.549       11.274      859.732
01/10/2015  13:06:00       -1.661        0.415       13.493       12.193       11.928       10.151      148.671      142.275      103.049        0.029        0.020        1.712        5.748       11.267      338.660       11.463      859.737
01/10/2015  13:07:00      -11.110        0.272      -10.212       22.016       26.783       16.836      484.700      717.320      283.450        0.086        0.074       11.113       12.219        1.209      338.514       11.217      859.731
01/10/2015  13:08:00        1.215       -6.323       16.489       31.262       22.584       17.339      977.341      510.034      300.651        0.105        0.089        6.439       16.059        6.221      338.572       11.316      859.725
01/10/2015  13:09:00        2.134        5.012       44.839       21.340       35.510       21.534      455.416     1260.979      463.699        0.211        0.109        5.447       20.914       14.740      338.625       11.402      859.711
01/10/2015  13:10:00      -36.773        9.321       51.508       25.461       50.843       29.814      648.261     2584.972      888.860        0.411        0.206       37.936       32.033        0.713      338.553       11.281      859.697
01/10/2015  13:11:00       66.973     -133.775       -9.179       30.618       45.669       25.732      937.470     2085.615      662.138        1.307        0.184      149.603       14.499        0.009      338.385       11.001      859.683
01/10/2015  13:12:00       37.628      -24.396       29.381       45.129       55.470       31.139     2036.652     3076.966      969.636        0.448        0.304       44.845       32.729        0.533      338.555       11.286      859.663
01/10/2015  13:13:00       11.060       17.707       39.066       38.189       34.427       23.159     1458.399     1185.195      536.317        0.257        0.159       20.877       13.820        0.438      338.532       11.247      859.640
01/10/2015  13:14:00       -2.531      -50.719       16.534       23.961       47.142       34.162      574.152     2222.339     1167.026        0.341        0.198       50.782       26.950        0.282      338.567       11.305      859.634
01/10/2015  13:15:00        9.590      -57.534       18.579       41.853       46.450       39.137     1751.642     2157.610     1531.716        0.459        0.272       58.327       33.098        0.322      338.535       11.252      859.627
01/10/2015  13:16:00      -25.606      -29.042       16.939       22.871       31.458       21.866      523.076      989.637      478.141        0.189        0.100       38.718       12.431        0.103      338.565       11.303      859.619
01/10/2015  13:17:00      -12.016      -34.784        0.590       17.350       39.903       17.602      301.037     1592.219      309.842        0.178        0.110       36.800       16.870        0.210      338.606       11.372      859.615
01/10/2015  13:18:00      -13.606      -20.427       10.945       17.930       21.751       15.981      321.472      473.091      255.382        0.089        0.052       24.543       13.636        0.309      338.680       11.495      859.608
01/10/2015  13:19:00       -8.510       13.426       23.847       27.247       15.285       19.567      742.417      233.616      382.878        0.109        0.068       15.896       17.123        1.160      338.711       11.547      859.603
01/10/2015  13:20:00       -2.663      -21.858       -3.442       27.985       19.675       16.262      783.160      387.123      264.451        0.097        0.072       22.020       14.734        0.448      338.616       11.388      859.599
01/10/2015  13:21:00      -19.426       -0.112        2.753       21.438       11.350       15.166      459.567      128.827      230.022        0.060        0.041       19.427        5.563        0.082      338.676       11.489      859.589
01/10/2015  13:22:00      -20.821        8.402        5.288       26.015       20.102       23.791      676.806      404.109      566.008        0.109        0.082       22.453       15.301        0.464      338.666       11.472      859.582
01/10/2015  13:23:00      -24.024      -10.987        4.963       21.423       19.967       18.162      458.948      398.698      329.872        0.095        0.059       26.417       15.128        0.328      338.640       11.428      859.572
01/10/2015  13:24:00       55.108      -59.016        0.098       26.197       23.759       22.681      686.306      564.498      514.441        0.414        0.088       80.746       10.095        0.016      338.493       11.183      859.561
01/10/2015  13:25:00       15.076       -8.036       26.928       29.525       37.709       20.146      871.725     1421.932      405.869        0.186        0.135       17.084       25.631        2.251      338.648       11.443      859.555
01/10/2015  13:26:00        8.610      -31.404       -2.527        9.666       14.066       10.896       93.424      197.866      118.729        0.074        0.021       32.563        7.588        0.054      338.512       11.214      859.537
01/10/2015  13:27:00        5.781      -16.723       10.197        8.276       21.430       15.735       68.495      459.227      247.588        0.060        0.039       17.694       16.181        0.836      338.703       11.533      859.517
01/10/2015  13:28:00      -19.545       25.581        4.855       23.195       37.133       14.015      538.000     1378.877      196.418        0.159        0.106       32.193        4.187        0.017      338.613       11.384      859.511
01/10/2015  13:29:00       -4.764       61.996       -6.655        9.459       26.427       10.393       89.477      698.400      108.005        0.240        0.045       62.178        6.340        0.010      338.487       11.171      859.501
01/10/2015  13:30:00        7.865       60.044       -3.678       18.015       23.724       15.231      324.529      562.807      231.994        0.240        0.056       60.557       15.918        0.069      338.518       11.225      859.502
01/10/2015  13:31:00       15.475       35.463       -5.011       18.084       27.936       19.162      327.034      780.415      367.195        0.150        0.074       38.692       16.090        0.173      338.596       11.356      859.494
01/10/2015  13:32:00        6.753       23.932        1.679       17.883       16.522       17.053      319.803      272.982      290.819        0.075        0.044       24.867       15.401        0.384      338.678       11.493      859.485
01/10/2015  13:33:00        3.936       12.281        6.245       12.224       10.700       12.900      149.428      114.480      166.407        0.032        0.022       12.896        8.449        0.429      338.782       11.666      859.482
01/10/2015  13:34:00        8.564       11.212       13.380        7.540        8.118        9.488       56.857       65.899       90.020        0.030        0.011       14.109        4.418        0.098      338.799       11.695      859.479
01/10/2015  13:35:00      -12.569        3.009       -0.157       13.230        6.015        7.251      175.040       36.181       52.581        0.022        0.013       12.924        5.960        0.213      338.744       11.603      859.474
01/10/2015  13:36:00      -45.769       -7.720       -9.066       11.705       10.238        6.769      137.003      104.809       45.826        0.126        0.014       46.416        5.181        0.012      338.649       11.443      859.458
01/10/2015  13:37:00      -15.806        2.147        6.253       15.943        7.817       12.937      254.192       61.108      167.374        0.039        0.024       15.951       12.637        0.628      338.938       11.930      859.454
01/10/2015  13:38:00      -17.001      -26.864       -3.166       17.196       13.472       11.887      295.702      181.502      141.309        0.082        0.031       31.791        9.015        0.080      338.756       11.625      859.450
01/10/2015  13:39:00      -14.466       -2.122       14.011       17.220       21.486       14.651      296.516      461.643      214.660        0.069        0.049       14.621        8.741        0.357      338.926       11.909      859.453
01/10/2015  13:40:00       21.096       -0.981       17.760       28.429       24.882       17.651      808.198      619.111      311.570        0.125        0.087       21.119       20.364        0.930      338.934       11.924      859.439
01/10/2015  13:41:00       -3.278       -2.076       12.651       20.505       26.140       21.195      420.464      683.300      449.208        0.086        0.078        3.880       15.836       16.658      339.022       12.070      859.417
01/10/2015  13:42:00      -25.340       12.128       10.062       26.879       16.526       19.886      722.495      273.110      395.445        0.114        0.070       28.092       20.124        0.513      338.965       11.977      859.410
01/10/2015  13:43:00      -53.446      -20.784        1.621       45.515       33.757       19.112     2071.643     1139.529      365.256        0.343        0.179       57.345       24.535        0.183      338.927       11.911      859.409
01/10/2015  13:44:00      -47.122      -45.843        6.294       49.648       30.888       19.870     2464.927      954.090      394.806        0.409        0.191       65.743       10.974        0.028      338.856       11.791      859.404
01/10/2015  13:45:00      -42.711      -57.804      -10.257       35.094       45.833       20.500     1231.584     2100.658      420.266        0.451        0.188       71.871       20.793        0.084      338.859       11.796      859.396
01/10/2015  13:46:00      -27.030      -20.005       15.934       45.471       27.957       23.178     2067.648      781.585      537.204        0.238        0.169       33.628       23.096        0.472      339.208       12.384      859.386
01/10/2015  13:47:00      -93.919      -76.181       -5.825       50.968       38.234       28.324     2597.713     1461.815      802.229        0.976        0.243      120.931       23.206        0.037      338.753       11.619      859.383
01/10/2015  13:48:00      -69.054      -42.150        9.902       24.277       38.209       28.856      589.381     1459.953      832.656        0.476        0.144       80.902       22.369        0.076      338.800       11.699      859.381
01/10/2015  13:49:00      -51.322      -42.760        2.302       33.584       48.981       24.939     1127.904     2399.170      621.934        0.431        0.207       66.801       17.007        0.065      338.713       11.553      859.367
01/10/2015  13:50:00      -46.225       -8.691       -0.463       38.573       20.767       16.502     1487.852      431.254      272.320        0.220        0.110       47.035       20.346        0.187      339.137       12.266      859.358
01/10/2015  13:51:00      -63.906      -73.465        0.087       33.849       23.896       22.237     1145.760      571.039      494.479        0.585        0.111       97.371       20.445        0.044      338.856       11.792      859.354
01/10/2015  13:52:00      -71.690      -63.035       -7.098       30.382       32.374       23.311      923.040     1048.100      543.409        0.584        0.126       95.461       19.254        0.041      338.842       11.768      859.339
01/10/2015  13:53:00      -34.410       -9.504      -11.291       22.304       14.515       19.485      497.452      210.693      379.649        0.124        0.054       35.699       12.361        0.120      339.038       12.097      859.328
01/10/2015  13:54:00      -10.167      -15.698       -2.035       18.198       17.590       12.631      331.150      309.407      159.549        0.058        0.040       18.703        7.011        0.141      339.263       12.477      859.325
01/10/2015  13:55:00       43.000      -48.841       12.059       55.605       57.883       35.287     3091.954     3350.490     1245.181        0.603        0.384       65.073       34.453        0.280      339.231       12.422      859.302
01/10/2015  13:56:00       -0.973       38.790       69.635       26.034       35.290       27.682      677.758     1245.367      766.319        0.452        0.134       38.803       25.364        0.427      339.364       12.646      859.306
01/10/2015  13:57:00      -19.134       -6.657       16.695       19.153       23.488       19.699      366.853      551.687      388.047        0.100        0.065       20.259       19.590        0.935      339.509       12.891      859.298
01/10/2015  13:58:00        6.169      -26.441        7.258       20.701       32.857       23.598      428.530     1079.587      556.857        0.143        0.103       27.151       24.286        0.800      339.579       13.008      859.299
01/10/2015  13:59:00      -38.461      -55.081       -9.371       35.596       33.372       21.845     1267.070     1113.671      477.183        0.373        0.143       67.180       10.488        0.024      339.089       12.183      859.287
01/10/2015  14:00:00      -40.768      -29.403        3.237       63.034       38.254       24.663     3973.258     1463.387      608.284        0.429        0.302       50.265       25.177        0.251      339.219       12.403      859.287
01/10/2015  14:01:00       32.152       17.965       22.502       29.952       23.386       27.475      897.145      546.892      754.861        0.203        0.110       36.830        7.953        0.047      339.417       12.737      859.278
01/10/2015  14:02:00       -5.298        9.636        7.204       38.156       32.693       29.066     1455.900     1068.800      844.851        0.177        0.168       10.997        7.174        0.426      339.377       12.668      859.268
01/10/2015  14:03:00       -9.836      -12.167       11.696       15.715       24.629       14.672      246.954      606.572      215.273        0.072        0.053       15.646       12.400        0.628      339.647       13.124      859.274
01/10/2015  14:04:00      -11.161        6.493       15.391       40.524       21.330       24.664     1642.209      454.963      608.305        0.155        0.135       12.912       28.610        4.910      339.455       12.799      859.273
01/10/2015  14:05:00        0.771       61.107       -4.756       22.911       31.517       16.974      524.913      993.306      288.123        0.278        0.090       61.111       15.211        0.062      339.384       12.680      859.273
01/10/2015  14:06:00      -56.283       18.750        2.599       25.384       22.215       20.551      644.334      493.508      422.360        0.254        0.078       59.324       16.468        0.077      339.334       12.595      859.274
01/10/2015  14:07:00       -8.822      -14.628       14.191       24.245       22.672       15.698      587.810      514.014      246.441        0.092        0.067       17.082       10.255        0.360      339.778       13.344      859.278
01/10/2015  14:08:00        2.090        2.653       26.665       48.057       25.898       25.163     2309.433      670.728      633.163        0.217        0.181        3.377       17.317       26.294      339.549       12.960      859.277
01/10/2015  14:09:00       -6.442      -44.650        3.462       52.845       55.344       34.219     2792.647     3062.987     1170.937        0.454        0.351       45.112       28.322        0.394      339.211       12.389      859.293
01/10/2015  14:10:00       40.632      -25.268       23.788       43.018       78.079       52.423     1850.568     6096.279     2748.217        0.677        0.535       47.848       49.493        1.070      339.333       12.594      859.294
01/10/2015  14:11:00       49.308      -34.065       41.044       61.833       75.978       45.907     3823.351     5772.589     2107.446        0.849        0.585       59.931       57.164        0.910      339.246       12.448      859.298
01/10/2015  14:12:00       26.410      -49.039       20.621       45.611       61.860       40.366     2080.386     3826.636     1629.380        0.553        0.377       55.698       42.595        0.585      339.340       12.608      859.291
01/10/2015  14:13:00       75.338     -152.742      -24.038       42.997       38.849       33.965     1848.733     1509.229     1153.632        1.705        0.226      170.312       21.782        0.016      339.102       12.206      859.285
01/10/2015  14:14:00       63.681     -114.538       -5.377       30.761       32.294       23.737      946.253     1042.872      563.468        0.988        0.128      131.050       16.606        0.016      339.111       12.222      859.286
01/10/2015  14:15:00       57.798      -61.720       -1.921       26.658       26.142       20.929      710.626      683.409      438.017        0.449        0.092       84.558       11.479        0.018      339.089       12.184      859.279
01/10/2015  14:16:00       36.646      -31.409       19.272       28.967       34.451       24.249      839.075     1186.841      588.002        0.266        0.131       48.264       19.452        0.162      339.293       12.527      859.277
01/10/2015  14:17:00       17.833      -30.302       20.975       28.359       42.513       24.963      804.217     1807.347      623.128        0.245        0.162       35.160       24.705        0.494      339.407       12.719      859.269
01/10/2015  14:18:00        4.033       15.415       26.890       21.311       15.247       15.195      454.176      232.476      230.889        0.095        0.046       15.934        7.899        0.246      339.430       12.758      859.270
01/10/2015  14:19:00       27.779      -58.276        3.590       50.322       45.499       37.828     2532.348     2070.160     1430.955        0.511        0.302       64.559       33.763        0.274      339.469       12.825      859.268
01/10/2015  14:20:00       45.444      -62.923       11.506       36.100       43.711       40.526     1303.198     1910.627     1642.366        0.551        0.243       77.617       30.564        0.155      339.406       12.719      859.258
01/10/2015  14:21:00       27.600       -3.286       42.280       37.849       66.129       37.191     1432.569     4373.046     1383.164        0.487        0.359       27.795       38.518        1.920      339.460       12.809      859.261
01/10/2015  14:22:00       60.957      -67.056       15.821       68.250       78.970       46.407     4658.012     6236.232     2153.627        1.075        0.652       90.621       44.117        0.237      339.354       12.630      859.271
01/10/2015  14:23:00        8.804      -11.521       42.755       40.302       55.076       38.987     1624.214     3033.406     1520.025        0.411        0.309       14.500       42.754        8.694      339.334       12.597      859.280
01/10/2015  14:24:00        6.830      -48.198       -6.689       27.939       37.727       29.256      780.593     1423.354      855.910        0.274        0.153       48.680       26.428        0.295      339.346       12.615      859.292
01/10/2015  14:25:00       -9.289       35.588       46.466       17.425       27.034       25.122      303.627      730.832      631.103        0.259        0.083       36.780       19.839        0.291      339.531       12.929      859.297
01/10/2015  14:26:00       17.900       52.460       55.844       50.014       39.033       28.220     2501.447     1523.549      796.345        0.551        0.241       55.430       21.459        0.150      339.364       12.645      859.306
01/10/2015  14:27:00       24.189       16.060       13.815       29.656       27.635       17.480      879.470      763.671      305.536        0.149        0.097       29.035       14.540        0.251      339.203       12.375      859.323
01/10/2015  14:28:00       13.630        3.090       15.228       31.655       35.499       29.551     1002.039     1260.159      873.271        0.178        0.157       13.976       29.082        4.330      339.335       12.598      859.326
01/10/2015  14:29:00       21.718      -17.277       29.379       53.651       74.612       28.082     2878.477     5567.020      788.595        0.543        0.462       27.752       40.158        2.094      339.460       12.809      859.331
01/10/2015  14:30:00       90.328     -105.205       -8.294       47.486       60.118       34.527     2254.936     3614.119     1192.130        1.318        0.353      138.662       31.241        0.051      339.227       12.417      859.336
01/10/2015  14:31:00       62.576      -24.928       30.320       46.506       55.737       42.072     2162.836     3106.557     1770.016        0.625        0.352       67.358       39.274        0.340      339.351       12.625      859.333
01/10/2015  14:32:00       21.338      -34.486       33.180       32.225       57.721       25.768     1038.466     3331.740      663.996        0.389        0.252       40.553       12.054        0.088      339.474       12.832      859.333
01/10/2015  14:33:00       67.656      -90.552      -15.961       46.219       49.926       34.050     2136.200     2492.620     1159.395        0.941        0.289      113.035       30.630        0.073      339.306       12.548      859.338
01/10/2015  14:34:00       59.283       66.807       67.817       46.206       43.922       37.466     2135.021     1929.164     1403.699        0.902        0.273       89.318       13.064        0.021      339.289       12.520      859.337
01/10/2015  14:35:00       73.557       52.574       44.744       46.730       36.369       31.365     2183.694     1322.671      983.792        0.733        0.225       90.414       23.491        0.068      339.258       12.467      859.330
01/10/2015  14:36:00       31.811       24.164       29.092       32.592       20.442       27.307     1062.250      417.867      745.699        0.233        0.111       39.948       22.494        0.317      339.332       12.592      859.321
01/10/2015  14:37:00       25.950        7.737       24.048       18.276       23.871       17.659      334.026      569.801      311.835        0.126        0.061       27.079       14.266        0.278      339.402       12.711      859.309
01/10/2015  14:38:00       53.260      -23.433       25.727       48.739       47.691       35.553     2375.513     2274.455     1264.051        0.498        0.296       58.187       37.806        0.422      339.410       12.724      859.311
01/10/2015  14:39:00       24.715       48.979       85.134       44.331       47.125       33.600     1965.257     2220.751     1128.962        0.779        0.266       54.861       35.877        0.428      339.393       12.695      859.314
01/10/2015  14:40:00        8.257       -1.219       35.869       30.351       57.272       39.471      921.198     3280.087     1557.963        0.356        0.288        8.346       35.417       18.006      339.420       12.740      859.326
01/10/2015  14:41:00       44.982      -61.872       14.503       40.157       57.420       38.523     1612.561     3297.012     1484.031        0.623        0.320       76.495       39.689        0.269      339.413       12.729      859.334
01/10/2015  14:42:00       24.045      -96.304      -18.225       30.165       35.928       25.936      909.956     1290.816      672.655        0.653        0.144       99.260       13.912        0.020      339.384       12.679      859.349
01/10/2015  14:43:00       29.582      -58.940        2.803       17.687       28.390       17.177      312.834      805.993      295.055        0.289        0.071       65.947        9.595        0.021      339.437       12.770      859.350
01/10/2015  14:44:00       16.880      -37.185       14.168       27.522       62.982       35.936      757.473     3966.674     1291.401        0.394        0.301       40.837       25.066        0.377      339.493       12.863      859.353
01/10/2015  14:45:00       54.143      -51.932       -2.288       49.498       58.027       37.137     2450.052     3367.182     1379.164        0.641        0.360       75.022       45.713        0.371      339.359       12.638      859.364
01/10/2015  14:46:00        6.981       -0.569       27.556       27.609       31.820       27.259      762.239     1012.502      743.076        0.166        0.126        7.004       23.012       10.794      339.422       12.743      859.372
01/10/2015  14:47:00        6.808       -3.105       36.772       25.762       53.826       35.485      663.671     2897.226     1259.200        0.311        0.241        7.483       37.520       25.141      339.366       12.650      859.375
01/10/2015  14:48:00       31.931      -45.969      -14.442       40.394       40.171       33.115     1631.654     1613.674     1096.580        0.384        0.217       55.971       25.185        0.202      339.314       12.563      859.379
01/10/2015  14:49:00        6.727       32.666       53.924       23.429       46.004       32.219      548.938     2116.403     1038.037        0.386        0.185       33.352       32.548        0.952      339.459       12.808      859.382
01/10/2015  14:50:00       16.479      -31.277       11.304       52.315       58.093       37.827     2736.829     3374.854     1430.864        0.446        0.377       35.353       31.569        0.797      339.403       12.711      859.377
01/10/2015  14:51:00       83.925      -90.848      -27.501       52.565       53.861       35.662     2763.100     2901.037     1271.779        1.149        0.347      123.680       36.555        0.087      339.296       12.532      859.369
01/10/2015  14:52:00       84.905      -97.953      -10.356       41.183       33.247       21.260     1696.058     1105.365      451.978        1.008        0.163      129.628       19.267        0.022      339.350       12.623      859.365
01/10/2015  14:53:00       44.252      -64.096       14.781       40.536       62.015       42.095     1643.176     3845.851     1771.998        0.677        0.363       77.887       36.412        0.219      339.473       12.830      859.355
01/10/2015  14:54:00       73.935      -75.439      -13.948       46.144       63.591       51.286     2129.231     4043.845     2630.291        1.008        0.440      105.629       38.245        0.131      339.390       12.690      859.347
01/10/2015  14:55:00       38.467       -5.629       59.430       70.446      103.060       54.832     4962.668    10621.269     3006.504        1.181        0.930       38.877       71.069        3.342      339.346       12.616      859.341
01/10/2015  14:56:00       81.752      -19.805       36.899       65.948      120.449       67.025     4349.091    14507.980     4492.399        1.589        1.167       84.116       83.915        0.995      339.308       12.550      859.328
01/10/2015  14:57:00       32.239       -4.927       25.505       50.227       58.494       32.608     2522.740     3421.584     1063.266        0.436        0.350       32.613       36.830        1.275      339.363       12.644      859.339
01/10/2015  14:58:00       64.043     -116.374      -15.332       41.919       60.892       28.813     1757.167     3707.796      830.191        1.209        0.315      132.832       22.935        0.030      339.303       12.544      859.339
01/10/2015  14:59:00       64.320      -69.334        7.636       52.787       67.742       38.268     2786.517     4588.958     1464.463        0.892        0.442       94.574       45.746        0.234      339.407       12.719      859.339
01/10/2015  15:00:00       43.432      -35.598       31.951       49.641       73.384       39.670     2464.194     5385.165     1573.739        0.680        0.471       56.157       49.316        0.771      339.328       12.586      859.340
01/10/2015  15:01:00       49.937       -2.571       17.902       64.148       39.969       28.016     4115.004     1597.539      784.900        0.466        0.325       50.003       29.307        0.344      339.318       12.570      859.346
01/10/2015  15:02:00       34.291      -20.122       12.995       43.374       37.626       29.050     1881.271     1415.747      843.883        0.294        0.207       39.759       25.537        0.413      339.375       12.666      859.351
01/10/2015  15:03:00        1.760       -1.298       27.438       21.173       35.237       21.029      448.308     1241.661      442.217        0.144        0.107        2.187       20.536       88.141      339.432       12.761      859.356
01/10/2015  15:04:00        7.294       -0.930       13.273       30.920       42.279       20.599      956.071     1787.528      424.305        0.170        0.158        7.353       19.473        7.013      339.405       12.716      859.354
01/10/2015  15:05:00       17.243      -17.809       25.070       28.599       30.820       22.949      817.895      949.847      526.673        0.177        0.115       24.788       13.555        0.299      339.450       12.791      859.353
01/10/2015  15:06:00       51.996      -66.056        1.729       63.646       56.221       30.941     4050.847     3160.837      957.366        0.762        0.408       84.065       36.016        0.184      339.345       12.615      859.342
01/10/2015  15:07:00       81.561      -98.245      -32.441       40.294       44.012       27.569     1623.568     1937.079      760.031        1.084        0.216      127.688       21.996        0.030      339.268       12.485      859.341
01/10/2015  15:08:00       77.160      -65.136       -5.207       48.832       48.194       29.592     2384.536     2322.647      875.702        0.790        0.279      100.977       33.167        0.108      339.248       12.450      859.340
01/10/2015  15:09:00      -11.042      -15.000       -4.012       35.459       38.362       26.350     1257.355     1471.643      694.302        0.189        0.171       18.626       26.658        2.048      339.343       12.612      859.341
01/10/2015  15:10:00       37.709      -10.183       24.753       46.604       46.110       33.680     2171.974     2126.114     1134.322        0.378        0.272       39.060       39.505        1.023      339.430       12.760      859.342
01/10/2015  15:11:00       -7.111       -0.625       41.140       12.505       40.206       29.690      156.384     1616.546      881.484        0.220        0.133        7.139       31.391       19.336      339.499       12.875      859.348
01/10/2015  15:12:00        4.507      -60.299        7.153       47.965       38.653       28.406     2300.657     1494.073      806.905        0.415        0.230       60.467       22.813        0.142      339.471       12.826      859.358
01/10/2015  15:13:00       13.769      -46.850       17.056       56.865       46.596       46.526     3233.678     2171.229     2164.626        0.512        0.378       48.831       36.505        0.559      339.541       12.945      859.359
01/10/2015  15:14:00       39.696      -77.400      -11.637       60.650       52.075       37.827     3678.422     2711.841     1430.882        0.776        0.391       86.986       37.611        0.187      339.432       12.761      859.363
01/10/2015  15:15:00       -2.194      -37.301       25.170       27.758       52.462       24.954      770.479     2752.226      622.703        0.309        0.207       37.365       15.994        0.183      339.448       12.788      859.369
01/10/2015  15:16:00      -20.201      -15.338       20.576       29.406       35.084       25.194      864.716     1230.860      634.757        0.190        0.137       25.364       20.598        0.660      339.443       12.781      859.366
01/10/2015  15:17:00       -1.087        5.782       15.726       16.756       13.660       10.457      280.761      186.595      109.359        0.043        0.029        5.884        8.392        2.034      339.528       12.925      859.368
01/10/2015  15:18:00        6.405      -21.513        9.920       21.782       24.923       24.454      474.449      621.142      597.992        0.115        0.085       22.446       12.528        0.312      339.494       12.866      859.373
01/10/2015  15:19:00       33.086       -4.153       32.824       41.781       41.110       34.402     1745.672     1690.037     1183.512        0.340        0.231       33.346       34.211        1.053      339.452       12.795      859.375
01/10/2015  15:20:00       93.658      -57.823       11.689       54.845       52.655       34.758     3007.988     2772.529     1208.151        0.962        0.349      110.069       39.443        0.128      339.278       12.500      859.379
01/10/2015  15:21:00       50.448      -34.281       18.686       43.615       43.924       26.103     1902.282     1929.301      681.350        0.429        0.226       60.994       28.767        0.222      339.345       12.614      859.388
01/10/2015  15:22:00       26.609      -18.920       32.187       32.864       47.089       35.222     1080.050     2217.391     1240.573        0.332        0.227       32.650       32.503        0.991      339.386       12.683      859.399
01/10/2015  15:23:00       85.485      -49.469        8.731       39.622       42.925       31.602     1569.892     1842.570      998.682        0.712        0.221       98.767       27.246        0.076      339.319       12.571      859.409
01/10/2015  15:24:00       17.158      -15.712       26.687       38.115       39.364       37.632     1452.777     1549.545     1416.137        0.284        0.221       23.265       18.319        0.620      339.440       12.774      859.416
01/10/2015  15:25:00       19.801      -32.411       26.694       45.733       40.949       33.423     2091.528     1676.822     1117.127        0.352        0.244       37.981       25.555        0.453      339.461       12.812      859.421
01/10/2015  15:26:00       24.358      -26.941       13.357       30.990       49.377       35.612      960.351     2438.130     1268.214        0.308        0.233       36.320       28.034        0.596      339.403       12.712      859.425
01/10/2015  15:27:00       54.156      -45.421       12.934       45.540       46.584       40.997     2073.924     2170.081     1680.748        0.554        0.296       70.682       39.898        0.319      339.352       12.625      859.427
01/10/2015  15:28:00       15.376      -69.459        8.819       42.641       52.833       35.606     1818.234     2791.282     1267.804        0.551        0.294       71.141       15.314        0.046      339.388       12.687      859.427
01/10/2015  15:29:00       -0.368      -31.196       23.258       48.533       57.783       39.264     2355.416     3338.819     1541.623        0.437        0.362       31.198       30.151        0.934      339.422       12.745      859.431
01/10/2015  15:30:00        5.275      -25.958       21.787       32.779       46.494       28.698     1074.495     2161.691      823.553        0.262        0.203       26.489       21.238        0.643      339.375       12.664      859.439
01/10/2015  15:31:00      -11.716       16.353       39.724       12.340       31.452       22.564      152.282      989.228      509.143        0.182        0.083       20.117       22.201        1.218      339.461       12.810      859.456
01/10/2015  15:32:00       11.032      -88.220       -3.379       36.630       42.340       32.023     1341.776     1792.678     1025.471        0.604        0.208       88.908       23.735        0.071      339.371       12.659      859.454
01/10/2015  15:33:00       25.201      -22.063       11.022       51.167       53.639       37.715     2618.092     2877.108     1422.452        0.408        0.346       33.494       38.853        1.346      339.335       12.597      859.455
01/10/2015  15:34:00      -35.885      -28.676       -0.254       27.321       54.648       23.367      746.424     2986.399      546.017        0.319        0.214       45.935       20.773        0.205      339.406       12.718      859.466
01/10/2015  15:35:00      -24.707      -14.646       15.014       21.797       23.446       14.863      475.094      549.732      220.896        0.115        0.062       28.722        7.382        0.066      339.500       12.874      859.467
01/10/2015  15:36:00      -17.652       -9.878       18.395       13.241       20.968       10.389      175.316      439.645      107.936        0.074        0.036       20.228        6.193        0.094      339.579       13.010      859.477
01/10/2015  15:37:00       -8.477        7.243       23.175        9.897       12.749       11.553       97.945      162.546      133.465        0.053        0.020       11.149        8.031        0.519      339.573       13.000      859.481
01/10/2015  15:38:00        5.198       27.920       39.964       19.165       27.294       16.437      367.315      744.946      270.172        0.189        0.069       28.399        6.665        0.055      339.432       12.762      859.489
01/10/2015  15:39:00        1.734       18.668       40.168       20.320       26.186       17.269      412.901      685.732      298.219        0.168        0.070       18.748       16.162        0.743      339.418       12.737      859.497
01/10/2015  15:40:00       -7.758       17.727       34.791       13.410       29.670       15.128      179.830      880.300      228.863        0.144        0.064       19.350       16.710        0.746      339.484       12.849      859.510
01/10/2015  15:41:00      -10.123       19.393       58.387       17.771       26.204       16.741      315.825      686.639      280.269        0.258        0.064       21.877       13.523        0.382      339.438       12.770      859.517
01/10/2015  15:42:00       14.653       26.977       40.658       37.141       40.236       25.787     1379.487     1618.967      664.946        0.313        0.183       30.699       27.601        0.808      339.370       12.657      859.523
01/10/2015  15:43:00       23.699      -20.406       32.819       29.969       44.201       33.235      898.136     1953.710     1104.551        0.300        0.198       31.274       27.304        0.762      339.334       12.596      859.525
01/10/2015  15:44:00       19.019      -15.366        9.473       28.595       45.000       30.768      817.663     2025.026      946.695        0.224        0.189       24.451       29.705        1.476      339.313       12.560      859.518
01/10/2015  15:45:00       21.985       -0.171       26.547       28.960       32.484       30.732      838.692     1055.206      944.458        0.201        0.142       21.986       18.202        0.685      339.280       12.505      859.515
01/10/2015  15:46:00       21.396      -10.958       34.496       29.899       43.371       31.984      893.976     1881.025     1023.008        0.278        0.190       24.039       28.743        1.430      339.302       12.541      859.520
01/10/2015  15:47:00       14.980       17.564       46.696       23.405       24.041       25.387      547.780      577.966      644.518        0.224        0.089       23.085       20.326        0.775      339.297       12.533      859.523
01/10/2015  15:48:00       18.302       15.647       38.825       27.598       23.352       22.788      761.653      545.334      519.286        0.196        0.091       24.079       17.005        0.499      339.304       12.546      859.524
01/10/2015  15:49:00        8.591        5.012       29.978       22.732       25.078       17.032      516.740      628.901      290.094        0.122        0.072        9.946       17.557        3.116      339.372       12.660      859.527
01/10/2015  15:50:00       36.879      -56.645        3.567       29.452       51.422       21.460      867.408     2644.190      460.537        0.428        0.199       67.592       28.907        0.183      339.333       12.595      859.531
01/10/2015  15:51:00       25.696      -67.753        2.305       24.233       28.048       18.818      587.238      786.687      354.132        0.349        0.086       72.462       15.597        0.046      339.353       12.629      859.534
01/10/2015  15:52:00       21.612       -7.365       13.765       23.345       21.998       26.775      545.004      483.911      716.894        0.123        0.087       22.833       18.498        0.656      339.356       12.632      859.539
01/10/2015  15:53:00      -10.881      -15.260       20.425       14.471       18.599       14.041      209.424      345.938      197.163        0.076        0.038       18.742        4.768        0.065      339.404       12.715      859.549
01/10/2015  15:54:00      -12.552      -53.684       18.000       24.959       31.558       25.965      622.929      995.888      674.197        0.283        0.115       55.132       16.292        0.087      339.340       12.606      859.558
01/10/2015  15:55:00       50.256      -95.533       -6.849       39.069       43.200       30.420     1526.374     1866.240      925.348        0.801        0.216      107.946       30.944        0.082      339.288       12.518      859.562
01/10/2015  15:56:00       12.788      -37.503       29.314       36.822       36.635       37.628     1355.845     1342.123     1415.880        0.327        0.206       39.624       36.407        0.844      339.360       12.640      859.569
01/10/2015  15:57:00      -24.535       -0.687       21.843       15.789       20.401       13.345      249.292      416.195      178.096        0.096        0.042       24.545        7.769        0.100      339.282       12.509      859.571
01/10/2015  15:58:00      -11.628       -3.672        9.162       16.759       13.763       10.684      280.854      189.411      114.150        0.041        0.029       12.194        6.833        0.314      339.317       12.565      859.572
01/10/2015  15:59:00       19.881      -17.767       18.335       28.139       32.522       24.007      791.785     1057.670      576.312        0.174        0.121       26.663       16.873        0.400      339.300       12.539      859.568
01/10/2015  16:00:00      -10.499       26.032       56.517       17.272       35.788       24.468      298.315     1280.812      598.665        0.308        0.109       28.069       25.273        0.811      339.307       12.550      859.565
01/10/2015  16:01:00      -20.911        5.044       10.567       18.632       14.705       23.160      347.143      216.236      536.404        0.084        0.055       21.511       17.057        0.629      339.284       12.512      859.570
01/10/2015  16:02:00       -6.043      -36.495       11.575       36.005       34.760       24.120     1296.358     1208.291      581.776        0.229        0.154       36.992       10.175        0.076      339.278       12.501      859.569
01/10/2015  16:03:00      -14.196      -16.972       34.409       24.986       37.709       23.058      624.279     1421.947      531.667        0.213        0.129       22.126       16.863        0.581      339.278       12.501      859.575
01/10/2015  16:04:00      -13.346       -5.472       10.786       26.827       27.081       20.028      719.707      733.401      401.128        0.109        0.093       14.425       12.586        0.761      339.229       12.420      859.577
01/10/2015  16:05:00       20.124        2.789       31.520       26.673       35.528       25.839      711.424     1262.213      667.636        0.202        0.132       20.317       18.914        0.867      339.215       12.396      859.574
01/10/2015  16:06:00       36.682      -21.452       16.899       32.993       53.950       41.010     1088.507     2910.616     1681.860        0.389        0.284       42.495       38.472        0.820      339.207       12.383      859.569
01/10/2015  16:07:00        9.550       20.768       46.812       26.614       44.217       30.683      708.304     1955.185      941.472        0.316        0.180       22.858       27.549        1.453      339.209       12.385      859.561
01/10/2015  16:08:00       20.438      -23.898       23.758       37.223       28.287       21.576     1385.530      800.143      465.520        0.210        0.133       31.446       22.288        0.502      339.260       12.470      859.560
01/10/2015  16:09:00       46.451      -38.992       -1.313       36.009       41.153       26.512     1296.668     1693.558      702.912        0.369        0.185       60.647       20.629        0.116      339.207       12.384      859.556
01/10/2015  16:10:00       21.021      -21.377        9.363       29.395       33.838       27.243      864.074     1145.026      742.206        0.187        0.138       29.981       22.448        0.561      339.207       12.383      859.555
01/10/2015  16:11:00       36.458      -63.296       -7.428       36.795       38.515       33.425     1353.906     1483.429     1117.222        0.467        0.198       73.045       27.175        0.138      339.219       12.404      859.561
01/10/2015  16:12:00       31.040       -8.065       26.074       34.151       28.853       32.962     1166.304      832.478     1086.524        0.240        0.154       32.070       23.106        0.519      339.190       12.352      859.570
01/10/2015  16:13:00       18.159       26.667       57.041       31.980       46.727       22.735     1022.731     2183.370      516.865        0.401        0.186       32.263       21.268        0.435      339.175       12.328      859.568
01/10/2015  16:14:00       26.581      -39.663       18.955       32.933       46.327       42.812     1084.552     2146.211     1832.853        0.385        0.253       47.746       33.231        0.484      339.161       12.303      859.567
01/10/2015  16:15:00       -6.144      -17.674       35.263       25.267       37.340       34.321      638.407     1394.288     1177.910        0.240        0.161       18.711       32.004        2.926      339.200       12.371      859.569
01/10/2015  16:16:00      -18.557       22.456       18.872       20.016       38.157       28.554      400.660     1455.927      815.337        0.194        0.134       29.131       18.907        0.421      339.188       12.352      859.568
01/10/2015  16:17:00       -2.481      -26.481       15.008       22.735       30.160       23.297      516.884      909.598      542.748        0.145        0.098       26.597       21.612        0.660      339.206       12.381      859.581
01/10/2015  16:18:00       27.352        7.629       42.986       45.994       51.418       37.928     2115.462     2643.853     1438.552        0.442        0.310       28.396       47.139        2.756      339.142       12.273      859.572
01/10/2015  16:19:00        6.448       32.877       59.586       14.152       30.906       18.489      200.282      955.174      341.858        0.308        0.075       33.503       20.306        0.367      339.175       12.329      859.572
01/10/2015  16:20:00       -9.792        4.193       33.101       10.564       23.987        8.952      111.608      575.379       80.141        0.099        0.038       10.651       10.196        0.916      339.206       12.380      859.562
01/10/2015  16:21:00      -10.772       14.588       40.050       12.237       16.263       11.495      149.740      264.487      132.145        0.124        0.027       18.134       10.109        0.311      339.193       12.359      859.559
01/10/2015  16:22:00      -11.058        6.544       16.960       11.241       14.399       12.284      126.353      207.325      150.898        0.047        0.024       12.849        8.866        0.476      339.180       12.337      859.553
01/10/2015  16:23:00        5.774      -24.423       12.511       19.373       37.034       19.439      375.325     1371.482      377.874        0.146        0.106       25.096       14.040        0.313      339.171       12.321      859.553
01/10/2015  16:24:00       -4.118       21.723       29.900       12.714       14.315       10.378      161.655      204.930      107.696        0.093        0.024       22.110        5.703        0.067      339.123       12.240      859.548
01/10/2015  16:25:00       -0.061       22.379       32.353       11.924       13.280        9.838      142.180      176.363       96.777        0.098        0.021       22.379        7.052        0.099      339.132       12.255      859.548
01/10/2015  16:26:00       24.942       -9.979       11.833       21.071       22.508       21.547      443.980      506.628      464.279        0.114        0.071       26.865       20.154        0.563      339.139       12.267      859.553
01/10/2015  16:27:00        6.368       -0.283       16.186       13.956       20.158       12.146      194.779      406.348      147.527        0.053        0.037        6.374        9.657        2.295      339.148       12.281      859.561
01/10/2015  16:28:00       -9.101        3.701       22.729        9.895       20.883       15.595       97.904      436.106      243.196        0.070        0.039        9.824       14.552        2.194      339.139       12.268      859.570
01/10/2015  16:29:00        6.606       -3.196       14.266       13.311       10.903        9.713      177.171      118.876       94.350        0.032        0.020        7.338        6.881        0.879      339.132       12.254      859.586
01/10/2015  16:30:00       20.193        8.523       14.278       12.051       14.590       14.016      145.217      212.870      196.442        0.062        0.028       21.918       12.464        0.323      339.101       12.203      859.606
01/10/2015  16:31:00       25.443       16.103       14.868       14.811       13.944       12.725      219.364      194.424      161.925        0.085        0.029       30.111        9.130        0.092      339.060       12.137      859.609
01/10/2015  16:32:00       15.174       16.580       20.904       16.051       12.388        9.695      257.633      153.454       93.999        0.072        0.025       22.475        5.841        0.068      339.030       12.084      859.611
01/10/2015  16:33:00        1.876        5.998       18.396       12.153       16.256       16.556      147.694      264.241      274.107        0.053        0.034        6.284       10.769        2.936      339.080       12.167      859.616
01/10/2015  16:34:00        7.841        6.167       24.823       14.523       20.877       13.577      210.910      435.832      184.344        0.077        0.042        9.976       10.578        1.124      339.090       12.186      859.630
01/10/2015  16:35:00       -3.829       -3.405       21.246       12.230       32.042       18.265      149.564     1026.662      333.626        0.099        0.075        5.124       13.525        6.966      339.126       12.245      859.637
01/10/2015  16:36:00       16.838      -37.688       21.088       25.559       29.293       19.370      653.262      858.084      375.204        0.202        0.094       41.279       15.877        0.148      339.154       12.292      859.640
01/10/2015  16:37:00       17.500      -25.413       15.880       19.006       32.422       21.813      361.243     1051.218      475.802        0.155        0.094       30.856       22.642        0.538      339.133       12.258      859.645
01/10/2015  16:38:00        5.606       16.309       39.433       18.470       22.866       17.884      341.139      522.868      319.852        0.152        0.059       17.246       16.949        0.966      339.085       12.178      859.652
01/10/2015  16:39:00       22.329      -39.581       16.270       26.062       43.215       26.066      679.237     1867.497      679.462        0.278        0.161       45.445       30.590        0.453      339.092       12.187      859.659
01/10/2015  16:40:00       33.158      -47.531        3.765       33.881       32.862       25.593     1147.898     1079.889      654.987        0.313        0.144       57.954       17.017        0.086      339.084       12.175      859.670
01/10/2015  16:41:00       31.619      -30.542        9.061       28.350       29.325       19.796      803.720      859.944      391.899        0.203        0.103       43.961       18.399        0.175      339.072       12.155      859.685
01/10/2015  16:42:00        3.647        4.462       28.714       19.329       28.369       21.868      373.620      804.778      478.207        0.126        0.083        5.762       21.869       14.402      339.024       12.074      859.697
01/10/2015  16:43:00        8.554       27.193       44.781       17.914       19.415       13.218      320.900      376.950      174.716        0.185        0.044       28.506       11.984        0.177      338.965       11.975      859.696
01/10/2015  16:44:00        5.418       41.797       53.112       16.490       21.042       10.835      271.907      442.782      117.392        0.271        0.042       42.147        7.828        0.034      338.986       12.012      859.707
01/10/2015  16:45:00       20.431       54.659       50.113       31.255       35.982       23.789      976.874     1294.711      565.895        0.438        0.142       58.353       19.588        0.113      339.047       12.112      859.711
01/10/2015  16:46:00       17.487       26.227       40.767       31.443       25.785       20.194      988.644      664.882      407.815        0.236        0.103       31.522       19.332        0.376      339.038       12.097      859.710
01/10/2015  16:47:00       63.123       40.933       29.397       32.901       25.667       22.577     1082.492      658.770      509.702        0.439        0.113       75.233       14.254        0.036      339.023       12.073      859.709
01/10/2015  16:48:00       58.870       15.558       13.516       43.696       26.884       20.366     1909.331      722.752      414.756        0.347        0.152       60.891        8.550        0.020      338.999       12.032      859.708
01/10/2015  16:49:00       41.269       52.141       49.269       25.019       22.054       21.415      625.926      486.388      458.606        0.421        0.079       66.497        8.789        0.017      338.977       11.996      859.703
01/10/2015  16:50:00       48.457       53.905       45.712       31.686       29.464       27.545     1004.002      868.121      758.748        0.499        0.132       72.483       23.702        0.107      339.007       12.045      859.694
01/10/2015  16:51:00       39.038       58.283       62.984       34.440       32.527       23.300     1186.129     1058.034      542.913        0.584        0.139       70.149       15.387        0.048      339.000       12.034      859.696
01/10/2015  16:52:00       50.422       59.542       69.946       33.366       30.922       14.572     1113.257      956.157      212.350        0.663        0.114       78.024       12.786        0.027      339.026       12.077      859.689
01/10/2015  16:53:00       15.831       59.727       71.141       34.110       34.961       18.421     1163.463     1222.291      339.318        0.580        0.136       61.789       18.599        0.091      339.033       12.087      859.686
01/10/2015  16:54:00        5.894       46.668       78.301       18.382       46.364       24.037      337.887     2149.666      577.774        0.570        0.153       47.039       29.030        0.381      339.022       12.071      859.697
01/10/2015  16:55:00       -5.707       34.422       60.887       19.022       40.153       24.829      361.839     1612.236      616.473        0.376        0.130       34.892       25.570        0.537      338.992       12.021      859.686
01/10/2015  16:56:00        2.819       28.320       53.924       17.651       29.577       16.000      311.560      874.822      255.992        0.258        0.072       28.460       17.110        0.361      338.988       12.015      859.693
01/10/2015  16:57:00       27.325       29.988       62.943       25.683       26.206       14.328      659.634      686.739      205.291        0.358        0.078       40.570       17.581        0.188      338.973       11.989      859.699
01/10/2015  16:58:00        9.815       -9.340       30.606       24.756       40.763       29.893      612.849     1661.625      893.586        0.214        0.158       13.549       32.313        5.688      339.009       12.048      859.697
01/10/2015  16:59:00       25.805       32.628        5.517       22.872       28.325       18.532      523.110      802.326      343.451        0.171        0.083       41.600       12.190        0.086      338.980       12.000      859.699
01/10/2015  17:00:00       27.480       58.019       -9.267       15.813       20.313       15.205      250.050      412.638      231.196        0.255        0.045       64.198       13.613        0.045      338.746       11.607      859.715
01/10/2015  17:01:00       25.954      121.085      -24.476       15.617       26.051       12.972      243.886      678.674      168.269        0.851        0.055      123.835       11.216        0.008      338.752       11.616      859.725
01/10/2015  17:02:00       50.373       60.055        3.603       32.621       38.476       26.869     1064.116     1480.431      721.927        0.471        0.163       78.384       24.127        0.095      338.760       11.632      859.725
01/10/2015  17:03:00       91.727       37.530       20.144       28.285       23.619       21.406      800.020      557.838      458.197        0.602        0.091       99.107       17.929        0.033      338.832       11.753      859.730
01/10/2015  17:04:00       56.449       24.738       40.080       34.701       21.881       19.699     1204.159      478.775      388.050        0.374        0.104       61.631       17.546        0.081      338.864       11.804      859.725
01/10/2015  17:05:00       51.454       26.603       41.070       32.887       25.208       21.071     1081.586      635.430      443.996        0.360        0.108       57.924       19.056        0.108      338.861       11.800      859.723
01/10/2015  17:06:00       16.673       23.778       43.979       41.282       43.193       29.568     1704.231     1865.634      874.279        0.361        0.222       29.041       31.548        1.180      338.880       11.832      859.726
01/10/2015  17:07:00       14.151       40.290       55.395       23.335       27.425       18.868      544.526      752.131      356.018        0.327        0.083       42.703       18.065        0.179      338.842       11.769      859.721
01/10/2015  17:08:00       22.307       29.608       22.503       22.829       25.088       19.158      521.149      629.431      367.035        0.170        0.076       37.071       12.817        0.120      338.809       11.714      859.717
01/10/2015  17:09:00       17.702       89.270       -6.924       16.538       28.045       23.708      273.498      786.535      562.058        0.498        0.081       91.008       21.088        0.054      338.777       11.660      859.722
01/10/2015  17:10:00       -2.869       97.211      -16.410       23.207       18.805        6.707      538.562      353.642       44.987        0.533        0.047       97.254        5.949        0.004      338.873       11.820      859.717
01/10/2015  17:11:00       -3.308      108.471      -20.940       19.366       25.176       12.186      375.043      633.812      148.501        0.669        0.058      108.522       11.722        0.012      338.977       11.996      859.723
01/10/2015  17:12:00       19.486       59.910      -13.321       27.942       25.087       20.056      780.732      629.381      402.224        0.298        0.091       63.000       15.880        0.064      338.988       12.014      859.736
01/10/2015  17:13:00       51.105       41.999       -3.614       16.297       25.387       14.553      265.593      644.508      211.791        0.276        0.056       66.149       11.170        0.029      338.976       11.993      859.730
01/10/2015  17:14:00       74.550       42.982        9.079       16.047       14.945       13.735      257.495      223.351      188.639        0.408        0.033       86.053        8.245        0.009      339.048       12.114      859.736
01/10/2015  17:15:00       26.026       14.766        3.709       22.442       19.538       13.152      503.629      381.751      172.966        0.098        0.053       29.923       12.779        0.182      339.046       12.110      859.747
01/10/2015  17:16:00       32.921       35.022       15.268       24.342       26.103       19.264      592.527      681.364      371.090        0.209        0.082       48.066       14.206        0.087      338.971       11.983      859.751
01/10/2015  17:17:00       11.186       35.747       43.578       18.869       18.732       12.076      356.053      350.883      145.820        0.208        0.043       37.456        9.448        0.064      338.808       11.712      859.756
01/10/2015  17:18:00       34.810       29.923       23.656       24.202       13.768       13.220      585.723      189.567      174.779        0.181        0.048       45.904       12.402        0.073      338.825       11.740      859.775
01/10/2015  17:19:00       48.027       38.036        4.888       13.819       15.897       13.923      190.960      252.726      193.863        0.221        0.032       61.264        9.132        0.022      338.860       11.799      859.773
01/10/2015  17:20:00       39.771       35.739        6.555       18.887       19.360       11.306      356.705      374.827      127.816        0.188        0.043       53.470        4.400        0.007      338.823       11.737      859.777
01/10/2015  17:21:00        6.144       56.200       -3.422       14.292       24.642       14.352      204.249      607.229      205.984        0.211        0.051       56.535       15.874        0.079      338.722       11.565      859.791
01/10/2015  17:22:00      -10.589       89.704      -11.184       10.441       13.877        4.838      109.009      192.568       23.410        0.430        0.016       90.327        3.677        0.002      338.835       11.757      859.792
01/10/2015  17:23:00       -6.106       68.286      -10.671        8.068       10.443        4.879       65.095      109.057       23.803        0.251        0.010       68.558        4.530        0.004      338.880       11.830      859.796
01/10/2015  17:24:00       -6.539       54.265       -6.468        8.369        7.919        4.067       70.034       62.703       16.540        0.159        0.007       54.657        1.476        0.001      338.858       11.795      859.812
01/10/2015  17:25:00        6.041       38.769       -3.710       14.336       16.265        8.321      205.510      264.536       69.231        0.105        0.027       39.237        5.238        0.018      338.769       11.646      859.834
01/10/2015  17:26:00       11.801       28.877       -0.390       10.870       10.995        7.950      118.156      120.899       63.204        0.064        0.015       31.195        6.130        0.039      338.739       11.594      859.849
01/10/2015  17:27:00       31.212       26.901       -2.722       15.293       11.654        9.326      233.880      135.804       86.976        0.108        0.023       41.205        7.962        0.037      338.708       11.541      859.861
01/10/2015  17:28:00       27.400       30.152        1.933       23.476       12.599        9.190      551.143      158.745       84.447        0.123        0.040       40.742        4.795        0.014      338.706       11.540      859.878
01/10/2015  17:29:00       32.809       17.901        7.793       15.286       12.521        9.460      233.676      156.775       89.497        0.097        0.024       37.375        8.365        0.050      338.604       11.367      859.890
01/10/2015  17:30:00       48.638       35.163        6.350       24.822       14.216       11.983      616.135      202.098      143.600        0.230        0.048       60.017        8.514        0.020      338.617       11.391      859.913
01/10/2015  17:31:00       62.822       28.523        5.647       25.569       18.003       19.126      653.772      324.091      365.795        0.307        0.067       68.994        4.653        0.005      338.573       11.316      859.925
01/10/2015  17:32:00       69.496       39.770        5.781       19.406       23.811       15.275      376.604      566.946      233.338        0.381        0.059       80.071       11.038        0.019      338.541       11.262      859.942
01/10/2015  17:33:00       49.818       44.070        5.474       19.263       15.034       12.931      371.076      226.034      167.224        0.261        0.038       66.513        8.480        0.016      338.571       11.313      859.950
01/10/2015  17:34:00       43.510       37.972        3.958       17.123       17.203       16.858      293.187      295.957      284.196        0.211        0.044       57.749       13.079        0.051      338.609       11.377      859.942
01/10/2015  17:35:00       23.863       31.132        1.864       13.294       17.849       13.204      176.726      318.586      174.355        0.111        0.033       39.226        9.272        0.056      338.657       11.456      859.945
01/10/2015  17:36:00       19.780       32.769       -2.728       14.979       11.751        8.793      224.370      138.084       77.319        0.096        0.022       38.276        5.910        0.024      338.638       11.425      859.948
01/10/2015  17:37:00       14.313       41.666       -6.631       13.897       10.376        7.147      193.136      107.663       51.080        0.117        0.018       44.056        4.887        0.012      338.657       11.455      859.943
01/10/2015  17:38:00      -16.736       32.013       -6.350       13.230       10.988        5.579      175.034      120.746       31.121        0.084        0.016       36.124        4.971        0.019      338.712       11.550      859.936
01/10/2015  17:39:00      -36.147        2.763      -12.013        8.862        5.730        7.118       78.526       32.828       50.673        0.081        0.008       36.252        4.638        0.016      338.490       11.176      859.931
01/10/2015  17:40:00      -43.798       -6.309       -7.369        7.127        9.619        6.650       50.798       92.519       44.224        0.110        0.009       44.250        3.951        0.008      338.362       10.962      859.939
01/10/2015  17:41:00      -58.461      -15.424       -9.952        8.561       10.107        6.631       73.298      102.146       43.974        0.199        0.011       60.462        4.857        0.006      338.409       11.040      859.938
01/10/2015  17:42:00      -57.823      -13.370       -7.768       17.699        9.681        8.774      313.246       93.716       76.977        0.203        0.024       59.348        8.064        0.018      338.388       11.007      859.932
01/10/2015  17:43:00      -83.898      -16.515      -10.168        7.873        8.723        7.200       61.987       76.094       51.846        0.380        0.009       85.508        3.804        0.002      338.478       11.158      859.937
01/10/2015  17:44:00      -56.276       -6.196      -12.101       21.185        8.415       10.123      448.783       70.806      102.482        0.199        0.031       56.616       13.252        0.055      338.476       11.153      859.944
01/10/2015  17:45:00      -42.484        2.618       -6.173       10.426        6.807        6.483      108.698       46.338       42.023        0.102        0.010       42.565        4.286        0.010      338.454       11.115      859.947
01/10/2015  17:46:00      -25.595       15.617       -3.492        8.163        9.539        7.896       66.641       90.997       62.347        0.057        0.011       29.983        5.112        0.029      338.493       11.182      859.941
01/10/2015  17:47:00      -13.786        9.894        0.278        8.431       10.967        7.778       71.086      120.275       60.498        0.027        0.013       16.969        8.865        0.273      338.508       11.207      859.938
01/10/2015  17:48:00       14.017       23.233        5.747        7.503        7.216        7.630       56.294       52.072       58.210        0.047        0.008       27.134        2.285        0.007      338.547       11.269      859.949
01/10/2015  17:49:00        1.916       34.510       -5.413       10.049        9.811        4.903      100.975       96.264       24.035        0.072        0.011       34.563        5.159        0.022      338.537       11.254      859.946
01/10/2015  17:50:00       -1.104       51.222      -10.812        3.943        6.830        5.808       15.547       46.645       33.727        0.142        0.005       51.234        2.090        0.002      338.637       11.423      859.941
01/10/2015  17:51:00       -1.598       49.487       -8.981        2.887        5.671        4.113        8.337       32.166       16.917        0.129        0.003       49.512        3.149        0.004      338.686       11.506      859.938
01/10/2015  17:52:00       -2.654       56.074       -8.521        4.493        7.332        5.184       20.190       53.752       26.878        0.166        0.005       56.136        3.947        0.005      338.696       11.522      859.937
01/10/2015  17:53:00      -12.138       50.075       -7.100        8.468        6.622        4.895       71.699       43.845       23.965        0.142        0.007       51.525        2.930        0.003      338.741       11.599      859.932
01/10/2015  17:54:00      -42.984       -2.074       -7.362       10.345       15.197        5.589      107.024      230.934       31.233        0.114        0.018       43.034        7.068        0.027      338.192       10.676      859.925
01/10/2015  17:55:00      -75.401      -20.571      -12.621       17.388       13.448        8.606      302.337      180.844       74.071        0.341        0.028       78.157        7.234        0.009      337.827       10.064      859.923
01/10/2015  17:56:00      -67.075      -14.683       -6.180       34.302       29.333       19.906     1176.644      860.430      396.243        0.359        0.122       68.663       19.202        0.078      337.804       10.027      859.924
01/10/2015  17:57:00      -83.491      -22.373       -3.963       38.398       30.472       15.840     1474.368      928.551      250.893        0.507        0.133       86.437       14.920        0.030      337.686        9.826      859.923
01/10/2015  17:58:00      -97.912      -32.907      -13.016       19.873       20.112       11.851      394.942      404.482      140.444        0.589        0.047      103.294        9.403        0.008      337.758        9.948      859.919
01/10/2015  17:59:00     -102.802      -22.530      -17.569       12.510       12.830        8.121      156.512      164.615       65.955        0.589        0.019      105.241        3.806        0.001      337.887       10.164      859.919
01/10/2015  18:00:00      -81.901      -22.129      -13.979       11.098       15.096        7.170      123.155      227.898       51.413        0.390        0.020       84.838        3.977        0.002      337.989       10.334      859.928
01/10/2015  18:01:00      -88.964      -39.542       -8.252       10.260        8.389        6.864      105.262       70.370       47.113        0.488        0.011       97.356        2.889        0.001      337.884       10.160      859.942
01/10/2015  18:02:00     -102.142      -36.582       -4.356       23.113       17.582       14.352      534.215      309.122      205.977        0.642        0.052      108.495       12.038        0.012      337.875       10.146      859.953
01/10/2015  18:03:00      -97.118      -24.841        3.453       34.353       28.029       18.336     1180.139      785.598      336.216        0.618        0.115      100.245       20.484        0.042      337.766        9.962      859.954
01/10/2015  18:04:00     -114.308      -11.702       -0.688       37.392       20.639       18.838     1398.167      425.972      354.879        0.769        0.109      114.905       20.612        0.032      337.575        9.643      859.976
01/10/2015  18:05:00     -132.231       -3.322       -5.983       44.834       28.643       24.220     2010.106      820.444      586.613        1.047        0.171      132.272       25.559        0.037      337.521        9.552      859.997
01/10/2015  18:06:00     -161.890       16.382       -6.624       48.806       35.218       20.658     2382.039     1240.341      426.752        1.528        0.202      162.717       22.796        0.020      337.515        9.541      860.010
01/10/2015  18:07:00     -184.329       43.981       -9.213       28.719       26.591       16.404      824.753      707.059      269.103        1.890        0.090      189.503        8.000        0.002      337.696        9.846      860.010
01/10/2015  18:08:00     -204.650       41.574      -15.095       22.773       21.275       16.176      518.609      452.635      261.658        2.254        0.062      208.830        8.387        0.002      337.838       10.081      860.017
01/10/2015  18:09:00     -163.398       15.791      -11.092       32.764       36.348       18.382     1073.452     1321.205      337.899        1.490        0.137      164.159       17.951        0.012      337.742        9.923      860.018
01/10/2015  18:10:00     -144.728       11.165      -20.041       36.285       40.030       21.654     1316.600     1602.388      468.909        1.243        0.169      145.158       21.597        0.022      337.733        9.907      860.009
01/10/2015  18:11:00     -125.334       14.438       -7.935       33.859       35.431       20.780     1146.450     1255.368      431.820        0.941        0.142      126.163       20.317        0.026      337.708        9.864      860.003
01/10/2015  18:12:00     -126.822       -2.297      -11.412       43.000       29.578       19.145     1848.958      874.860      366.521        0.965        0.155      126.842       20.338        0.026      337.663        9.788      860.003
01/10/2015  18:13:00     -105.596        2.226       -7.754       28.934       25.239       18.192      837.149      636.986      330.951        0.651        0.090      105.619       17.961        0.029      337.686        9.827      859.994
01/10/2015  18:14:00      -78.196       -2.262       -7.684       30.105       28.461       16.922      906.290      810.006      286.355        0.409        0.100       78.228       12.269        0.025      337.598        9.680      859.996
01/10/2015  18:15:00      -99.583       10.362       -2.495       36.293       24.334       22.628     1317.197      592.148      512.017        0.623        0.121      100.121       20.473        0.042      337.564        9.624      860.007
01/10/2015  18:16:00     -127.877       13.836      -14.894       32.304       26.867       22.155     1043.541      721.845      490.845        0.951        0.113      128.624       16.880        0.017      337.550        9.600      860.012
01/10/2015  18:17:00     -115.932       42.515       -9.798       49.432       29.888       22.437     2443.510      893.281      503.432        0.959        0.192      123.482       21.215        0.030      337.578        9.647      860.030
01/10/2015  18:18:00     -109.814       18.699      -11.208       32.865       31.341       20.565     1080.130      982.241      422.935        0.751        0.124      111.394       18.658        0.028      337.542        9.585      860.040
01/10/2015  18:19:00     -124.547       45.877      -22.038       46.069       33.225       20.749     2122.373     1103.925      430.530        1.088        0.183      132.728       19.759        0.022      337.511        9.535      860.045
01/10/2015  18:20:00     -124.605       13.630       -9.327       29.814       39.546       23.994      888.864     1563.907      575.721        0.941        0.151      125.348       16.139        0.017      337.467        9.460      860.050
01/10/2015  18:21:00     -132.985       47.738      -21.648       42.062       26.398       16.673     1769.210      696.871      277.994        1.159        0.137      141.293       11.887        0.007      337.549        9.598      860.049
01/10/2015  18:22:00      -67.600       36.199      -11.688       25.408       24.349       20.732      645.558      592.887      429.806        0.384        0.083       76.682       19.669        0.066      337.653        9.771      860.046
01/10/2015  18:23:00      -53.309       18.522       -5.989       17.056       30.010       14.160      290.920      900.593      200.505        0.231        0.070       56.435        9.995        0.031      337.808       10.031      860.053
01/10/2015  18:24:00      -58.358       -8.687       -5.085       22.064       22.197        9.454      486.809      492.702       89.383        0.229        0.053       59.001        7.134        0.015      337.618        9.715      860.055
01/10/2015  18:25:00      -73.344      -24.387       -9.722       30.747       19.053       11.455      945.349      363.008      131.213        0.375        0.072       77.293       11.230        0.021      337.604        9.692      860.060
01/10/2015  18:26:00      -59.574       -6.153       -9.343       24.671       17.968       12.085      608.680      322.843      146.054        0.238        0.054       59.891        9.105        0.023      337.467        9.460      860.077
01/10/2015  18:27:00      -92.923       -1.907      -10.744       35.005       21.476       15.439     1225.371      461.216      238.348        0.534        0.096       92.943       16.661        0.032      337.477        9.478      860.090
01/10/2015  18:28:00     -126.407        2.967      -21.442       23.394       23.229       19.195      547.273      539.582      368.460        0.895        0.073      126.442       15.441        0.015      337.486        9.492      860.096
01/10/2015  18:29:00      -90.990       -2.258      -12.468       27.016       21.684       14.563      729.850      470.214      212.094        0.493        0.071       91.018       12.256        0.018      337.437        9.408      860.120
01/10/2015  18:30:00      -92.776       11.551      -12.328       28.693       19.528       16.403      823.312      381.334      269.055        0.518        0.074       93.493       13.615        0.021      337.544        9.590      860.124
01/10/2015  18:31:00      -85.336        3.398      -12.715       28.815       17.849       11.754      830.326      318.578      138.160        0.437        0.064       85.404       12.491        0.021      337.509        9.531      860.120
01/10/2015  18:32:00      -96.833       -5.078      -16.090       17.798       12.262        9.695      316.779      150.356       94.001        0.511        0.028       96.966        4.848        0.002      337.525        9.558      860.126
01/10/2015  18:33:00     -104.998        0.638      -13.711       25.571       19.653       17.443      653.880      386.222      304.255        0.628        0.067      105.000       15.649        0.022      337.589        9.664      860.123
01/10/2015  18:34:00     -128.036        7.623      -13.785       22.718       16.581       17.453      516.117      274.914      304.622        0.887        0.055      128.263       12.456        0.009      337.645        9.759      860.115
01/10/2015  18:35:00     -122.854       16.474      -17.376       17.205       17.979       12.193      296.013      323.243      148.676        0.822        0.038      123.953        7.057        0.003      337.658        9.782      860.105
01/10/2015  18:36:00     -104.540        0.544      -18.370       20.024       20.112       13.884      400.944      404.483      192.759        0.613        0.050      104.541       11.089        0.011      337.644        9.757      860.093
01/10/2015  18:37:00     -115.123       20.346      -12.865       26.719       21.427       12.830      713.903      459.113      164.604        0.758        0.067      116.907       12.374        0.011      337.632        9.739      860.101
01/10/2015  18:38:00     -123.964       29.116      -12.908       31.793       23.648       15.605     1010.773      559.237      243.502        0.910        0.091      127.338       14.046        0.012      337.511        9.534      860.096
01/10/2015  18:39:00     -135.877       34.656      -15.568       41.233       30.487       18.814     1700.149      929.455      353.983        1.144        0.149      140.227       19.278        0.019      337.477        9.476      860.091
01/10/2015  18:40:00     -138.087       34.127      -19.549       27.910       29.093       16.006      778.990      846.377      256.187        1.125        0.094      142.241        9.607        0.005      337.461        9.450      860.113
01/10/2015  18:41:00     -113.899       20.705      -14.044       40.533       29.647       19.466     1642.917      878.923      378.923        0.825        0.145      115.766       18.710        0.026      337.504        9.522      860.119
01/10/2015  18:42:00     -108.816       31.482      -15.563       32.685       28.053       14.760     1068.299      786.992      217.869        0.757        0.104      113.279       12.976        0.013      337.520        9.549      860.121
01/10/2015  18:43:00     -173.185       28.145      -23.746       31.577       26.874       18.909      997.086      722.220      357.555        1.671        0.104      175.457       15.309        0.008      337.313        9.203      860.125
01/10/2015  18:44:00     -155.887       35.831      -13.889       42.912       27.302       15.492     1841.418      745.399      240.013        1.430        0.141      159.952       17.038        0.011      337.322        9.218      860.120
01/10/2015  18:45:00     -162.978       33.348      -12.185       21.972       20.750       14.923      482.784      430.543      222.704        1.448        0.057      166.355       13.514        0.007      337.278        9.145      860.115
01/10/2015  18:46:00     -126.205       26.238      -11.076       36.575       18.505       19.305     1337.763      342.426      372.681        0.940        0.103      128.903       15.752        0.015      337.277        9.143      860.103
01/10/2015  18:47:00      -76.260        1.250       -9.210       26.967       21.168       18.768      727.206      448.069      352.231        0.371        0.076       76.270       13.764        0.033      337.241        9.084      860.110
01/10/2015  18:48:00      -67.881      -14.199       -3.485       24.444       21.222       14.278      597.531      450.357      203.864        0.304        0.063       69.351       14.092        0.041      337.265        9.125      860.115
01/10/2015  18:49:00      -78.294      -25.440       -4.967       13.937       13.484       11.356      194.238      181.831      128.952        0.365        0.025       82.324        9.811        0.014      337.333        9.236      860.111
01/10/2015  18:50:00      -64.255      -44.270        1.688       15.907       14.316        9.450      253.033      204.955       89.302        0.332        0.027       78.029        9.064        0.013      337.353        9.269      860.105
01/10/2015  18:51:00      -73.406      -30.109        0.138       18.005       16.033       12.850      324.169      257.048      165.121        0.352        0.037       79.341       11.732        0.022      337.397        9.342      860.117
01/10/2015  18:52:00      -65.397      -33.568        0.857       26.120       13.625       11.753      682.273      185.646      138.140        0.320        0.050       73.509        8.471        0.013      337.424        9.388      860.116
01/10/2015  18:53:00      -37.963       -9.251       -2.135       19.924       25.651       14.776      396.973      657.990      218.320        0.140        0.064       39.073       12.390        0.101      337.363        9.285      860.109
01/10/2015  18:54:00      -55.114       -8.206       -6.809        7.486       11.033        7.190       56.036      121.726       51.700        0.169        0.011       55.722        3.504        0.004      337.391        9.331      860.117
01/10/2015  18:55:00      -68.847      -26.657       -7.381       12.415       13.735        9.348      154.126      188.656       87.382        0.297        0.022       73.827        7.793        0.011      337.357        9.276      860.120
01/10/2015  18:56:00      -76.798      -30.675       -5.398       20.105       19.592       10.783      404.194      383.866      116.272        0.389        0.045       82.698        8.741        0.011      337.338        9.245      860.114
01/10/2015  18:57:00     -104.076      -60.445       -9.188       14.874       20.730       15.643      221.232      429.741      244.699        0.773        0.045      120.356       10.967        0.008      337.343        9.253      860.111
01/10/2015  18:58:00      -85.355      -38.892       -3.253       30.215       24.523       14.928      912.964      601.394      222.852        0.527        0.087       93.798       14.694        0.025      337.286        9.157      860.109
01/10/2015  18:59:00     -100.864      -57.017       -2.451       16.924       16.797       14.529      286.430      282.127      211.104        0.710        0.039      115.865       11.240        0.009      337.288        9.161      860.116
01/10/2015  19:00:00     -116.218      -50.232        1.600       25.838       22.836       15.138      667.578      521.505      229.168        0.873        0.071      126.610       14.545        0.013      337.256        9.108      860.113
01/10/2015  19:01:00      -82.096      -49.929       -1.176       34.183       28.695       18.877     1168.474      823.416      356.335        0.579        0.117       96.087       18.528        0.037      337.206        9.024      860.117
01/10/2015  19:02:00      -91.021      -54.359        1.416       32.921       28.000       22.077     1083.805      784.002      487.392        0.680        0.118      106.018       17.720        0.028      337.246        9.092      860.111
01/10/2015  19:03:00      -60.250      -27.117        6.568       37.671       27.567       20.275     1419.087      759.964      411.076        0.350        0.130       66.071       16.858        0.065      337.269        9.129      860.107
01/10/2015  19:04:00      -70.046      -39.730        5.316       42.287       23.922       17.367     1788.200      572.251      301.601        0.459        0.133       80.529       14.956        0.034      337.348        9.262      860.107
01/10/2015  19:05:00      -90.089      -78.896      -10.289       29.714       25.266       22.508      882.924      638.378      506.601        0.824        0.101      119.752       14.764        0.015      337.448        9.429      860.110
01/10/2015  19:06:00      -87.902      -66.238       -0.556       28.352       26.761       13.088      803.832      716.161      171.307        0.690        0.085      110.064        8.750        0.006      337.437        9.411      860.114
01/10/2015  19:07:00      -71.923      -32.320        3.600       44.970       19.998       18.658     2022.340      399.907      348.119        0.450        0.139       78.852       16.949        0.046      337.343        9.253      860.114
01/10/2015  19:08:00      -67.420      -37.774        6.016       39.360       32.458       23.475     1549.221     1053.540      551.058        0.458        0.158       77.281       24.834        0.103      337.362        9.284      860.112
01/10/2015  19:09:00     -110.906      -60.736        1.186       30.073       21.213       15.515      904.392      449.972      240.703        0.879        0.080      126.448       15.966        0.016      337.346        9.258      860.109
01/10/2015  19:10:00      -82.563      -41.581        8.987       35.727       31.617       20.046     1276.414      999.638      401.838        0.565        0.134       92.443       18.236        0.039      337.283        9.153      860.114
01/10/2015  19:11:00     -115.885      -47.707       -1.450       22.964       24.043       18.554      527.364      578.071      344.248        0.858        0.072      125.321       13.521        0.012      337.309        9.197      860.104
01/10/2015  19:12:00     -116.565      -33.339        2.600       31.768       23.896       17.880     1009.189      571.004      319.697        0.830        0.095      121.239       17.953        0.022      337.348        9.263      860.112
01/10/2015  19:13:00     -123.413      -32.199       -2.397       29.736       25.297       16.021      884.223      639.950      256.673        0.903        0.089      127.544       14.936        0.014      337.343        9.253      860.114
01/10/2015  19:14:00     -106.315      -25.998       -5.381       28.437       22.380       18.758      808.638      500.863      351.874        0.683        0.083      109.447       18.884        0.030      337.311        9.198      860.108
01/10/2015  19:15:00     -111.913      -23.689       -7.707       25.784       17.680       16.698      664.825      312.589      278.815        0.720        0.063      114.392       13.913        0.015      337.291        9.167      860.104
01/10/2015  19:16:00     -102.767      -31.306       -2.673       21.671       16.162       11.703      469.621      261.212      136.962        0.621        0.043      107.430        7.796        0.005      337.280        9.147      860.093
01/10/2015  19:17:00      -95.745      -26.189       -6.617       12.380       17.068       14.454      153.271      291.328      208.919        0.528        0.033       99.262        5.009        0.003      337.284        9.154      860.085
01/10/2015  19:18:00      -97.960      -43.074       -2.886       18.901       20.091       13.859      357.239      403.659      192.074        0.621        0.048      107.012       10.174        0.009      337.263        9.118      860.082
01/10/2015  19:19:00     -103.720      -37.847       -6.028       27.335       20.160       14.849      747.199      406.440      220.507        0.680        0.069      110.409       13.366        0.015      337.246        9.090      860.077
01/10/2015  19:20:00     -124.923      -27.126      -10.264       19.952       21.778       17.284      398.064      474.276      298.746        0.881        0.059      127.834       11.099        0.008      337.205        9.023      860.082
01/10/2015  19:21:00     -100.729      -44.665      -11.808       24.384       21.393       12.504      594.559      457.645      156.358        0.674        0.060      110.187       12.333        0.013      337.182        8.984      860.078
01/10/2015  19:22:00     -112.757      -25.895       -6.212       36.054       21.718       16.575     1299.883      471.680      274.742        0.773        0.102      115.692       18.512        0.026      337.206        9.025      860.079
01/10/2015  19:23:00      -89.523      -34.712       -4.805       23.723       18.232       14.233      562.785      332.410      202.591        0.517        0.055       96.017       11.118        0.013      337.176        8.975      860.078
01/10/2015  19:24:00     -104.334      -45.971       -9.195       10.002       11.878       10.683      100.034      141.098      114.117        0.672        0.018      114.013        8.123        0.005      337.199        9.012      860.083
01/10/2015  19:25:00      -91.280      -34.353       -7.733       17.688       17.391       10.050      312.879      302.438      100.994        0.514        0.036       97.531        8.901        0.008      337.195        9.007      860.082
01/10/2015  19:26:00      -74.863      -29.484       -1.818       25.383       18.166       13.046      644.291      329.996      170.208        0.381        0.057       80.460       14.807        0.034      337.185        8.990      860.088
01/10/2015  19:27:00      -61.412      -23.120       -3.358       16.583       12.494       10.354      274.992      156.106      107.208        0.243        0.027       65.620        9.671        0.022      337.101        8.847      860.095
01/10/2015  19:28:00      -62.478      -34.376        0.745       16.143       15.410        9.594      260.605      237.473       92.046        0.284        0.030       71.311        5.926        0.007      337.100        8.845      860.104
01/10/2015  19:29:00      -36.845      -12.989        4.057       20.697       12.344       10.944      428.348      152.382      119.761        0.112        0.035       39.067       11.555        0.087      337.073        8.800      860.119
01/10/2015  19:30:00      -24.810       -6.283       -0.898       19.660        7.876        8.467      386.519       62.029       71.683        0.059        0.026       25.593        9.668        0.143      337.056        8.772      860.125
01/10/2015  19:31:00      -46.131      -17.270        3.293       12.509       12.234        8.844      156.480      149.679       78.220        0.141        0.019       49.258        7.016        0.020      337.084        8.820      860.128
01/10/2015  19:32:00      -52.830      -20.814       -1.421       15.684       10.113        8.357      246.001      102.268       69.846        0.182        0.021       56.782        6.943        0.015      337.108        8.859      860.125
01/10/2015  19:33:00      -56.161      -21.411        0.112       14.260       15.188        7.947      203.335      230.662       63.154        0.205        0.025       60.104        8.086        0.018      337.104        8.851      860.123
01/10/2015  19:34:00      -77.662      -35.999      -10.198       11.934       12.432        8.112      142.412      154.546       65.798        0.390        0.018       85.600        6.479        0.006      337.110        8.862      860.121
01/10/2015  19:35:00      -77.601      -10.473      -10.030       12.625       13.846        8.489      159.399      191.701       72.070        0.333        0.021       78.304        4.853        0.004      337.068        8.791      860.128
01/10/2015  19:36:00      -83.917      -12.266      -14.165       12.311        8.815        8.938      151.568       77.697       79.886        0.385        0.015       84.808        7.076        0.007      337.029        8.726      860.124
01/10/2015  19:37:00      -79.152       -3.077      -14.831       15.928       10.989        9.306      253.696      120.764       86.600        0.348        0.023       79.212        6.460        0.007      337.033        8.733      860.126
01/10/2015  19:38:00      -79.496       -8.603      -11.885       16.780       19.223       12.027      281.567      369.513      144.645        0.367        0.040       79.960        7.215        0.008      337.029        8.727      860.130
01/10/2015  19:39:00      -31.895      -18.091       -1.412       18.775       13.302       12.533      352.494      176.931      157.078        0.102        0.034       36.669       11.853        0.104      336.969        8.625      860.141
01/10/2015  19:40:00      -30.157       -2.706       -4.276       15.100       10.087        9.533      228.014      101.746       90.887        0.068        0.021       30.278        7.018        0.054      336.988        8.659      860.162
01/10/2015  19:41:00      -25.473       -4.228       -1.472        9.968        5.908        7.326       99.352       34.908       53.666        0.043        0.009       25.822        4.587        0.032      336.995        8.671      860.168
01/10/2015  19:42:00      -12.057       -8.715       -5.864        7.701        9.271        5.631       59.305       85.943       31.712        0.022        0.009       14.877        4.502        0.092      337.152        8.934      860.168
01/10/2015  19:43:00       -6.759      -14.255       -3.281        7.425        6.104        5.250       55.125       37.264       27.568        0.019        0.006       15.777        1.675        0.011      337.187        8.994      860.162
01/10/2015  19:44:00       -2.356       -9.421        3.055        2.874        5.914        4.427        8.259       34.980       19.597        0.008        0.003        9.711        2.422        0.062      337.119        8.877      860.165
01/10/2015  19:45:00       -2.687        1.657       10.795        3.514        5.149        4.665       12.346       26.517       21.765        0.009        0.003        3.157        3.668        1.350      337.157        8.943      860.174
01/10/2015  19:46:00       -9.093       -0.221        6.406        3.555        4.389        4.917       12.636       19.265       24.181        0.009        0.003        9.096        3.596        0.156      337.039        8.743      860.179
01/10/2015  19:47:00      -15.808       -7.335       -1.700        8.252        5.690        6.170       68.088       32.374       38.074        0.022        0.007       17.427        2.587        0.022      337.027        8.724      860.182
01/10/2015  19:48:00      -30.525      -17.574       -5.094       14.180        9.452        5.075      201.062       89.334       25.759        0.079        0.016       35.222        2.509        0.005      336.953        8.599      860.190
01/10/2015  19:49:00      -82.481      -41.138       -6.874       23.763       10.463        6.378      564.684      109.484       40.677        0.463        0.036       92.171        5.223        0.003      336.899        8.511      860.195
01/10/2015  19:50:00     -104.721       -8.790       -6.610       14.806       19.671       14.224      219.209      386.964      202.317        0.595        0.040      105.089        9.773        0.009      336.776        8.306      860.207
01/10/2015  19:51:00     -108.226       -8.776       -7.013       12.658       12.261       11.488      160.237      150.320      131.981        0.614        0.022      108.581        6.608        0.004      336.760        8.279      860.224
01/10/2015  19:52:00      -88.595      -13.862       -3.356       23.484       18.998       10.727      551.513      360.921      115.064        0.454        0.051       89.672       12.066        0.018      336.820        8.377      860.240
01/10/2015  19:53:00      -63.670      -20.602        4.363       20.655       20.948       12.737      426.630      438.838      162.238        0.276        0.051       66.920       11.276        0.028      336.823        8.383      860.251
01/10/2015  19:54:00      -59.795      -23.849        4.196       16.838       15.683       11.369      283.507      245.949      129.246        0.241        0.033       64.376        9.881        0.024      336.866        8.454      860.258
01/10/2015  19:55:00      -23.983       -7.041       -2.615       15.736       17.967        8.960      247.624      322.801       80.285        0.064        0.033       24.995        7.717        0.095      336.837        8.405      860.270
01/10/2015  19:56:00      -36.742        7.710       -1.327       14.996        8.644        7.214      224.888       74.710       52.035        0.088        0.018       37.543        7.587        0.041      336.825        8.388      860.279
01/10/2015  19:57:00      -76.861        1.064      -12.720        8.315        6.426        5.796       69.144       41.294       33.595        0.311        0.007       76.868        3.359        0.002      336.971        8.628      860.280
01/10/2015  19:58:00      -71.684       -1.813      -11.277       25.085       11.883        8.465      629.259      141.195       71.656        0.306        0.042       71.707        6.902        0.009      336.957        8.605      860.275
01/10/2015  19:59:00      -40.823      -13.985       -3.391       13.691       12.793        8.431      187.442      163.670       71.084        0.115        0.021       43.152        6.315        0.021      336.860        8.444      860.263
01/10/2015  20:00:00      -55.886       -1.958       -9.406       11.100        8.236        6.885      123.203       67.836       47.402        0.173        0.012       55.920        2.840        0.003      336.843        8.419      860.256
01/10/2015  20:01:00      -60.341        1.556      -14.219        9.412       10.551       10.493       88.584      111.319      110.093        0.208        0.015       60.361        5.978        0.010      336.846        8.422      860.246
01/10/2015  20:02:00      -50.635        2.591      -12.691       10.581       14.779       10.001      111.967      218.420      100.026        0.158        0.022       50.702        6.045        0.014      336.821        8.380      860.242
01/10/2015  20:03:00      -46.942      -12.739      -10.007       10.141       13.113        6.413      102.845      171.954       41.127        0.139        0.016       48.639        3.828        0.006      336.809        8.361      860.247
01/10/2015  20:04:00      -56.950      -10.023      -14.614       10.744        8.757        9.199      115.423       76.681       84.626        0.192        0.014       57.825        5.090        0.008      336.771        8.297      860.252
01/10/2015  20:05:00      -64.621      -14.455      -14.388        8.997       13.887        7.770       80.946      192.846       60.376        0.246        0.017       66.218        4.607        0.005      336.718        8.208      860.272
01/10/2015  20:06:00      -96.332      -28.560      -14.035       29.915       13.095       11.233      894.920      171.479      126.179        0.574        0.060      100.476        7.574        0.006      336.648        8.092      860.287
01/10/2015  20:07:00     -108.807      -38.012      -11.386       23.398       20.133       11.479      547.488      405.335      131.767        0.725        0.054      115.255        7.029        0.004      336.625        8.053      860.301
01/10/2015  20:08:00      -74.122      -21.043       -7.152       17.543       13.956       10.820      307.772      194.759      117.081        0.330        0.031       77.052        7.818        0.010      336.646        8.089      860.312
01/10/2015  20:09:00      -98.496        5.878      -11.459       12.769       14.218        9.879      163.060      202.146       97.591        0.516        0.023       98.671        6.591        0.004      336.728        8.226      860.314
01/10/2015  20:10:00      -72.728       13.215       -7.651        8.643        8.996        7.428       74.708       80.930       55.179        0.287        0.011       73.919        2.552        0.001      336.930        8.561      860.305
01/10/2015  20:11:00      -44.293       11.943       -5.513       10.430        6.271        5.556      108.782       39.332       30.870        0.116        0.009       45.874        5.706        0.015      337.163        8.954      860.298
01/10/2015  20:12:00       -7.709       12.858        1.431       16.715        5.699        7.014      279.391       32.480       49.191        0.029        0.018       14.992        8.277        0.305      337.369        9.297      860.292
01/10/2015  20:13:00        6.509       -1.229        2.008        8.065       12.040        5.717       65.041      144.952       32.687        0.015        0.012        6.624        4.915        0.550      337.491        9.500      860.282
01/10/2015  20:14:00       -5.227      -26.963        1.112       12.107        8.426        8.771      146.586       70.990       76.928        0.052        0.015       27.465        5.969        0.047      337.277        9.142      860.278
01/10/2015  20:15:00        6.857      -19.737        8.246       12.314       20.305       10.533      151.636      412.305      110.935        0.059        0.034       20.894       11.952        0.327      337.168        8.960      860.286
01/10/2015  20:16:00        2.288        4.426        8.955       11.365        8.798        8.321      129.166       77.406       69.239        0.019        0.014        4.982        4.371        0.770      337.049        8.758      860.292
01/10/2015  20:17:00       -2.757       -3.345        8.187        6.978        8.673        4.827       48.688       75.226       23.296        0.012        0.007        4.335        3.262        0.566      337.003        8.682      860.294
01/10/2015  20:18:00       10.960       13.763       19.502       13.151        9.815        7.205      172.949       96.333       51.908        0.051        0.016       17.594        5.561        0.100      337.215        9.039      860.292
01/10/2015  20:19:00       24.606       33.299       23.817       12.990        8.993       10.247      168.741       80.882      105.007        0.132        0.018       41.403        7.166        0.030      337.120        8.879      860.291
01/10/2015  20:20:00       45.129       29.807        7.376       17.994       11.319        6.387      323.770      128.111       40.792        0.174        0.025       54.084        6.335        0.014      337.189        8.996      860.288
01/10/2015  20:21:00       28.533       26.142       -0.199       15.843       18.523       10.417      250.990      343.084      108.519        0.110        0.035       38.698       10.462        0.073      337.191        9.000      860.291
01/10/2015  20:22:00       23.082       15.914       -0.614       12.708       11.666        8.149      161.502      136.107       66.401        0.058        0.018       28.036        3.731        0.018      337.168        8.961      860.295
01/10/2015  20:23:00       22.780       -3.129        1.315        9.198        9.900        5.590       84.612       98.006       31.243        0.037        0.011       22.994        5.949        0.067      337.085        8.818      860.294
01/10/2015  20:24:00        9.456       -2.496        5.029        7.385        7.205        6.460       54.543       51.917       41.736        0.013        0.007        9.780        3.977        0.165      336.983        8.649      860.295
01/10/2015  20:25:00        5.945        5.666       12.221       10.066       13.015        9.360      101.322      169.385       87.611        0.029        0.018        8.212        9.853        1.439      336.942        8.581      860.281
01/10/2015  20:26:00        4.780        8.160       12.818       10.879       13.014        8.947      118.348      169.372       80.045        0.031        0.018        9.457        6.898        0.532      336.992        8.665      860.280
01/10/2015  20:27:00       21.355       -6.708       17.087       21.907       17.838       14.590      479.898      318.188      212.882        0.090        0.051       22.384       13.987        0.390      337.135        8.904      860.283
01/10/2015  20:28:00       36.343      -43.112        4.488       25.622       21.136       18.428      656.480      446.731      339.592        0.232        0.072       56.386       15.206        0.073      337.267        9.125      860.282
01/10/2015  20:29:00       52.199      -42.624       -4.342       23.883       17.254       15.924      570.388      297.686      253.579        0.284        0.056       67.390       11.308        0.028      337.302        9.184      860.284
01/10/2015  20:30:00      -18.587      -20.651        2.882       13.545       11.654       11.271      183.480      135.816      127.043        0.061        0.022       27.784        8.328        0.090      337.082        8.816      860.297
01/10/2015  20:31:00       -4.101       -1.963        9.687        7.495        4.505        4.421       56.181       20.292       19.547        0.011        0.005        4.547        1.630        0.129      337.082        8.816      860.308
01/10/2015  20:32:00       -1.076       10.792       18.985        7.518       11.366       10.928       56.515      129.186      119.426        0.039        0.015       10.846        6.005        0.307      337.153        8.937      860.324
01/10/2015  20:33:00       -8.589      -12.998        6.394        7.531        6.675        5.962       56.713       44.550       35.547        0.021        0.007       15.579        3.985        0.065      336.866        8.455      860.336
01/10/2015  20:34:00       -7.159      -13.691        3.043        8.670        5.611        8.910       75.168       31.482       79.391        0.022        0.009       15.450        5.358        0.120      336.785        8.319      860.350
01/10/2015  20:35:00        2.694       -7.273       -1.159       14.905        8.731        4.219      222.159       76.238       17.796        0.019        0.016        7.756        4.801        0.383      336.984        8.655      860.356
01/10/2015  20:36:00       14.184       10.727       -0.414        9.343        7.532        6.377       87.286       56.735       40.670        0.025        0.009       17.784        6.013        0.114      337.209        9.030      860.359
01/10/2015  20:37:00        0.235        0.465        7.819        6.063        2.854        4.204       36.757        8.148       17.672        0.006        0.003        0.521        1.362        6.829      337.026        8.721      860.359
01/10/2015  20:38:00       18.050       20.273        6.745        8.738        8.841        7.357       76.347       78.163       54.123        0.050        0.010       27.144        4.182        0.024      337.125        8.888      860.360
01/10/2015  20:39:00       15.169       21.986       13.142       16.179       13.198       10.544      261.767      174.199      111.177        0.072        0.027       26.711        8.471        0.101      337.069        8.793      860.363
01/10/2015  20:40:00       41.127       24.344       10.471       12.079       16.031       12.419      145.905      256.987      154.232        0.148        0.028       47.792        5.869        0.015      337.092        8.831      860.362
01/10/2015  20:41:00       38.937       10.930        7.160       11.464        9.903        9.493      131.428       98.063       90.110        0.100        0.016       40.442        7.910        0.038      336.972        8.630      860.364
01/10/2015  20:42:00       31.998        1.825        6.967       17.179       11.981       10.852      295.105      143.546      117.764        0.082        0.028       32.050        8.666        0.073      337.015        8.704      860.367
01/10/2015  20:43:00       23.211       14.316       17.306       15.692       15.283       14.035      246.236      233.568      196.984        0.086        0.034       27.271       14.620        0.287      336.986        8.653      860.369
01/10/2015  20:44:00       33.940       11.678       30.635       30.003       15.611       14.023      900.204      243.692      196.653        0.178        0.067       35.893       12.511        0.121      337.016        8.703      860.367
01/10/2015  20:45:00       29.697       30.649       39.310       37.627       29.824       20.647     1415.820      889.471      426.316        0.305        0.137       42.676       26.531        0.386      337.102        8.848      860.368
01/10/2015  20:46:00       21.722       21.415       37.926       26.084       17.407       16.908      680.392      302.999      285.881        0.182        0.063       30.503       14.566        0.228      337.108        8.858      860.371
01/10/2015  20:47:00       61.640        2.085       27.967       21.493       22.871       17.430      461.938      523.105      303.815        0.294        0.064       61.675       17.708        0.082      337.120        8.879      860.375
01/10/2015  20:48:00       34.714       -7.758       11.073       31.334       24.649       16.479      981.805      607.552      271.552        0.162        0.093       35.570       17.274        0.236      337.099        8.843      860.380
01/10/2015  20:49:00       13.434        9.473       13.253       17.118        9.214        9.187      293.039       84.896       84.405        0.045        0.023       16.438        6.734        0.168      337.045        8.755      860.396
01/10/2015  20:50:00       -6.734        2.113       11.551        6.140        8.177        5.909       37.696       66.870       34.917        0.016        0.007        7.058        4.765        0.456      337.053        8.766      860.406
01/10/2015  20:51:00      -21.760      -26.326       -2.436       10.548        8.455        8.614      111.264       71.487       74.193        0.071        0.013       34.155        7.115        0.043      336.695        8.169      860.429
01/10/2015  20:52:00      -57.860      -20.802       -9.636       17.236       10.944        7.661      297.070      119.777       58.694        0.217        0.024       61.486        5.767        0.009      336.445        7.750      860.446
01/10/2015  20:53:00      -83.465      -29.354       -6.807        8.833       15.605        7.452       78.027      243.517       55.532        0.413        0.019       88.477        6.373        0.005      336.365        7.619      860.468
01/10/2015  20:54:00      -98.108      -11.947       -4.950       18.426       19.294       14.938      339.517      372.242      223.147        0.536        0.047       98.833       11.187        0.013      336.324        7.551      860.485
01/10/2015  20:55:00      -99.825        9.772       -8.976       17.521       13.006       14.263      306.972      169.167      203.437        0.541        0.034      100.302        9.998        0.010      336.397        7.670      860.503
01/10/2015  20:56:00      -80.963       -7.574       -8.283       14.174       14.045        9.376      200.901      197.257       87.909        0.358        0.024       81.316        8.277        0.010      336.473        7.797      860.516
01/10/2015  20:57:00      -89.683      -16.846      -11.915       13.860       11.183        9.048      192.107      125.067       81.867        0.443        0.020       91.251        6.760        0.005      336.510        7.862      860.532
01/10/2015  20:58:00      -83.015      -22.528       -8.902       10.108       13.029        9.708      102.168      169.757       94.236        0.392        0.018       86.018        6.415        0.006      336.519        7.876      860.542
01/10/2015  20:59:00      -69.075      -26.160       -1.585       16.802       15.626       11.656      282.306      244.179      135.869        0.306        0.033       73.862        8.988        0.015      336.493        7.833      860.551
01/10/2015  21:00:00      -88.056      -22.669       -6.095       17.868       14.263        9.082      319.279      203.444       82.474        0.445        0.030       90.927        6.349        0.005      336.492        7.829      860.552
01/10/2015  21:01:00      -82.843      -20.504       -3.471       14.378       16.184       10.912      206.731      261.918      119.068        0.394        0.029       85.342        8.870        0.011      336.481        7.811      860.553
01/10/2015  21:02:00      -98.900       -9.059      -11.364       10.253       10.618       12.483      105.115      112.736      155.836        0.518        0.019       99.314        4.835        0.002      336.454        7.765      860.554
01/10/2015  21:03:00      -91.454       -9.265       -6.418       15.565       11.765        9.487      242.270      138.408       89.996        0.448        0.024       91.922        8.088        0.008      336.460        7.776      860.552
01/10/2015  21:04:00      -92.302       -4.590      -11.476       11.145       12.137        9.346      124.204      147.302       87.352        0.452        0.018       92.416        5.186        0.003      336.448        7.756      860.549
01/10/2015  21:05:00      -93.506       -8.749      -11.617       20.596       14.677       11.323      424.197      215.425      128.209        0.486        0.038       93.914        9.041        0.009      336.480        7.811      860.546
01/10/2015  21:06:00      -76.830      -17.310       -4.521       21.782       14.521       10.716      474.449      210.861      114.826        0.351        0.040       78.756        8.402        0.011      336.453        7.764      860.554
01/10/2015  21:07:00      -73.764      -16.241       -4.215       16.666       15.111       13.006      277.768      228.346      169.163        0.320        0.034       75.530        9.134        0.015      336.433        7.731      860.560
01/10/2015  21:08:00      -74.990      -11.780       -2.288       20.082       14.226       13.364      403.286      202.370      178.584        0.328        0.039       75.910       13.539        0.032      336.413        7.698      860.568
01/10/2015  21:09:00      -88.842      -14.765       -7.467       11.883        9.616       10.602      141.216       92.470      112.406        0.426        0.017       90.061        5.223        0.003      336.466        7.787      860.567
01/10/2015  21:10:00      -95.396      -14.101       -7.883       19.622       11.702       10.286      385.021      136.942      105.798        0.499        0.031       96.433       10.321        0.011      336.419        7.708      860.562
01/10/2015  21:11:00     -102.921      -16.855      -12.467        6.309        6.638        5.420       39.801       44.062       29.378        0.557        0.006      104.292        2.252        0.000      336.402        7.681      860.559
01/10/2015  21:12:00     -114.641       -4.044      -10.680       12.459        9.615       11.279      155.238       92.449      127.225        0.682        0.019      114.712        8.150        0.005      336.468        7.791      860.551
01/10/2015  21:13:00     -114.289       -1.131      -11.357       13.865        9.495        9.382      192.241       90.148       88.013        0.678        0.019      114.295        6.673        0.003      336.446        7.753      860.545
01/10/2015  21:14:00      -96.193        3.517       -9.486       13.629       11.996        6.479      185.751      143.907       41.980        0.486        0.019       96.257        3.817        0.002      336.465        7.783      860.543
01/10/2015  21:15:00      -57.999        5.523       -8.433       20.442        9.535        9.247      417.895       90.915       85.512        0.203        0.030       58.262        8.934        0.024      336.473        7.798      860.538
01/10/2015  21:16:00      -42.868        7.552      -13.006       12.900       10.863        9.788      166.416      118.000       95.812        0.122        0.019       43.529        9.036        0.043      336.568        7.959      860.544
01/10/2015  21:17:00      -58.432       -0.814      -11.668       10.813        9.847        8.121      116.928       96.968       65.950        0.192        0.014       58.437        3.514        0.004      336.512        7.864      860.546
01/10/2015  21:18:00      -79.353       -2.096      -10.550       15.801        9.088        9.554      249.684       82.584       91.274        0.342        0.021       79.381        4.289        0.003      336.504        7.850      860.547
01/10/2015  21:19:00      -60.995       -5.568       -8.534       22.003       10.656       11.574      484.127      113.544      133.946        0.228        0.037       61.249       12.968        0.045      336.463        7.782      860.544
01/10/2015  21:20:00      -59.202      -12.153       -9.880       10.382        8.662        7.866      107.782       75.035       61.873        0.200        0.012       60.436        6.019        0.010      336.396        7.668      860.544
01/10/2015  21:21:00      -37.627      -22.928       -9.921        9.033        8.084        6.287       81.598       65.348       39.532        0.111        0.009       44.062        3.937        0.008      336.389        7.657      860.544
01/10/2015  21:22:00      -30.487      -12.136       -7.264        9.713        8.961        4.890       94.335       80.303       23.908        0.066        0.010       32.814        2.517        0.006      336.458        7.775      860.546
01/10/2015  21:23:00      -18.325       -5.378       -6.727        8.651        6.806        5.125       74.834       46.327       26.264        0.028        0.007       19.098        5.553        0.085      336.595        8.003      860.547
01/10/2015  21:24:00       -4.579      -11.236       -1.888        4.153        7.626        4.302       17.251       58.149       18.508        0.012        0.005       12.133        3.088        0.065      336.590        7.995      860.539
01/10/2015  21:25:00        1.557       -4.459        0.210        4.035        4.370        3.438       16.278       19.100       11.819        0.003        0.002        4.723        2.252        0.227      336.715        8.205      860.534
01/10/2015  21:26:00       -1.185       -2.793        8.507        2.728        3.535        2.915        7.441       12.499        8.495        0.006        0.001        3.034        1.222        0.162      336.782        8.315      860.533
01/10/2015  21:27:00       -0.776       -1.835        7.150        3.437        3.195        3.398       11.811       10.207       11.546        0.004        0.002        1.993        1.309        0.432      336.800        8.346      860.535
01/10/2015  21:28:00       -0.864        5.795       11.031        4.743        5.091        5.439       22.498       25.922       29.587        0.012        0.004        5.859        4.525        0.597      336.672        8.132      860.536
01/10/2015  21:29:00        1.631        9.808       10.639        6.321        5.465        5.184       39.950       29.867       26.869        0.015        0.005        9.943        4.087        0.169      336.630        8.064      860.553
01/10/2015  21:30:00        3.389        6.994        3.190        4.581        6.358        5.258       20.984       40.430       27.649        0.008        0.004        7.772        3.842        0.244      336.650        8.099      860.569
01/10/2015  21:31:00       -8.181       -1.846        4.309        6.074        3.601        3.180       36.899       12.969       10.112        0.007        0.003        8.387        2.447        0.085      336.611        8.028      860.585
01/10/2015  21:32:00      -37.277       -3.724       -2.701        6.417        6.175        5.346       41.173       38.129       28.581        0.076        0.005       37.463        3.310        0.008      336.336        7.569      860.595
01/10/2015  21:33:00      -41.685       -8.648       -6.308        5.667        6.412        5.213       32.113       41.114       27.178        0.098        0.005       42.573        3.401        0.006      336.264        7.448      860.605
01/10/2015  21:34:00      -49.541      -15.407       -4.224        6.598        6.946        8.005       43.534       48.243       64.082        0.143        0.008       51.881        3.212        0.004      336.170        7.290      860.611
01/10/2015  21:35:00      -54.502      -13.270      -11.426       10.117       10.199        7.965      102.348      104.013       63.436        0.177        0.013       56.095        3.654        0.004      336.140        7.241      860.618
01/10/2015  21:36:00      -60.953      -19.185       -9.738       15.550       19.028       11.916      241.801      362.060      141.991        0.246        0.037       63.901        9.009        0.020      336.070        7.122      860.622
01/10/2015  21:37:00      -75.407      -12.554       -9.755       18.331       14.888       11.970      336.014      221.642      143.270        0.332        0.035       76.444        6.519        0.007      336.097        7.169      860.623
01/10/2015  21:38:00      -89.674      -11.811      -14.708       21.681       19.924       11.505      470.072      396.964      132.373        0.470        0.050       90.448        6.912        0.006      336.106        7.183      860.625
01/10/2015  21:39:00      -82.964      -14.003      -10.398       20.852       14.558       12.856      434.805      211.927      165.277        0.400        0.041       84.137        7.445        0.008      336.096        7.166      860.627
01/10/2015  21:40:00      -97.097      -11.007       -9.726       23.600       17.511       15.463      556.974      306.639      239.107        0.537        0.055       97.719       11.536        0.014      336.116        7.203      860.620
01/10/2015  21:41:00     -109.796      -18.484      -13.846       18.583       21.401       10.836      345.317      457.999      117.408        0.675        0.046      111.341        8.090        0.005      336.157        7.269      860.617
01/10/2015  21:42:00      -93.488      -13.553      -10.430       27.303       21.904       16.116      745.464      479.770      259.719        0.526        0.074       94.465       11.007        0.014      336.162        7.278      860.620
01/10/2015  21:43:00     -102.804      -11.028      -11.226       30.491       16.238       11.533      929.683      263.665      133.011        0.607        0.066      103.394        8.213        0.006      336.172        7.294      860.621
01/10/2015  21:44:00      -89.532      -16.433       -7.595       22.307       20.896       15.705      497.611      436.636      246.660        0.476        0.059       91.028       14.059        0.024      336.145        7.251      860.630
01/10/2015  21:45:00     -101.722       -8.635       -5.776       36.367       22.556       16.467     1322.586      508.758      271.149        0.628        0.105      102.088       15.744        0.024      336.125        7.216      860.638
01/10/2015  21:46:00      -89.984      -17.826       -5.841       31.103       20.263       14.860      967.377      410.576      220.821        0.502        0.080       91.733        9.564        0.011      336.101        7.176      860.652
01/10/2015  21:47:00      -76.953      -20.128      -11.160       13.826       18.248       11.757      191.166      332.995      138.223        0.356        0.033       79.542        6.932        0.008      336.140        7.241      860.664
01/10/2015  21:48:00      -24.614      -27.987      -10.370       23.154       17.710       17.232      536.109      313.635      296.945        0.132        0.057       37.271       13.753        0.136      336.214        7.366      860.674
01/10/2015  21:49:00       -9.857      -29.402        6.575       19.956       13.576       13.142      398.222      184.316      172.700        0.088        0.038       31.010        7.728        0.062      336.261        7.444      860.685
01/10/2015  21:50:00      -37.698      -12.801       -2.553       18.949        9.490        9.019      359.066       90.051       81.334        0.106        0.027       39.812        9.095        0.052      336.227        7.388      860.698
01/10/2015  21:51:00      -66.118       -9.156       -2.646       12.517       10.232        9.732      156.679      104.698       94.713        0.241        0.018       66.749        7.001        0.011      336.238        7.404      860.710
01/10/2015  21:52:00      -63.065        0.212       -7.215        8.933       12.035        8.112       79.804      144.847       65.799        0.216        0.015       63.065        3.268        0.003      336.308        7.522      860.724
01/10/2015  21:53:00      -51.613       -6.958       -2.308       12.172       11.399        9.305      148.157      129.928       86.586        0.154        0.018       52.080        7.523        0.021      336.293        7.497      860.745
01/10/2015  21:54:00      -58.425        1.062       -3.236       20.792       13.050       11.241      432.325      170.302      126.353        0.208        0.036       58.434       12.020        0.042      336.279        7.475      860.759
01/10/2015  21:55:00      -77.472       -9.216      -11.888       16.299       11.470       10.514      265.671      131.564      110.540        0.337        0.025       78.018        6.267        0.006      336.213        7.365      860.773
01/10/2015  21:56:00      -52.711       -4.538       -4.755       14.117       20.636       11.785      199.279      425.862      138.885        0.179        0.038       52.906        7.983        0.023      336.172        7.296      860.791
01/10/2015  21:57:00      -70.735       26.074      -19.340       14.278       18.622       13.272      203.859      346.778      176.141        0.339        0.036       75.388        8.255        0.012      336.220        7.375      860.813
01/10/2015  21:58:00      -61.697       22.104       -9.930       17.686       16.499       12.349      312.791      272.219      152.502        0.257        0.037       65.537        4.609        0.005      336.277        7.470      860.830
01/10/2015  21:59:00      -56.788       31.141       -7.363       20.789       20.317       16.323      432.181      412.766      266.450        0.268        0.056       64.766       13.628        0.044      336.328        7.555      860.842
01/10/2015  22:00:00      -30.092       67.253      -10.412       23.630       38.749       14.378      558.363     1501.502      206.716        0.390        0.113       73.678        5.728        0.006      336.548        7.925      860.849
01/10/2015  22:01:00      -11.105      127.195      -14.677       11.916       13.043       10.416      141.986      170.123      108.500        0.847        0.021      127.679        4.651        0.001      336.517        7.874      860.846
01/10/2015  22:02:00        3.508      139.271      -13.255       17.421       19.953       13.078      303.478      398.122      171.025        1.023        0.044      139.315       10.225        0.005      336.624        8.052      860.840
01/10/2015  22:03:00       21.287      133.674      -18.275       14.274       18.577       12.020      203.754      345.096      144.478        0.967        0.035      135.358        9.966        0.005      336.654        8.102      860.829
01/10/2015  22:04:00       22.343       70.242       -6.418       19.416       28.888       17.896      376.977      834.518      320.273        0.350        0.077       73.710       14.582        0.039      336.533        7.899      860.825
01/10/2015  22:05:00       22.099       72.403       -6.689       17.979       31.360       16.403      323.232      983.424      269.060        0.368        0.079       75.700       15.745        0.043      336.595        8.003      860.807
01/10/2015  22:06:00       17.731       45.942       -6.449       16.860       21.752       14.109      284.263      473.131      199.056        0.171        0.048       49.245       10.943        0.049      336.594        8.001      860.801
01/10/2015  22:07:00       51.019       29.730        4.103       21.776       15.690       15.379      474.211      246.179      236.520        0.223        0.048       59.049       12.515        0.045      336.669        8.127      860.788
01/10/2015  22:08:00       74.688       40.517        9.346       20.115       14.004       17.132      404.619      196.122      293.514        0.410        0.045       84.970       12.255        0.021      336.758        8.276      860.775
01/10/2015  22:09:00       58.537       31.274        6.727       19.287       15.518       13.105      371.993      240.800      171.750        0.262        0.039       66.367       10.022        0.023      336.711        8.196      860.765
01/10/2015  22:10:00       61.295       23.168       10.906       19.015       23.160       14.762      361.569      536.400      217.904        0.276        0.056       65.527       10.280        0.025      336.720        8.212      860.765
01/10/2015  22:11:00       38.240       12.419       24.382       17.126       18.835       17.448      293.307      354.773      304.441        0.158        0.048       40.206       14.195        0.125      336.730        8.230      860.754
01/10/2015  22:12:00       42.423        6.201       25.432       22.353       14.738       20.759      499.643      217.198      430.951        0.182        0.057       42.874       12.377        0.083      336.769        8.293      860.757
01/10/2015  22:13:00       48.261        4.616       26.466       22.882       19.011       21.177      523.573      361.400      448.482        0.219        0.067       48.481       18.049        0.139      336.810        8.363      860.764
01/10/2015  22:14:00       43.806       13.876       27.960       27.087       18.843       18.270      733.717      355.073      333.808        0.216        0.071       45.951       12.876        0.079      336.839        8.409      860.764
01/10/2015  22:15:00       37.574       14.338       24.211       27.151       26.709       19.826      737.187      713.346      393.077        0.202        0.092       40.217       21.201        0.278      336.824        8.385      860.773
01/10/2015  22:16:00       34.680       10.999       31.509       48.593       19.116       23.178     2361.311      365.406      537.203        0.279        0.163       36.382       27.387        0.567      336.906        8.522      860.782
01/10/2015  22:17:00       18.626       23.872       50.165       31.828       30.996       19.951     1013.002      960.744      398.032        0.290        0.119       30.279       23.452        0.600      336.951        8.595      860.782
01/10/2015  22:18:00       15.134       -3.796       14.269       20.189       16.578       13.659      407.587      274.829      186.576        0.066        0.043       15.603       12.952        0.689      336.970        8.628      860.781
01/10/2015  22:19:00        4.718      -10.072       20.792       12.889       13.420        8.519      166.128      180.108       72.580        0.049        0.021       11.123        5.224        0.221      336.941        8.579      860.785
01/10/2015  22:20:00      -14.249      -18.500       -0.988        9.016       16.346       10.716       81.284      267.205      114.828        0.050        0.023       23.351        5.756        0.061      336.880        8.479      860.792
01/10/2015  22:21:00      -17.293      -18.226       -3.110       11.192       12.790        5.229      125.252      163.574       27.344        0.048        0.016       25.124        6.135        0.060      336.835        8.403      860.802
01/10/2015  22:22:00      -39.982      -35.287       -8.843       18.024        9.057        7.505      324.851       82.034       56.330        0.169        0.023       53.327        8.919        0.028      336.775        8.305      860.814
01/10/2015  22:23:00      -11.317      -32.339       -0.716       10.749       18.831        8.444      115.537      354.609       71.306        0.086        0.027       34.262        9.533        0.077      336.735        8.237      860.824
01/10/2015  22:24:00      -58.059      -22.326       -1.677       15.047       12.763        8.587      226.415      162.898       73.745        0.217        0.023       62.204        6.256        0.010      336.601        8.014      860.834
01/10/2015  22:25:00      -89.736      -31.782        1.052       25.371       21.913       19.034      643.667      480.181      362.297        0.527        0.074       95.198       16.749        0.031      336.614        8.035      860.850
01/10/2015  22:26:00      -76.391      -28.443        2.976       31.445       28.092       15.636      988.804      789.159      244.477        0.434        0.101       81.515       15.889        0.038      336.545        7.920      860.855
01/10/2015  22:27:00      -59.425      -12.378        3.366       29.719       23.649       15.811      883.197      559.293      249.986        0.269        0.085       60.701       14.688        0.059      336.470        7.793      860.862
01/10/2015  22:28:00      -31.884      -12.527        4.359       24.346       18.496       15.562      592.708      342.103      242.164        0.118        0.059       34.256       15.549        0.206      336.436        7.736      860.877
01/10/2015  22:29:00      -70.260        6.719       -4.964       20.937       21.325       10.116      438.376      454.743      102.341        0.300        0.050       70.580        7.047        0.010      336.399        7.674      860.894
01/10/2015  22:30:00      -63.546       -6.648       -1.899       27.695       24.858       15.808      767.033      617.901      249.893        0.286        0.082       63.893       14.777        0.053      336.382        7.648      860.914
01/10/2015  22:31:00      -67.232        0.846       -0.342       33.032       22.601       20.426     1091.115      510.811      417.241        0.327        0.101       67.238       14.788        0.048      336.379        7.641      860.933
01/10/2015  22:32:00      -46.398       -4.343        5.452       32.514       26.028       19.039     1057.163      677.449      362.494        0.215        0.105       46.601       14.907        0.102      336.334        7.566      860.955
01/10/2015  22:33:00      -77.121        5.529       -0.301       37.421       29.252       18.922     1400.298      855.652      358.041        0.430        0.131       77.319       18.732        0.059      336.335        7.568      860.977
01/10/2015  22:34:00     -113.070       20.907       -8.726       28.025       32.969       16.438      785.387     1086.926      270.199        0.772        0.107      114.986       11.054        0.009      336.435        7.736      861.000
01/10/2015  22:35:00     -110.242       24.503       -3.364       28.693       20.524       19.845      823.290      421.239      393.825        0.720        0.082      112.933       16.669        0.022      336.565        7.953      861.016
01/10/2015  22:36:00      -77.693        7.127       -9.293       28.316       21.811       13.592      801.794      475.712      184.741        0.382        0.073       78.020       12.299        0.025      336.614        8.035      861.026
01/10/2015  22:37:00      -42.564       21.324       -4.285       27.131       19.677       15.288      736.088      387.179      233.725        0.182        0.068       47.607       11.485        0.058      336.679        8.142      861.032
01/10/2015  22:38:00      -50.651        4.578       -8.394       17.289       14.519       13.712      298.920      210.804      188.019        0.168        0.035       50.857        7.236        0.020      336.736        8.236      861.035
01/10/2015  22:39:00      -37.517       14.427       -3.594       17.807       19.056       10.242      317.084      363.133      104.896        0.121        0.039       40.195        5.330        0.018      336.719        8.211      861.031
01/10/2015  22:40:00       -8.537        1.837       -1.148        9.236        6.368        6.275       85.300       40.547       39.377        0.012        0.008        8.732        3.819        0.191      336.693        8.169      861.026
01/10/2015  22:41:00        5.257       -1.650        1.568        4.900       10.305        6.828       24.008      106.198       46.616        0.010        0.009        5.509        7.062        1.643      336.724        8.220      861.017
01/10/2015  22:42:00       13.673       20.135       19.153       10.842        8.178        9.816      117.548       66.878       96.362        0.062        0.014       24.339        5.878        0.058      336.670        8.129      861.016
01/10/2015  22:43:00       44.558       44.869       19.999       16.809        9.887       12.377      282.531       97.751      153.192        0.247        0.027       63.234        8.888        0.020      336.657        8.108      861.007
01/10/2015  22:44:00       62.678       45.892       17.011       12.484       12.732       15.184      155.842      162.111      230.553        0.344        0.027       77.683        8.319        0.011      336.751        8.264      860.997
01/10/2015  22:45:00       48.269       30.635       13.683       23.828       16.877       13.260      567.793      284.831      175.822        0.224        0.051       57.170       10.505        0.034      336.699        8.179      860.984
01/10/2015  22:46:00        2.984       17.637       13.201       10.342       10.519       10.227      106.954      110.649      104.584        0.041        0.016       17.887        6.640        0.138      336.687        8.156      860.992
01/10/2015  22:47:00      -21.531       33.288       -7.547       22.998       15.680       10.293      528.926      245.868      105.942        0.125        0.044       39.644       12.234        0.095      336.760        8.279      861.014
01/10/2015  22:48:00      -74.720       30.804      -14.843       18.151       18.125       11.219      329.449      328.509      125.877        0.377        0.039       80.820        9.876        0.015      336.614        8.036      861.033
01/10/2015  22:49:00      -68.356       24.767      -13.309       31.324       35.026       16.924      981.204     1226.838      286.413        0.398        0.125       72.704       10.904        0.022      336.446        7.752      861.046
01/10/2015  22:50:00     -135.100       33.549      -18.829       40.874       33.119       21.829     1670.679     1096.878      476.523        1.149        0.162      139.204       14.155        0.010      336.263        7.448      861.048
01/10/2015  22:51:00      -50.991        5.956      -16.047       41.508       22.460       11.078     1722.916      504.434      122.716        0.262        0.118       51.338       14.782        0.083      336.351        7.593      861.035
01/10/2015  22:52:00       22.575        5.150        7.730       16.697       16.901       15.558      278.781      285.638      242.062        0.070        0.040       23.155       12.524        0.293      336.581        7.981      861.001
01/10/2015  22:53:00       19.869       37.041       50.096       17.280       29.642       14.571      298.608      878.661      212.303        0.283        0.069       42.034       16.463        0.153      336.556        7.938      860.980
01/10/2015  22:54:00       20.833       73.551       65.571       22.015       27.987       22.539      484.655      783.257      508.001        0.596        0.089       76.444       18.094        0.056      336.548        7.924      860.952
01/10/2015  22:55:00       55.039       94.794       63.774       36.855       29.335       29.148     1358.273      860.554      849.592        0.957        0.153      109.614       17.647        0.026      336.579        7.977      860.929
01/10/2015  22:56:00       67.949       58.217       38.143       56.972       26.343       37.094     3245.777      693.975     1375.943        0.739        0.266       89.477       36.648        0.168      336.623        8.049      860.916
01/10/2015  22:57:00       77.071       64.337       36.341       37.102       23.275       26.864     1376.558      541.737      721.656        0.702        0.132      100.395       15.419        0.024      336.590        7.995      860.908
01/10/2015  22:58:00       60.907       58.228       47.110       24.650       22.843       23.155      607.611      521.814      536.145        0.549        0.083       84.262       17.052        0.041      336.544        7.919      860.897
01/10/2015  22:59:00       88.128       46.495       17.434       29.187       24.980       23.695      851.908      624.015      561.433        0.613        0.102       99.641       14.236        0.020      336.581        7.981      860.889
01/10/2015  23:00:00       92.760       52.174       14.115       32.714       36.925       24.579     1070.209     1363.452      604.111        0.728        0.152      106.426       19.932        0.035      336.584        7.987      860.877
01/10/2015  23:01:00      100.775       34.414       17.758       36.817       31.044       27.955     1355.482      963.737      781.464        0.738        0.155      106.489       13.343        0.016      336.647        8.091      860.872
01/10/2015  23:02:00      103.095       50.742       23.117       29.908       29.264       25.339      894.466      856.407      642.067        0.806        0.120      114.906       15.870        0.019      336.687        8.157      860.867
01/10/2015  23:03:00       84.181       58.232       39.459       26.894       23.166       30.261      723.285      536.660      915.753        0.710        0.109      102.359       13.239        0.017      336.646        8.089      860.858
01/10/2015  23:04:00       55.935       56.321       56.798       45.184       28.708       28.990     2041.557      824.138      840.424        0.662        0.185       79.378       27.739        0.122      336.617        8.039      860.849
01/10/2015  23:05:00       51.610       71.942       76.619       50.552       32.173       27.517     2555.486     1035.086      757.205        0.903        0.217       88.539       22.206        0.063      336.576        7.971      860.847
01/10/2015  23:06:00       60.894       57.207       75.986       48.095       40.560       32.602     2313.081     1645.099     1062.890        0.889        0.251       83.550       30.069        0.130      336.597        8.007      860.849
01/10/2015  23:07:00       12.680        4.473       65.718       36.443       63.767       35.842     1328.113     4066.241     1284.640        0.559        0.334       13.446       37.818        7.911      336.579        7.976      860.848
01/10/2015  23:08:00       37.673      -40.966        4.762       49.274       54.768       33.797     2427.882     2999.535     1142.206        0.484        0.328       55.655       38.757        0.485      336.567        7.957      860.846
01/10/2015  23:09:00       77.135      -90.105       -5.226       32.631       43.769       30.441     1064.760     1915.692      926.641        0.900        0.195      118.611       28.138        0.056      336.604        8.018      860.853
01/10/2015  23:10:00       11.461      -56.209      -10.910       30.550       33.272       16.585      933.285     1107.055      275.052        0.286        0.116       57.366        9.099        0.025      336.693        8.167      860.872
01/10/2015  23:11:00      -65.023      -22.580       -2.034       51.380       16.067       12.586     2639.896      258.133      158.407        0.390        0.153       68.832       19.997        0.084      336.581        7.980      860.888
01/10/2015  23:12:00     -121.308      -63.549        1.149       33.354       26.766       19.098     1112.479      716.396      364.736        1.047        0.110      136.946       13.846        0.010      336.539        7.909      860.899
01/10/2015  23:13:00     -119.654      -92.448        1.950       50.342       44.544       26.453     2534.277     1984.152      699.749        1.404        0.261      151.208       26.690        0.031      336.529        7.892      860.892
01/10/2015  23:14:00     -120.915      -56.647        3.156       50.609       27.775       27.295     2561.230      771.453      745.040        1.096        0.204      133.526       25.856        0.037      336.554        7.933      860.891
01/10/2015  23:15:00      -99.063      -54.747      -13.676       56.133       41.474       17.571     3150.935     1720.070      308.731        0.909        0.259      113.184       17.472        0.024      336.549        7.925      860.894
01/10/2015  23:16:00      -63.216      -50.286        6.044       36.920       26.191       22.956     1363.120      685.990      526.964        0.457        0.129       80.778       20.474        0.064      336.545        7.917      860.891
01/10/2015  23:17:00      -49.552      -28.202        0.770       35.996       28.549       14.179     1295.715      815.057      201.034        0.278        0.116       57.015       18.319        0.103      336.606        8.020      860.889
01/10/2015  23:18:00        9.158       -0.236       20.532       12.755        6.916       10.160      162.681       47.830      103.225        0.041        0.016        9.161        7.063        0.594      336.632        8.066      860.883
01/10/2015  23:19:00        1.443        7.863        3.829       21.747       11.194        9.766      472.936      125.299       95.384        0.039        0.035        7.994        9.130        1.304      336.610        8.027      860.892
01/10/2015  23:20:00      -87.790       72.183      -20.676       26.406       36.271       13.187      697.252     1315.591      173.886        0.777        0.109      113.655       15.968        0.020      336.545        7.920      860.907
01/10/2015  23:21:00     -135.900       90.194      -30.924       33.928       38.578       25.111     1151.083     1488.284      630.548        1.541        0.163      163.107       19.025        0.014      336.532        7.896      860.938
01/10/2015  23:22:00     -139.542       66.382      -24.279       54.794       53.127       19.605     3002.416     2822.522      384.374        1.534        0.310      154.527       18.429        0.014      336.447        7.754      860.961
01/10/2015  23:23:00      -72.737      -40.836      -10.392       59.085       27.077       17.214     3491.043      733.153      296.319        0.579        0.226       83.416       19.308        0.054      336.410        7.694      860.956
01/10/2015  23:24:00      -22.652      -34.503       12.547       61.700       42.162       36.579     3806.888     1777.637     1337.989        0.439        0.346       41.274       36.263        0.772      336.477        7.805      860.934
01/10/2015  23:25:00     -104.867     -122.687       -7.455       50.607       36.586       28.740     2561.082     1338.530      825.994        1.541        0.236      161.398       27.644        0.029      336.517        7.872      860.934
01/10/2015  23:26:00     -108.652      -93.582       -7.360       53.110       43.097       30.123     2820.714     1857.358      907.404        1.310        0.279      143.398       20.140        0.020      336.501        7.845      860.934
01/10/2015  23:27:00      -85.655     -102.794       -3.766       53.752       58.185       33.890     2889.305     3385.551     1148.503        1.267        0.371      133.803       29.820        0.050      336.507        7.854      860.939
01/10/2015  23:28:00      -93.250     -131.163       -9.989       51.687       59.526       33.008     2671.560     3543.378     1089.511        1.665        0.365      160.933       15.813        0.010      336.431        7.726      860.938
01/10/2015  23:29:00      -80.292      -76.417        1.124       50.105       51.065       32.928     2510.468     2607.636     1084.260        0.924        0.310      110.844       29.006        0.068      336.410        7.692      860.945
01/10/2015  23:30:00     -130.925     -147.000       -8.172       47.086       36.829       29.100     2217.075     1356.386      846.804        2.162        0.221      196.851       25.286        0.017      336.394        7.664      860.949
01/10/2015  23:31:00      -92.530     -114.310        4.349       55.302       46.362       34.521     3058.262     2149.450     1191.691        1.402        0.320      147.067       34.802        0.056      336.439        7.742      860.939
01/10/2015  23:32:00      -18.038      -80.822       10.569       26.640       34.929       22.056      709.683     1220.040      486.465        0.469        0.121       82.811       17.888        0.047      336.500        7.844      860.937
01/10/2015  23:33:00      -78.816      -98.258      -23.146       33.858       41.097       25.953     1146.354     1688.945      673.539        0.995        0.175      125.963        9.076        0.005      336.495        7.837      860.933
01/10/2015  23:34:00      -72.309     -118.857        2.449       43.392       62.814       24.820     1882.860     3945.563      616.044        1.290        0.322      139.124       24.354        0.031      336.561        7.947      860.943
01/10/2015  23:35:00      -77.735      -91.016        6.074       59.747       57.795       34.690     3569.657     3340.288     1203.369        1.124        0.406      119.694       27.253        0.052      336.539        7.909      860.954
01/10/2015  23:36:00     -110.880     -165.740      -11.982       61.012       51.417       30.136     3722.464     2643.658      908.182        2.359        0.364      199.409       24.912        0.016      336.567        7.954      860.949
01/10/2015  23:37:00      -61.217      -65.932        8.408       68.311       43.498       34.361     4666.331     1892.098     1180.669        0.795        0.387       89.970       43.578        0.235      336.538        7.908      860.946
01/10/2015  23:38:00      -25.650      -53.597       -8.553       31.606       48.658       29.632      998.948     2367.616      878.066        0.392        0.212       59.418       28.546        0.231      336.620        8.045      860.947
01/10/2015  23:39:00       -9.507      -17.121       11.937       26.266       15.860       18.029      689.897      251.540      325.056        0.090        0.063       19.583       17.106        0.763      336.574        7.968      860.937
01/10/2015  23:40:00      -29.604      -28.440        5.902       22.685       30.782       17.658      514.593      947.508      311.809        0.175        0.089       41.052       18.734        0.208      336.603        8.017      860.931
01/10/2015  23:41:00      -37.053       -9.893        7.204       38.308       26.052       19.700     1467.509      678.706      388.097        0.203        0.127       38.351       23.349        0.371      336.572        7.966      860.932
01/10/2015  23:42:00     -102.683      -35.889        0.211       28.991       31.751       22.208      840.473     1008.101      493.198        0.709        0.117      108.774       18.316        0.028      336.532        7.899      860.927
01/10/2015  23:43:00      -94.742      -36.813      -12.738       19.423       19.771       15.280      377.257      390.899      233.475        0.575        0.050      101.643       12.882        0.016      336.553        7.934      860.922
01/10/2015  23:44:00     -109.498      -25.405       -9.282       19.643       21.617       12.276      385.832      467.302      150.705        0.686        0.050      112.406       11.080        0.010      336.511        7.862      860.926
01/10/2015  23:45:00      -97.085      -31.631       -5.133       35.749       26.489       16.895     1277.979      701.694      285.438        0.636        0.113      102.107       17.104        0.028      336.410        7.691      860.934
01/10/2015  23:46:00      -76.839      -45.817       -6.145       37.416       23.059       16.202     1399.938      531.726      262.489        0.512        0.110       89.462       14.711        0.027      336.403        7.683      860.933
01/10/2015  23:47:00     -108.446      -45.584       -3.934       29.061       20.466       16.216      844.550      418.854      262.962        0.769        0.076      117.637       13.414        0.013      336.429        7.725      860.934
01/10/2015  23:48:00     -106.651      -47.432       -0.919       47.125       32.125       17.204     2220.745     1032.042      295.973        0.859        0.177      116.723       18.658        0.026      336.486        7.821      860.940
01/10/2015  23:49:00      -80.988      -72.042        3.096       43.418       28.634       18.106     1885.152      819.913      327.837        0.740        0.152      108.394       18.698        0.030      336.530        7.893      860.963
01/10/2015  23:50:00     -115.881      -70.685       -0.889       42.554       32.054       22.827     1810.882     1027.468      521.050        1.089        0.168      135.738       22.577        0.028      336.543        7.917      860.974
01/10/2015  23:51:00      -95.214      -64.013       -3.351       36.769       40.452       23.287     1351.967     1636.378      542.296        0.835        0.177      114.732       20.702        0.033      336.516        7.871      860.995
01/10/2015  23:52:00     -133.646      -52.185       -6.712       51.797       50.917       24.073     2682.911     2592.520      579.532        1.324        0.293      143.473       25.632        0.032      336.467        7.787      861.003
01/10/2015  23:53:00      -85.435      -28.002       12.982       48.103       44.088       30.437     2313.877     1943.728      926.433        0.672        0.259       89.907       32.088        0.127      336.486        7.820      861.010
01/10/2015  23:54:00     -126.931      -27.273       -5.036       38.255       37.687       27.750     1463.441     1420.320      770.061        1.027        0.183      129.827       23.134        0.032      336.503        7.850      861.004
01/10/2015  23:55:00     -117.218      -30.090       -6.244       53.279       30.837       24.506     2838.661      950.947      600.561        0.954        0.220      121.018       30.800        0.065      336.521        7.881      861.002
01/10/2015  23:56:00      -57.324      -20.616        3.853       36.160       29.890       19.809     1307.521      893.398      392.379        0.316        0.130       60.919       21.965        0.130      336.514        7.867      860.992
01/10/2015  23:57:00      -89.361      -11.772        0.803       36.877       30.087       19.737     1359.905      905.201      389.557        0.539        0.133       90.133       17.962        0.040      336.523        7.884      860.996
01/10/2015  23:58:00     -107.626      -26.444       -5.483       32.738       27.597       23.101     1071.768      761.568      533.660        0.734        0.118      110.827       23.475        0.045      336.475        7.802      861.013
01/10/2015  23:59:00     -153.080      -37.688      -10.498       33.124       23.645       19.012     1097.185      559.080      361.454        1.349        0.101      157.651       15.188        0.009      336.516        7.870      861.027
